[[{"header":{"parameterUnit":"m.s-1","parameterCategory":1,"la1":30.6,"la2":29.2853,"lo1":-89.7004,"lo2":-87.6739,"dy":0.0162,"dx":0.0183,"nx":112,"ny":82,"refTime":"2026-04-02T12:00:00:Z","depth":0,"parameterNumber":2,"parameterNumberName":"U-component_of_WINDS"},"data":[0.0,0.0,0.0,0.0,0.0,0.0,0.0,0.0,0.0,0.0,0.0,0.0,0.0,0.0,0.0,0.0,0.0,0.0,0.0,0.0,0.0,0.0,0.0,0.0,0.0,0.0,0.0,0.0,0.0,0.0,0.0,0.0,0.0,0.0,0.0,0.0,0.0,0.0,0.0,0.0,0.0,0.0,0.0,0.0,0.0,0.0,0.0,0.0,0.0,0.0,0.0,0.0,0.0,0.0,0.0,0.0,0.0,0.0,0.0,0.0,0.0,0.0,0.0,0.0,0.0,0.0,0.0,0.0,0.0,0.0,0.0,0.0,0.0,0.0,0.0,0.0,0.0,0.0,0.0,0.0,0.0,0.0,0.0,0.0,0.0,0.0,0.0,0.0,0.0,0.0,0.0,6.5548,7.4549,7.9281,7.7442,7.5088,7.0699,6.3737,0.0,0.0,0.0,0.0,0.0,0.0,0.0,0.0,0.0,0.0,0.0,0.0,0.0,0.0,0.0,0.0,0.0,0.0,0.0,0.0,0.0,0.0,0.0,0.0,0.0,0.0,0.0,0.0,0.0,0.0,0.0,0.0,0.0,0.0,0.0,0.0,0.0,0.0,0.0,0.0,0.0,0.0,0.0,0.0,0.0,0.0,0.0,0.0,0.0,0.0,0.0,0.0,0.0,0.0,0.0,0.0,0.0,0.0,0.0,0.0,0.0,0.0,0.0,0.0,0.0,0.0,0.0,0.0,0.0,0.0,0.0,0.0,0.0,0.0,0.0,0.0,0.0,0.0,0.0,0.0,0.0,0.0,0.0,0.0,0.0,0.0,0.0,0.0,0.0,0.0,0.0,0.0,0.0,0.0,0.0,0.0,0.0,0.0,0.0,0.0,0.0,0.0,0.0,0.0,6.1971,7.3091,7.8246,7.9939,7.7519,7.5588,7.1315,6.3775,0.0,0.0,0.0,0.0,0.0,0.0,0.0,0.0,0.0,0.0,0.0,0.0,0.0,0.0,0.0,0.0,0.0,0.0,0.0,0.0,0.0,0.0,0.0,0.0,0.0,0.0,0.0,0.0,0.0,0.0,0.0,0.0,0.0,0.0,0.0,0.0,0.0,0.0,0.0,0.0,0.0,0.0,0.0,0.0,0.0,0.0,0.0,0.0,0.0,0.0,0.0,0.0,0.0,0.0,0.0,0.0,0.0,0.0,0.0,0.0,0.0,0.0,0.0,0.0,0.0,0.0,0.0,0.0,0.0,0.0,0.0,0.0,0.0,0.0,0.0,0.0,0.0,0.0,0.0,0.0,0.0,0.0,0.0,0.0,0.0,0.0,0.0,0.0,0.0,0.0,0.0,0.0,0.0,0.0,0.0,0.0,0.0,0.0,0.0,0.0,0.0,0.0,0.0,6.0861,6.8632,7.5941,7.9323,8.0054,7.7519,7.4864,7.0475,6.3737,5.6505,0.0,0.0,0.0,0.0,0.0,0.0,0.0,0.0,0.0,0.0,0.0,0.0,0.0,0.0,0.0,0.0,0.0,0.0,0.0,0.0,0.0,0.0,0.0,0.0,0.0,0.0,0.0,0.0,0.0,0.0,0.0,0.0,0.0,0.0,0.0,0.0,0.0,0.0,0.0,0.0,0.0,0.0,0.0,0.0,0.0,0.0,0.0,0.0,0.0,0.0,0.0,0.0,0.0,0.0,0.0,0.0,0.0,0.0,0.0,0.0,0.0,0.0,0.0,0.0,0.0,0.0,0.0,0.0,0.0,0.0,0.0,0.0,0.0,0.0,0.0,0.0,0.0,0.0,0.0,0.0,0.0,0.0,0.0,0.0,0.0,0.0,0.0,0.0,0.0,0.0,0.0,0.0,0.0,0.0,0.0,0.0,0.0,0.0,0.0,0.0,0.0,0.0,6.8209,7.4018,7.7249,7.9673,7.99,7.6942,7.3556,6.8898,6.2506,5.5313,0.0,0.0,0.0,0.0,0.0,0.0,0.0,0.0,0.0,0.0,0.0,0.0,0.0,0.0,0.0,0.0,0.0,0.0,0.0,0.0,0.0,0.0,0.0,0.0,0.0,0.0,0.0,0.0,0.0,0.0,0.0,0.0,0.0,0.0,0.0,0.0,0.0,0.0,0.0,0.0,0.0,0.0,0.0,0.0,0.0,0.0,0.0,0.0,0.0,0.0,0.0,0.0,0.0,0.0,0.0,0.0,0.0,0.0,0.0,0.0,0.0,0.0,0.0,0.0,0.0,0.0,0.0,0.0,0.0,0.0,0.0,0.0,0.0,0.0,0.0,0.0,0.0,0.0,0.0,0.0,0.0,0.0,0.0,0.0,0.0,0.0,0.0,0.0,0.0,0.0,0.0,0.0,0.0,0.0,0.0,0.0,0.0,0.0,0.0,0.0,0.0,0.0,7.0318,7.5515,7.8138,8.0019,7.94,7.5242,7.1818,6.6664,5.9124,5.2933,0.0,0.0,0.0,0.0,0.0,0.0,0.0,0.0,0.0,0.0,0.0,0.0,0.0,0.0,0.0,0.0,0.0,0.0,0.0,0.0,0.0,0.0,0.0,0.0,0.0,0.0,0.0,0.0,0.0,0.0,0.0,0.0,0.0,0.0,0.0,0.0,0.0,0.0,0.0,0.0,0.0,0.0,0.0,0.0,0.0,0.0,0.0,0.0,0.0,0.0,0.0,0.0,0.0,0.0,0.0,0.0,0.0,0.0,0.0,0.0,0.0,0.0,0.0,0.0,0.0,0.0,0.0,0.0,0.0,0.0,0.0,0.0,0.0,0.0,0.0,0.0,0.0,0.0,0.0,0.0,0.0,0.0,0.0,0.0,0.0,0.0,0.0,0.0,0.0,0.0,0.0,0.0,0.0,0.0,0.0,0.0,0.0,0.0,0.0,0.0,0.0,0.0,7.0972,7.6284,0.0,8.0058,7.9592,7.5822,7.1433,6.6086,5.947,0.0,0.0,0.0,0.0,0.0,0.0,0.0,0.0,0.0,0.0,0.0,0.0,0.0,0.0,0.0,0.0,0.0,0.0,0.0,0.0,0.0,0.0,0.0,0.0,0.0,0.0,0.0,0.0,0.0,0.0,0.0,0.0,0.0,0.0,0.0,0.0,0.0,0.0,0.0,0.0,0.0,0.0,0.0,0.0,0.0,0.0,0.0,0.0,0.0,0.0,0.0,0.0,0.0,0.0,0.0,0.0,0.0,0.0,0.0,0.0,0.0,0.0,0.0,0.0,0.0,0.0,0.0,0.0,0.0,0.0,0.0,0.0,0.0,0.0,0.0,0.0,0.0,0.0,0.0,0.0,0.0,0.0,0.0,0.0,0.0,0.0,0.0,0.0,0.0,0.0,0.0,0.0,0.0,0.0,0.0,0.0,0.0,0.0,0.0,0.0,0.0,0.0,6.4397,7.2052,7.7326,0.0,8.0439,7.9862,7.5934,7.1433,6.6048,5.9547,0.0,0.0,0.0,0.0,0.0,0.0,0.0,0.0,0.0,0.0,0.0,0.0,0.0,0.0,0.0,0.0,0.0,0.0,0.0,0.0,0.0,0.0,0.0,0.0,0.0,0.0,0.0,0.0,0.0,0.0,0.0,0.0,0.0,0.0,0.0,0.0,0.0,0.0,0.0,0.0,0.0,0.0,0.0,0.0,0.0,0.0,0.0,0.0,0.0,0.0,0.0,0.0,0.0,0.0,0.0,0.0,0.0,0.0,0.0,0.0,0.0,0.0,0.0,0.0,0.0,0.0,0.0,0.0,0.0,0.0,0.0,0.0,0.0,0.0,0.0,0.0,0.0,0.0,0.0,0.0,0.0,0.0,0.0,0.0,0.0,0.0,0.0,0.0,0.0,0.0,0.0,0.0,0.0,0.0,0.0,0.0,0.0,0.0,0.0,0.0,0.0,0.0,6.6019,7.3752,7.8827,7.9704,8.1285,8.0246,7.5165,7.1664,6.6471,0.0,0.0,0.0,0.0,0.0,0.0,0.0,0.0,0.0,0.0,0.0,0.0,0.0,0.0,0.0,0.0,0.0,0.0,0.0,0.0,0.0,0.0,0.0,0.0,0.0,0.0,0.0,0.0,0.0,0.0,0.0,0.0,0.0,0.0,0.0,0.0,0.0,0.0,0.0,0.0,0.0,0.0,0.0,0.0,0.0,0.0,0.0,0.0,0.0,0.0,0.0,0.0,0.0,0.0,0.0,0.0,0.0,0.0,0.0,0.0,0.0,0.0,0.0,0.0,0.0,0.0,0.0,0.0,0.0,0.0,0.0,0.0,0.0,0.0,0.0,0.0,0.0,0.0,0.0,0.0,0.0,0.0,0.0,0.0,0.0,0.0,0.0,0.0,0.0,0.0,0.0,0.0,0.0,0.0,0.0,0.0,0.0,0.0,0.0,0.0,0.0,0.0,0.0,0.0,7.3752,7.8827,7.9704,8.1285,8.075,7.6865,7.3402,6.8478,6.1402,0.0,0.0,0.0,0.0,0.0,0.0,0.0,0.0,0.0,0.0,0.0,0.0,0.0,0.0,0.0,0.0,0.0,0.0,0.0,0.0,0.0,0.0,0.0,0.0,0.0,0.0,0.0,0.0,0.0,0.0,0.0,0.0,0.0,0.0,0.0,0.0,0.0,0.0,0.0,0.0,0.0,0.0,0.0,0.0,0.0,0.0,0.0,0.0,0.0,0.0,0.0,0.0,0.0,0.0,0.0,0.0,0.0,0.0,0.0,0.0,0.0,0.0,0.0,0.0,0.0,0.0,0.0,0.0,0.0,0.0,0.0,0.0,0.0,0.0,0.0,0.0,0.0,0.0,0.0,0.0,0.0,0.0,0.0,0.0,0.0,0.0,0.0,0.0,0.0,0.0,0.0,0.0,0.0,0.0,0.0,0.0,0.0,0.0,0.0,0.0,0.0,0.0,6.6513,7.4595,7.9865,8.0708,8.2324,8.2093,7.9058,7.6288,7.1675,6.4557,0.0,0.0,0.0,0.0,0.0,0.0,0.0,0.0,0.0,0.0,0.0,0.0,0.0,0.0,0.0,0.0,0.0,0.0,0.0,0.0,0.0,0.0,0.0,0.0,0.0,0.0,0.0,0.0,0.0,0.0,0.0,0.0,0.0,0.0,0.0,0.0,0.0,0.0,0.0,0.0,0.0,0.0,0.0,0.0,0.0,0.0,0.0,0.0,0.0,0.0,0.0,0.0,0.0,0.0,0.0,0.0,0.0,0.0,0.0,0.0,0.0,0.0,0.0,0.0,0.0,0.0,0.0,0.0,0.0,0.0,0.0,0.0,0.0,0.0,0.0,0.0,0.0,0.0,0.0,0.0,0.0,0.0,0.0,0.0,0.0,0.0,0.0,0.0,0.0,0.0,0.0,0.0,0.0,0.0,0.0,0.0,0.0,0.0,0.0,0.0,0.0,0.0,6.7314,7.5819,8.14,8.2208,8.3858,8.3858,8.1323,7.9481,7.5329,6.7824,0.0,0.0,0.0,0.0,0.0,0.0,0.0,0.0,0.0,0.0,0.0,0.0,0.0,0.0,0.0,0.0,0.0,0.0,0.0,0.0,0.0,0.0,0.0,0.0,0.0,0.0,0.0,0.0,0.0,0.0,0.0,0.0,0.0,0.0,0.0,0.0,0.0,0.0,0.0,0.0,0.0,0.0,0.0,0.0,0.0,0.0,0.0,0.0,0.0,0.0,0.0,0.0,0.0,0.0,0.0,0.0,0.0,0.0,0.0,0.0,5.2145,0.0,0.0,0.0,0.0,0.0,0.0,0.0,0.0,0.0,0.0,0.0,0.0,0.0,0.0,0.0,0.0,0.0,0.0,0.0,0.0,0.0,0.0,0.0,0.0,0.0,0.0,0.0,0.0,0.0,0.0,0.0,0.0,0.0,0.0,0.0,0.0,0.0,0.0,0.0,0.0,0.0,6.7314,7.5819,8.14,8.2208,8.3858,8.3858,8.1323,7.9481,7.5826,6.9552,0.0,0.0,0.0,0.0,0.0,0.0,0.0,0.0,0.0,0.0,0.0,0.0,0.0,0.0,0.0,0.0,0.0,0.0,0.0,0.0,0.0,0.0,0.0,0.0,0.0,0.0,0.0,0.0,0.0,0.0,0.0,0.0,0.0,0.0,0.0,0.0,0.0,0.0,0.0,0.0,0.0,0.0,0.0,0.0,0.0,0.0,0.0,0.0,0.0,0.0,0.0,0.0,0.0,0.0,0.0,0.0,0.0,0.0,0.0,0.0,0.0,5.5299,0.0,0.0,0.0,0.0,0.0,0.0,0.0,0.0,0.0,0.0,0.0,0.0,0.0,0.0,0.0,0.0,0.0,0.0,0.0,0.0,0.0,0.0,0.0,0.0,0.0,0.0,0.0,0.0,0.0,0.0,0.0,0.0,0.0,0.0,0.0,0.0,0.0,0.0,0.0,0.0,6.7353,7.5819,8.1554,8.2789,8.4478,8.4593,8.2481,8.1096,7.7634,7.1286,6.4894,0.0,0.0,0.0,0.0,0.0,0.0,0.0,0.0,0.0,0.0,0.0,0.0,0.0,0.0,0.0,0.0,0.0,0.0,0.0,0.0,0.0,0.0,0.0,0.0,0.0,0.0,0.0,0.0,0.0,0.0,0.0,0.0,0.0,0.0,0.0,0.0,0.0,0.0,0.0,0.0,0.0,0.0,0.0,0.0,0.0,0.0,0.0,0.0,0.0,0.0,0.0,0.0,0.0,0.0,6.7353,6.7494,6.7648,6.852,6.9677,6.6222,6.3254,6.0883,0.0,0.0,0.0,0.0,0.0,0.0,0.0,0.0,0.0,0.0,0.0,0.0,0.0,0.0,0.0,0.0,0.0,0.0,0.0,0.0,0.0,0.0,0.0,0.0,0.0,6.5314,6.3891,0.0,0.0,0.0,0.0,0.0,0.0,0.0,0.0,0.0,0.0,0.0,0.0,6.766,7.578,8.1516,8.3174,8.4751,8.5055,8.3482,8.2597,7.9438,7.3248,6.8205,6.2666,0.0,0.0,0.0,0.0,0.0,0.0,0.0,0.0,0.0,0.0,0.0,0.0,0.0,0.0,0.0,0.0,0.0,0.0,0.0,0.0,0.0,0.0,0.0,0.0,0.0,0.0,0.0,0.0,0.0,0.0,0.0,0.0,4.7065,4.8786,0.0,0.0,0.0,0.0,0.0,0.0,0.0,0.0,0.0,0.0,0.0,0.0,0.0,0.0,6.7629,7.0277,7.1991,7.2809,7.3621,7.4396,7.5076,7.5865,7.6611,7.7392,7.7511,0.0,6.7994,6.7398,0.0,0.0,0.0,0.0,0.0,0.0,0.0,0.0,0.0,0.0,0.0,0.0,0.0,0.0,0.0,0.0,0.0,0.0,0.0,0.0,0.0,0.0,7.2161,7.2161,7.328,7.3668,0.0,6.6237,6.1352,5.8701,0.0,0.0,0.0,0.0,0.0,0.0,0.0,0.0,6.8629,7.5626,8.0627,8.2285,8.3366,8.352,8.2558,8.1747,7.9592,7.5745,7.1437,6.6971,6.2314,5.6588,0.0,0.0,0.0,0.0,0.0,0.0,0.0,0.0,0.0,0.0,0.0,0.0,0.0,0.0,0.0,0.0,0.0,0.0,0.0,0.0,0.0,0.0,0.0,0.0,0.0,0.0,0.0,0.0,0.0,4.7863,5.1101,5.2236,5.2793,5.2683,0.0,0.0,0.0,0.0,0.0,0.0,0.0,0.0,0.0,6.5221,6.8879,7.1957,7.4419,7.7331,7.8972,7.9348,8.0128,8.0709,8.1077,8.1452,8.2046,8.2761,8.31,8.1744,7.8968,7.4723,7.0657,6.6775,0.0,0.0,0.0,0.0,0.0,6.2402,6.4823,6.4876,0.0,0.0,0.0,0.0,0.0,0.0,0.0,0.0,0.0,0.0,0.0,0.0,0.0,7.5359,7.599,7.6375,7.5641,7.31,6.9704,0.0,6.2858,5.9784,5.4554,0.0,0.0,0.0,0.0,0.0,6.9629,7.6319,8.0977,8.217,8.3097,8.3251,8.2366,8.1977,8.0327,7.6942,7.4514,7.1126,6.6353,6.1855,5.7008,0.0,0.0,0.0,0.0,0.0,0.0,0.0,0.0,0.0,0.0,0.0,0.0,0.0,0.0,0.0,0.0,0.0,0.0,0.0,0.0,0.0,0.0,0.0,0.0,0.0,0.0,0.0,0.0,5.2223,5.5416,5.6413,5.7446,5.7525,0.0,0.0,0.0,0.0,0.0,0.0,6.3656,6.5748,6.8421,7.1835,7.4874,7.7553,7.98,8.2802,8.4409,8.4637,8.5628,8.6151,8.6151,8.6151,8.6334,8.6701,8.6701,8.6958,8.682,8.0605,7.6174,7.3003,6.9564,6.7445,6.6382,6.7108,6.7828,6.8816,7.1222,7.1519,7.0734,7.0041,0.0,6.4395,6.2071,0.0,0.0,0.0,0.0,6.7292,6.987,7.3973,7.7531,7.7851,7.8248,7.8373,7.7952,7.7875,7.6235,0.0,6.8398,6.5626,6.0118,0.0,0.0,0.0,0.0,6.6214,7.0875,7.6874,8.0999,8.1865,8.2546,8.2712,8.2054,8.1785,8.0519,7.7792,7.6399,7.378,6.9549,6.6086,6.1701,5.6206,0.0,0.0,0.0,0.0,0.0,0.0,0.0,0.0,0.0,0.0,0.0,0.0,0.0,0.0,0.0,0.0,0.0,0.0,0.0,0.0,0.0,0.0,0.0,0.0,0.0,0.0,0.0,0.0,0.0,6.2205,6.382,0.0,0.0,0.0,0.0,6.4561,6.6946,6.8715,6.9633,7.2635,7.516,7.6885,7.9381,8.1481,8.3124,8.5591,8.7206,8.7986,8.9555,9.0289,9.0289,9.0289,8.9886,8.9216,8.9216,8.8821,8.7802,8.3643,8.1337,8.0023,7.5323,7.3467,7.3386,7.343,7.3945,7.4999,7.733,7.7571,7.6741,7.6089,7.1864,6.6914,6.6184,6.4394,0.0,0.0,6.8396,7.1105,7.3649,7.6872,7.9729,8.0806,8.1851,8.2182,8.0578,8.0243,7.8746,0.0,7.1989,6.9999,6.5805,0.0,6.1622,6.26,6.5656,6.911,7.2621,7.6885,7.9952,8.0884,8.1122,8.1208,8.117,8.0396,7.9512,7.8484,7.613,7.3934,7.2098,6.8747,6.4862,6.0553,5.6283,0.0,0.0,0.0,0.0,0.0,0.0,0.0,0.0,0.0,0.0,0.0,0.0,0.0,0.0,0.0,0.0,0.0,0.0,0.0,0.0,0.0,0.0,0.0,0.0,0.0,0.0,0.0,0.0,6.7247,6.9412,0.0,0.0,6.7724,6.8311,7.127,7.3215,7.5351,7.7752,7.9462,8.1114,8.2737,8.3618,8.5123,8.7234,8.761,8.8426,8.9748,8.9812,8.984,8.984,8.984,8.9657,8.9363,8.8858,8.8748,8.8748,8.5747,8.4022,8.3149,8.1531,7.9905,7.8556,7.9164,7.9177,7.9092,8.044,8.0388,7.9412,7.7685,7.5108,7.2547,7.1751,7.0761,7.026,7.1681,7.3651,7.5637,7.7053,7.9109,8.0964,8.1536,8.1664,8.1527,8.0951,7.9984,7.8628,7.6705,7.481,7.279,7.0424,6.8482,6.7554,6.8429,7.0455,7.2757,7.5153,7.815,8.0287,8.0788,8.0971,8.0862,8.0319,7.9973,7.8973,7.7015,7.6053,7.4514,7.2287,7.0479,6.7824,6.4131,5.9899,5.52,0.0,0.0,0.0,0.0,0.0,0.0,0.0,0.0,0.0,0.0,0.0,0.0,0.0,0.0,0.0,0.0,0.0,0.0,0.0,0.0,0.0,0.0,0.0,0.0,0.0,0.0,6.9412,7.1835,7.4265,7.533,7.425,7.367,7.4368,7.6783,7.8463,8.0298,8.248,8.3353,8.4417,8.5755,8.6343,8.7509,8.9363,8.9702,9.0408,9.1427,9.117,9.0913,9.0647,9.0647,9.0354,8.9767,8.9225,8.9005,8.8895,8.7545,8.6554,8.5755,8.5003,8.37,8.2304,8.2917,8.2745,8.2251,8.2517,8.1893,8.0763,7.9241,7.799,7.6992,7.6393,7.6062,7.5986,7.6557,7.7654,7.8833,7.937,8.0575,8.1735,8.1983,8.1604,8.1071,8.0856,7.922,7.77,7.7503,7.6267,7.4918,7.379,7.26,7.1976,7.2581,7.3838,7.5213,7.6727,7.8842,8.0316,8.0587,8.0843,8.0659,7.9776,7.943,7.8315,7.6048,7.5356,7.418,7.2252,7.135,6.9436,6.6362,6.1284,5.6165,5.1043,0.0,0.0,0.0,0.0,0.0,0.0,0.0,0.0,0.0,0.0,0.0,0.0,0.0,0.0,0.0,0.0,0.0,0.0,0.0,0.0,0.0,0.0,0.0,6.2536,6.8525,7.3523,7.5946,7.8413,7.9926,7.9963,7.9963,8.0285,8.1077,8.2582,8.3454,8.3454,8.4233,8.5013,8.5792,8.7362,8.861,8.9436,9.1831,9.3051,9.3125,9.3859,9.3822,9.3051,9.3051,9.2161,9.062,9.062,8.9711,8.8316,8.9042,8.8895,8.7949,8.5637,8.4719,8.4719,8.4719,8.4682,8.4527,8.3756,8.2435,8.1114,8.1077,8.0534,7.9926,7.989,7.9955,8.0027,8.0027,8.0265,8.0511,8.0511,8.1281,8.2078,8.2368,8.1936,8.1231,8.0493,7.8204,7.6288,7.6101,7.635,7.6373,7.5858,7.5205,7.4818,7.4909,7.5585,0.0,7.7267,7.8766,7.9897,8.0267,8.0578,8.0443,7.9565,7.8679,7.7448,7.5761,7.4066,7.2801,7.2058,7.1283,6.9671,6.7096,6.0559,5.467,4.9589,0.0,0.0,0.0,0.0,0.0,0.0,0.0,0.0,0.0,0.0,0.0,0.0,0.0,0.0,0.0,0.0,0.0,0.0,0.0,0.0,0.0,0.0,6.4194,6.6836,7.1791,7.624,7.9286,8.126,8.2627,8.3214,8.3287,8.3618,8.4434,8.4903,8.5123,8.5123,8.5885,8.6187,8.5829,8.7362,8.8867,9.0253,9.095,9.1904,9.3088,9.2684,9.2354,9.217,9.217,9.1913,9.1436,9.0849,9.0032,8.9033,8.8674,8.8051,8.739,8.7858,8.772,8.7215,8.7215,8.6481,8.5425,8.5233,8.4462,8.3499,8.2949,8.2582,8.2288,8.1717,8.1242,8.0882,8.0882,8.0686,8.0644,8.12,8.1696,8.2198,8.295,8.2566,8.1815,8.0936,7.873,7.7058,7.7387,7.6604,7.6065,7.6679,7.6865,7.716,7.7837,7.8069,0.0,7.8558,7.8953,7.9404,7.9881,8.0287,8.0164,7.9356,7.8485,7.7036,0.0,7.2965,7.1423,7.02,7.006,6.8821,6.6285,6.2598,5.8481,0.0,0.0,0.0,0.0,0.0,0.0,0.0,0.0,0.0,0.0,0.0,0.0,0.0,0.0,0.0,0.0,0.0,0.0,0.0,0.0,0.0,0.0,6.4634,6.9405,7.2525,7.5939,7.9095,8.1701,8.3426,8.4711,8.5518,8.5591,8.582,8.6261,8.6297,8.6297,8.6297,8.6444,8.6444,8.6297,8.7876,8.9298,9.0583,9.128,9.2134,9.3079,9.2207,9.1803,9.1803,9.1803,9.1803,0.0,9.1326,9.0656,8.9849,8.9042,8.8234,0.0,0.0,0.0,0.0,0.0,8.6885,8.5792,8.5792,8.5278,8.4535,8.405,8.3683,8.3234,8.2443,8.1451,8.053,8.0199,7.9701,7.9468,8.0274,8.0874,8.1496,8.2401,8.2296,8.173,8.0789,7.8654,7.6968,7.7265,0.0,0.0,7.6782,7.7628,7.8341,7.8866,7.891,7.8872,0.0,7.891,7.906,7.9549,7.9933,7.9826,7.9022,7.8155,0.0,0.0,0.0,7.1282,7.0006,6.9711,0.0,0.0,0.0,0.0,0.0,0.0,0.0,0.0,5.0933,5.2164,0.0,0.0,0.0,0.0,0.0,0.0,0.0,0.0,0.0,0.0,0.0,0.0,0.0,0.0,0.0,0.0,6.9346,7.4258,7.8185,8.0351,8.2068,8.3499,8.4939,8.6122,8.6913,8.7096,8.7133,8.7133,8.7206,8.7243,8.7133,0.0,0.0,0.0,0.0,8.9877,9.0583,9.217,9.2941,9.2941,9.217,9.1803,9.1803,9.1803,9.1803,9.1803,9.1803,9.1326,9.0546,8.984,8.9078,8.8243,8.7353,8.6986,8.6986,8.6986,8.6554,0.0,0.0,0.0,0.0,8.4756,8.4233,8.3499,8.259,8.1203,7.9771,7.8964,7.8206,7.7827,7.8696,7.9591,8.0532,8.1418,8.1625,8.138,8.0508,7.8455,7.6818,7.6781,7.6191,7.5951,7.6749,7.7844,7.8649,7.8649,7.8649,7.8649,7.8649,7.8649,7.8806,7.9202,0.0,0.0,7.8717,7.7857,7.6678,7.511,7.329,7.1876,7.0969,7.0264,6.9578,6.8853,6.817,6.659,6.416,6.416,6.3858,6.3137,5.863,5.8283,0.0,0.0,0.0,0.0,0.0,0.0,0.0,0.0,0.0,0.0,0.0,0.0,0.0,0.0,0.0,6.8244,7.2569,7.6387,7.9192,8.2635,8.4984,8.5315,8.5608,8.6122,8.6913,8.7573,8.7986,8.7986,8.8564,8.8629,8.7986,8.8454,0.0,8.7986,8.9519,9.0436,9.0583,9.1583,9.206,9.206,0.0,0.0,9.1803,9.1803,9.1803,9.1803,9.1803,9.1326,9.0583,9.0436,8.9877,8.9033,8.7573,8.6986,8.6986,8.6986,8.6913,8.6766,8.6766,8.6656,8.6436,8.5783,8.5462,8.5049,8.3609,8.2031,0.0,7.9771,7.8603,7.7915,7.9396,7.9997,8.0598,8.2105,8.2466,8.2206,8.1218,8.0111,7.9284,7.9144,7.8174,7.7599,7.8411,7.8463,7.8366,7.8366,7.8366,7.8366,7.8366,7.8366,7.8488,7.8787,7.901,7.9106,7.9,7.8216,7.7301,7.6299,7.3689,7.2277,7.2406,7.2432,7.2171,7.1475,7.1972,7.1318,6.9436,6.9436,6.9709,7.0097,6.4474,6.2932,0.0,0.0,0.0,0.0,0.0,0.0,0.0,0.0,0.0,0.0,0.0,5.9716,6.338,0.0,6.8898,7.2496,7.5836,7.8817,8.1269,8.403,8.5792,8.5792,8.6151,8.6546,8.6949,8.7729,8.8206,8.8206,8.8968,8.9216,8.8821,8.9179,8.9216,8.8821,8.9959,9.0583,9.0583,9.14,9.1803,9.1803,9.1803,9.1803,9.1803,9.1803,9.1803,9.1803,9.1803,9.1583,9.1179,9.0767,9.0143,8.9363,8.8959,8.8307,8.7537,8.7133,8.6986,8.6986,8.6986,8.6986,8.6913,8.6518,8.6114,8.5572,8.4389,8.2582,8.0828,8.0036,7.8688,7.775,7.897,7.9665,8.0316,8.156,8.215,8.231,8.1817,8.1066,8.0491,8.0411,7.933,7.8522,7.8928,7.8932,7.8773,7.8364,7.829,7.829,7.829,7.829,7.8373,7.8582,7.8749,7.8865,7.8909,7.8129,7.7111,7.5894,7.4583,7.3625,7.3169,7.3423,7.3319,7.2696,7.3589,7.3433,7.2203,7.2626,7.2822,7.2783,6.9779,6.8856,0.0,0.0,0.0,0.0,0.0,0.0,0.0,0.0,5.6334,5.9893,6.2793,6.5692,6.9002,7.105,7.3149,7.5902,7.8405,8.0836,8.3087,8.4939,8.5976,8.5829,8.6518,8.6986,8.6986,8.7867,8.8418,8.8418,8.9335,8.9877,8.9877,8.9877,8.9877,8.9877,9.051,9.084,9.084,9.1473,9.1803,9.1803,9.1803,9.1803,9.1803,9.1803,9.1803,9.1803,9.1803,9.1803,9.1739,9.1106,9.0436,8.9913,9.0583,9.0041,8.8793,8.783,8.7353,8.7206,8.706,8.6986,8.6986,8.6986,8.6546,8.5865,8.5086,8.3361,8.1517,8.0726,7.9396,7.8463,7.9315,8.0021,8.0689,8.1517,8.2076,8.2443,8.2443,8.1819,8.1224,8.1224,8.0287,7.9482,7.9482,7.9636,7.9472,7.8655,7.8662,7.8766,7.8766,7.8766,7.8815,7.8939,7.9003,7.9101,7.9101,7.8361,7.731,7.596,7.5887,7.5396,7.4367,7.4675,7.4622,7.4087,7.505,7.5188,7.4472,7.5126,7.5126,7.4472,7.4472,7.4126,4.8852,5.0954,5.4845,5.7361,5.9202,6.0603,0.0,0.0,6.3399,6.5301,6.8745,7.1534,7.2018,7.4001,7.5902,7.6995,7.9242,8.1444,8.3161,8.5408,8.6591,8.5865,8.6518,8.6986,8.6986,8.8372,8.9253,8.9253,9.0656,9.1546,9.1546,9.1546,9.1546,9.1546,9.162,9.1657,9.1657,9.1767,9.1803,9.1803,9.1803,9.1803,9.1803,9.1803,9.1803,9.1803,9.1803,9.1803,9.1803,9.1693,9.162,9.1546,9.162,9.1555,9.1216,8.9693,8.8674,8.7949,8.7243,8.6986,8.6986,8.6986,8.6949,8.6729,8.5902,8.4976,8.4013,8.3206,8.2362,8.1856,8.2655,8.2949,8.3206,8.4022,8.372,8.3279,8.3279,8.2618,8.2076,8.2076,8.1613,8.1211,8.1211,8.0852,8.0289,7.9472,7.9955,8.0438,8.0438,8.0438,8.0445,8.0459,8.0474,8.0481,8.0481,7.9744,7.9187,7.9001,7.7856,7.7205,7.7237,7.7721,7.7789,7.7305,7.8373,7.8624,7.7946,7.8019,7.8019,7.7946,7.7946,7.6361,5.3157,5.6088,6.0266,0.0,6.4671,6.6886,6.8157,6.8715,6.9706,7.2268,7.4544,7.6203,7.6651,7.7202,7.8112,0.0,8.1012,8.2406,8.4499,8.5673,8.6004,8.5196,8.5004,8.5261,8.6224,8.7316,8.8372,8.9326,9.0473,9.1326,9.1767,9.1803,9.1803,9.1803,9.1803,9.1803,9.1803,9.1803,9.1803,9.1803,9.1803,9.1803,9.1803,9.1803,9.1803,9.1803,9.1803,9.1803,9.1803,9.1803,9.2097,9.2611,9.3061,9.3244,9.3015,9.0877,8.9583,8.8785,8.7977,8.739,8.6986,8.6986,8.7316,8.7537,8.6738,8.6252,8.5812,8.5013,8.4205,8.3654,8.4013,8.4087,8.416,8.4535,8.3976,8.3381,8.3381,8.2765,8.2194,8.2194,8.1718,8.1323,8.1323,8.1219,8.1044,8.0711,8.0687,8.0698,8.0698,8.0698,8.0698,8.0698,8.0698,8.0698,8.0698,8.0401,8.0215,8.0215,7.9294,7.8594,7.829,7.8245,7.7982,7.7528,7.8089,7.8326,7.8165,7.8223,7.8277,7.8325,7.8363,7.7592,5.7121,6.0456,0.0,6.6726,6.9559,7.2129,7.3516,7.3993,7.4764,7.6878,7.7994,7.8699,7.9029,7.8809,7.925,8.1203,8.2113,8.3214,8.5205,8.5865,8.5747,8.4719,8.3903,8.3866,8.5013,8.6077,8.7243,8.8629,8.9886,9.0849,9.1436,9.1693,9.1803,9.1803,9.1803,9.1803,9.1803,9.1803,9.1803,9.1803,9.1803,9.1803,9.1803,9.1803,9.1803,9.1803,9.1803,9.1803,9.1803,9.1803,9.2317,9.3189,9.3969,9.4309,9.4088,9.2281,9.095,8.9959,8.916,8.8344,8.7647,8.739,8.7729,8.8059,8.7243,8.6986,8.6876,8.6297,8.571,8.5261,8.5261,8.5261,8.5261,8.5261,8.4637,8.405,8.405,8.3434,8.2847,8.2847,8.2324,8.1847,8.1847,8.1833,8.1839,8.1839,8.1489,8.1229,8.1229,8.1273,8.1324,8.136,8.1404,8.1404,8.1404,8.1181,8.107,8.107,8.0395,7.9748,7.9284,7.9016,7.8729,7.8449,7.8647,7.8757,7.8742,7.8913,7.8926,7.882,7.8863,7.8863,6.0352,0.0,6.7357,7.1277,7.4111,7.613,7.6959,7.781,7.8185,7.7428,7.7994,7.8369,7.7546,7.8067,7.889,7.9743,8.1856,8.3646,8.4535,8.5995,8.6362,8.4792,8.3903,8.3418,0.0,8.4903,8.6187,8.7023,8.9262,9.062,9.062,9.1363,9.1803,9.1803,9.1803,9.1803,9.1803,9.1803,9.1803,9.1803,9.1803,9.1803,9.1803,9.1803,9.1803,9.1803,9.1803,9.1803,9.1803,9.1803,9.2317,9.3189,9.3969,9.4309,9.4309,9.4235,9.3171,9.1702,9.0849,8.9987,8.9216,8.8426,8.8169,8.8059,8.7243,8.6986,8.6986,8.6986,8.6949,8.6913,8.6913,8.6913,8.6913,8.6913,8.6297,8.5719,8.5719,8.5094,8.4535,8.4535,8.3979,8.3512,8.3512,8.3058,8.2651,8.2651,8.2659,8.263,8.263,8.2739,8.2905,8.3098,8.3113,8.3113,8.3113,8.2407,8.1969,8.1969,8.1151,8.0668,8.0638,8.0888,8.1097,8.1256,8.1543,8.1379,8.0796,8.1065,8.091,8.032,8.0401,8.0401,6.2946,0.0,7.1211,7.4147,7.6754,7.878,7.9572,7.9976,7.9947,7.914,7.8324,7.7656,7.7355,7.7113,7.7745,8.0204,8.2178,8.3866,8.5205,8.5857,8.5783,8.4719,8.3434,0.0,0.0,0.0,0.0,8.6803,8.8234,8.9482,9.0546,9.1363,9.1803,9.1803,9.1803,9.1803,9.1803,9.2354,9.2354,9.1803,9.1803,9.1803,9.1803,9.1803,9.1803,9.1803,9.1803,9.1803,9.1803,9.1803,9.2317,9.3125,9.3418,9.3822,9.4309,9.4309,9.3611,9.2501,9.1097,9.0069,8.9363,8.9069,8.9005,8.8858,8.8051,8.8161,8.8372,8.7316,8.739,8.7655,8.7133,8.6986,8.6986,8.6986,8.6371,8.5792,8.5792,8.5159,8.4609,8.4609,8.399,8.348,8.348,8.2867,8.2396,8.2508,8.2682,8.2828,8.2828,8.2972,8.3128,8.318,8.3187,8.3187,8.3187,8.2965,8.2779,8.2779,8.2006,8.1553,8.1553,8.1187,8.1045,8.1196,8.1366,8.1163,8.0483,8.1304,8.1403,8.0805,8.1408,8.1668,6.6352,7.0756,7.4801,7.7223,7.925,8.0873,8.1664,8.1407,8.06,7.9213,7.715,7.5564,7.5564,7.5168,7.5865,7.9168,8.1766,8.3866,8.5196,8.5865,8.593,8.5123,8.3875,8.3067,0.0,0.0,0.0,8.5555,8.6986,8.8353,8.9674,9.1033,9.1803,9.1803,9.1803,9.195,9.2244,9.2831,9.2978,9.2694,9.2694,9.2537,9.2244,9.2244,9.2097,9.1803,9.1803,9.1803,9.1803,9.1803,9.2317,9.3088,9.3088,9.3418,9.3859,9.3859,9.3345,9.2537,9.1767,9.095,9.0216,8.9913,8.984,8.9665,8.8858,8.9005,8.9106,8.7794,8.7802,8.8023,8.7206,8.6986,8.6986,8.6986,8.6619,8.6224,8.6224,8.582,8.5445,8.5445,8.4821,8.427,8.427,8.3581,8.3206,8.3664,8.3714,8.351,8.2978,8.3002,8.3128,8.318,8.3187,8.3187,8.3187,8.3187,8.3187,8.3187,8.2704,8.2415,8.2415,8.1981,8.1738,8.1837,8.1957,8.1636,8.0907,8.1675,8.172,8.1147,8.174,8.196,7.0499,7.4536,7.8133,8.0563,8.1746,8.2443,8.3161,8.2105,8.0196,7.7656,7.45,7.2232,0.0,0.0,7.3333,7.6628,8.0629,8.3646,8.4499,8.5995,8.6729,0.0,0.0,0.0,0.0,0.0,0.0,8.3528,0.0,8.7353,8.8206,9.0555,9.1877,9.1877,9.1913,9.2317,9.3152,9.3161,9.3565,9.4373,9.4309,9.3896,9.3161,9.3161,9.2721,9.1913,9.1877,9.1877,9.1849,9.1803,9.2281,9.3015,9.3015,9.3015,9.3015,9.3015,9.2501,9.1913,9.2758,9.2537,9.1767,9.1033,9.0767,9.0583,8.9767,8.951,8.9363,8.85,8.828,8.8096,8.728,8.7023,8.6986,8.6986,8.6986,8.6986,8.6986,8.6986,8.6986,8.6986,8.6334,8.5792,8.5755,8.5123,8.4925,8.5872,8.5492,8.4598,8.3222,8.303,8.3098,8.3284,8.3336,8.3336,8.3336,8.3299,8.3262,8.3262,8.3225,8.3187,8.3187,8.3187,8.3187,8.3187,8.3187,8.2779,8.2006,8.2247,8.2043,8.1443,8.1543,8.1587,7.45,7.8324,8.1379,8.3214,8.3389,8.2986,8.259,8.1277,7.9074,7.5395,7.1585,6.8905,0.0,0.0,0.0,7.4793,7.9462,0.0,8.4389,8.5995,0.0,8.6729,0.0,8.6399,8.6399,8.5453,0.0,0.0,8.6656,8.7601,8.9042,9.1427,9.2758,9.2758,9.3345,9.3758,9.3969,9.3969,9.441,9.5171,9.4593,9.4199,9.3969,9.3969,9.3868,9.3648,9.3015,9.2758,9.2721,9.206,9.1913,9.2134,9.2134,9.2134,9.2134,9.2134,9.1987,9.184,9.206,9.2427,9.2831,9.3235,9.2941,9.2308,9.1436,9.1179,9.0886,8.9482,8.9069,8.8931,8.8087,8.7463,8.6986,8.6986,8.6986,8.6986,8.6986,8.6986,8.6986,8.6986,8.6334,8.5608,8.5013,8.4756,8.4704,8.5091,8.5009,8.4861,8.477,8.4842,8.4926,8.4963,8.5008,8.5008,8.5008,8.4451,8.4079,8.4079,8.3522,8.3187,8.3187,8.3187,8.3187,8.3187,8.3187,8.2779,8.2006,8.2744,8.2778,8.2172,8.2764,8.3056,7.7876,8.1305,8.392,8.4462,8.427,8.3536,8.2003,7.9845,7.6908,7.2496,6.8098,0.0,6.502,0.0,0.0,0.0,0.0,0.0,8.3361,8.5233,8.6446,0.0,8.6594,0.0,8.7102,8.6601,8.662,0.0,8.7527,8.8087,8.9326,9.1758,9.3088,9.3088,9.4226,9.4997,9.5327,9.5327,9.5768,9.6539,9.6108,9.5887,9.5887,9.5887,9.5704,9.529,0.0,9.4143,9.4107,9.3235,9.2684,9.2354,9.2354,9.2134,9.1803,9.1803,9.1803,9.184,9.2244,9.2905,9.3639,9.3749,9.3712,9.3455,9.2611,9.2354,9.2024,9.04,8.9913,8.973,8.8931,8.8381,8.7968,8.761,8.7537,8.7427,8.7096,8.6986,8.6986,8.6986,8.6619,8.6297,8.6187,8.5894,8.5834,8.6351,8.6118,8.6029,8.6429,8.5916,8.5519,8.5587,8.5602,8.5602,8.5602,8.5194,8.4934,8.4934,8.4488,8.4079,8.3745,8.3745,8.3559,8.3225,8.3187,8.2965,8.2519,8.3052,8.3139,8.2771,8.3583,8.4142,8.082,8.3581,8.5645,8.4939,8.4609,8.3756,8.1114,7.7818,7.3927,6.9075,0.0,6.0756,6.1049,6.2481,6.5234,7.0169,0.0,8.1012,8.1901,8.4213,8.5715,8.549,8.6119,8.681,8.7259,8.7254,8.7506,8.8248,8.8304,8.8645,8.9385,9.1813,9.3326,9.3703,9.5098,9.6162,9.6832,9.6979,9.7309,9.7906,9.8016,9.8053,9.8053,9.8053,9.7676,9.6979,0.0,0.0,9.5758,9.485,9.4042,9.3409,9.3308,9.2794,9.2134,9.2024,9.2024,9.2207,9.2758,9.3529,9.4199,9.3602,9.3969,9.4483,9.3675,9.3409,9.3079,9.1537,9.1023,9.0767,9.006,8.9803,8.9519,8.872,8.8426,8.8133,8.7316,8.7096,8.6986,8.6986,8.6986,8.7206,8.7912,8.7463,8.7304,8.8174,8.7713,8.7352,8.7681,8.6532,8.5782,8.5914,8.5929,8.5929,8.5929,8.5825,8.5751,8.5751,8.5669,8.5298,8.4599,8.4562,8.4228,8.3522,8.3522,8.3522,8.3522,8.3522,8.3522,8.3522,8.4228,8.5008,8.3316,8.4866,8.5755,8.5645,8.4609,8.261,7.883,7.4397,0.0,0.0,5.9496,5.6271,5.8259,5.9942,6.2872,6.8414,7.4764,7.9543,8.1012,0.0,8.5664,0.0,0.0,0.0,0.0,0.0,0.0,0.0,0.0,8.9158,8.9602,9.2091,9.4616,9.6979,9.7356,9.7539,9.7686,9.8337,9.8411,9.7906,9.8557,9.8878,9.8878,9.8878,9.8805,9.8621,0.0,0.0,9.7356,9.5905,9.5208,9.5024,9.4336,9.4006,9.3795,9.3125,9.3308,9.3685,9.2464,9.3024,9.4382,9.4914,9.5611,9.6135,9.5318,9.5098,9.4877,9.3932,9.3161,9.2638,9.2492,9.1913,9.1179,9.0363,8.9665,8.8968,8.8169,8.7463,8.6986,8.6986,8.6986,8.7023,8.717,8.7096,8.7068,8.7213,8.7148,8.7115,8.7372,8.7394,8.745,8.766,8.7683,8.7683,8.7683,8.7007,8.6598,8.6598,8.5974,8.5528,8.5417,8.538,8.5342,8.5194,8.5194,8.5194,8.5194,8.5194,8.5194,8.5194,8.5342,8.5825,8.4682,8.582,8.6114,8.4857,8.3353,8.0857,7.5939,0.0,0.0,0.0,5.5862,5.3004,5.4588,5.6534,0.0,6.5485,7.1842,7.6576,7.8141,8.1752,0.0,0.0,0.0,0.0,0.0,0.0,0.0,0.0,0.0,8.942,9.0345,9.3207,9.6183,9.9061,9.8741,9.8741,9.9145,9.9108,9.9108,9.9155,9.9548,9.9952,10.0319,10.0319,10.0319,10.0283,9.9512,0.0,9.9071,9.785,9.7116,9.6722,9.6328,9.5924,9.5511,9.5107,9.496,9.4813,9.3996,9.3969,9.4373,9.474,9.5144,9.5364,9.4997,9.4887,9.4813,9.441,9.3712,9.3088,9.3088,9.2794,9.2244,9.1436,9.062,8.9803,8.9005,8.8519,8.8262,8.8262,8.8262,8.8262,8.8262,8.8262,8.8262,8.8262,8.7904,8.7688,8.7914,8.7714,8.7624,8.7927,8.795,8.799,8.8084,8.772,8.7497,8.7497,8.7126,8.6717,8.6226,8.6226,8.6041,8.5602,8.5602,8.5602,8.5602,8.5602,8.5602,8.5602,8.6041,8.6672,8.5637,8.6518,8.6399,8.3793,8.1811,7.8911,7.2863,6.746,0.0,5.6853,5.2412,4.9879,5.1211,5.3157,5.6424,0.0,6.8318,7.3017,7.483,7.9281,8.2231,0.0,0.0,0.0,0.0,0.0,0.0,0.0,0.0,0.0,9.1517,9.4265,9.7124,10.0096,9.9596,9.9609,10.0283,9.9842,9.9842,10.0283,10.0513,10.0917,10.1504,10.1504,10.1504,10.1514,10.0796,0.0,0.0,9.9685,9.8998,9.8384,9.8237,9.775,9.7199,9.7016,9.6676,9.6199,9.5685,9.5098,9.4483,9.4153,9.4162,9.4309,9.4309,9.4419,9.452,9.4345,9.3969,9.3556,9.3418,9.3483,9.3409,9.2537,9.173,9.0913,9.0106,8.9913,8.9913,8.9913,8.9767,8.9657,8.9657,8.951,8.94,8.94,8.8858,8.8442,8.8451,8.788,8.7573,8.7734,8.777,8.7895,8.8076,8.8092,8.8092,8.8092,8.8092,8.7795,8.7126,8.7081,8.6784,8.6152,8.616,8.616,8.616,8.616,8.616,8.6152,8.6784,8.7534,8.6436,8.6949,8.6252,8.3104,8.0534,7.6945,6.9756,0.0,5.7488,5.3303,4.86,4.6168,4.9192,5.0545,5.3073,5.8719,6.4494,6.9205,7.1967,7.7383,8.1056,8.1009,0.0,0.0,0.0,0.0,0.0,0.0,0.0,0.0,9.3484,9.4561,9.6512,9.9578,9.9842,10.0009,10.0319,10.099,10.0907,10.0283,10.098,10.1394,10.1504,10.1504,10.1504,10.1504,0.0,0.0,0.0,10.0503,10.0089,9.9989,9.9292,9.8951,9.8805,9.8043,9.819,9.8474,9.6272,9.5465,9.5134,9.3675,9.3712,9.4309,9.4309,9.4813,9.5244,9.452,9.4777,9.5098,9.4373,9.474,9.5061,9.4263,9.3455,9.2638,9.1767,9.1583,9.1583,9.1583,9.0996,9.0473,9.0473,8.9877,8.94,8.94,8.9326,8.9042,8.8306,8.8159,8.7967,8.7563,8.7697,8.7895,8.8076,8.8092,8.8092,8.8092,8.8092,8.8055,8.798,8.798,8.7943,8.7869,8.7869,8.7869,8.7869,8.7869,8.7869,8.7869,8.7943,8.8426,8.5004,8.6252,8.6105,8.2406,7.9286,7.5175,6.7907,6.1233,5.5401,5.1368,4.7834,4.5952,4.7746,4.915,5.1762,5.6921,6.1263,6.5207,6.8524,7.3606,7.7012,7.7046,0.0,0.0,0.0,0.0,0.0,0.0,0.0,0.0,9.3092,9.4393,9.6077,9.8346,9.8823,9.9208,9.9575,10.0393,10.0613,10.0283,10.11,10.1504,10.1504,10.1504,10.1504,10.1504,0.0,0.0,0.0,10.122,10.099,10.099,10.0696,10.0503,10.0503,10.0182,9.9962,9.9695,9.8741,9.7456,9.6061,9.4914,9.4107,9.3565,9.3565,9.3786,9.4079,9.4263,9.4189,9.3996,9.3675,9.3822,9.396,9.3639,9.3345,9.2868,9.1987,9.1803,9.1803,9.1803,9.1546,9.1326,9.1326,9.1069,9.1023,9.1537,9.117,9.0913,9.1106,9.0702,9.0376,9.0455,8.8745,8.7754,8.8068,8.8092,8.8092,8.8092,8.8092,8.8092,8.8092,8.8092,8.8092,8.8092,8.8092,8.8092,8.8092,8.8092,8.8092,8.8092,8.8092,8.8278,8.3177,8.5408,8.5995,8.1709,7.8185,7.3773,6.6286,5.9532,5.3891,5.034,4.7434,4.5879,4.6897,4.8044,5.0293,5.4651,5.807,6.1421,6.4971,6.9889,7.3173,0.0,0.0,0.0,0.0,0.0,0.0,0.0,0.0,0.0,0.0,9.3401,9.5044,9.7169,9.7783,9.8359,9.8873,9.9759,10.0186,10.0283,10.11,10.1504,10.1504,10.1504,10.1504,10.1504,0.0,0.0,0.0,10.1504,10.1504,10.1504,10.1504,10.1504,10.1504,10.1504,10.11,10.0613,10.0393,9.9035,9.7199,9.5914,9.4556,9.3345,9.2868,9.2905,9.3161,9.3455,9.3161,9.2758,9.3015,9.3088,9.3161,9.3418,9.3455,9.3272,9.2684,9.2537,9.2537,9.2537,9.2354,9.217,9.217,9.195,9.2097,9.2978,9.2574,9.2391,9.3015,9.2574,9.2141,9.2079,8.998,8.8754,8.9138,8.9169,8.9058,8.8835,8.8798,8.8686,8.8463,8.8463,8.8352,8.8092,8.8092,8.8092,8.8092,8.8092,8.8092,8.8092,8.8092,8.8092,8.1342,8.4572,8.5848,8.102,7.7341,7.2775,6.4664,5.7838,5.2522,5.0083,4.6985,4.5209,4.6782,4.7113,4.8223,5.1505,5.4766,5.8037,6.1485,6.6678,7.0239,0.0,0.0,0.0,0.0,0.0,0.0,0.0,0.0,0.0,0.0,9.1347,9.3084,9.6208,9.7024,9.7727,9.8411,9.9487,10.0092,10.0283,10.11,10.1504,10.1504,10.1504,10.1504,0.0,0.0,0.0,0.0,10.1504,10.1504,10.1504,10.1504,10.1504,10.1504,10.1504,10.1504,10.1394,10.0586,9.9769,9.8694,9.6291,9.4933,9.3978,9.2317,9.2427,9.2941,9.206,9.1803,9.2024,9.2868,9.3088,9.3308,9.4088,9.4309,9.4272,9.4272,9.4272,9.4272,9.4272,9.3639,9.3088,9.3088,9.2354,9.2097,9.2978,9.3079,9.3079,9.3088,9.3079,9.261,9.1332,9.1191,9.1307,9.1618,9.165,9.1316,9.0536,9.0462,9.0127,8.931,8.9273,8.8909,8.8129,8.8092,8.8092,8.8092,8.8092,8.8092,8.8092,8.8092,8.8092,7.6342,7.958,8.1056,7.6725,7.3604,6.9772,6.2762,5.7031,5.2522,5.0083,4.7865,4.6493,4.7007,4.7558,4.8786,5.1428,5.3581,5.6272,0.0,0.0,0.0,6.9986,0.0,0.0,0.0,0.0,0.0,0.0,0.0,0.0,0.0,9.1165,9.2044,9.3528,9.4486,9.5676,9.6997,9.8266,9.9391,10.0283,10.11,10.1504,10.1504,10.1504,0.0,0.0,0.0,0.0,0.0,10.1504,10.1504,10.1504,10.1504,10.1504,10.1504,10.1504,10.1504,10.1514,10.121,10.0613,9.9695,9.8374,9.7052,9.5621,9.4006,9.2905,9.2134,9.1877,9.1803,9.1849,9.2134,9.2207,9.2281,9.2547,9.2583,9.2583,9.2583,9.2583,9.2583,9.2583,9.2391,9.2207,9.2207,9.1987,9.2097,9.2978,9.3088,9.3308,9.3859,9.3932,9.386,9.3686,9.3656,9.2917,9.1024,9.087,9.0759,9.0536,9.0499,9.0127,8.9318,8.9318,8.8909,8.8129,8.8092,8.8092,8.8092,8.8092,8.8092,8.8092,8.8092,8.8092,7.0506,7.4331,7.6137,7.24,6.986,6.6659,6.045,5.5789,5.216,5.0046,4.8269,4.7186,4.7484,4.7966,4.8945,5.0958,5.2459,5.4828,0.0,0.0,0.0,0.0,0.0,0.0,0.0,0.0,0.0,0.0,0.0,0.0,0.0,9.1017,9.1321,9.1714,9.2859,9.4114,9.5426,9.7068,9.8349,9.9321,10.05,10.1215,10.1177,10.1305,0.0,0.0,0.0,0.0,0.0,10.1504,10.1504,10.1504,10.1504,10.1504,10.1504,10.1504,10.1504,10.1504,10.1504,10.121,10.0503,9.9108,9.7163,9.5144,9.4153,9.2905,9.1803,9.1803,9.1803,9.1803,9.1803,9.1803,9.1803,9.1803,9.1803,9.1803,9.1803,9.1803,9.1803,9.1803,9.1803,9.1803,9.1803,9.1803,9.2097,9.2978,9.3088,9.3382,9.4199,9.4309,9.4301,9.4351,9.4349,9.3574,9.1626,9.1725,9.1762,9.1465,9.1428,9.0945,8.9793,8.9756,8.9236,8.8129,8.8092,8.8092,8.8092,8.8092,8.8092,8.8092,8.8092,8.8092,0.0,6.8641,7.1174,6.8031,6.6072,6.3417,5.7875,5.4179,0.0,4.9936,4.8306,4.7443,4.8213,4.8355,4.8822,5.0305,5.1631,0.0,0.0,6.3088,0.0,0.0,0.0,0.0,0.0,0.0,0.0,0.0,0.0,0.0,0.0,9.0765,9.073,9.073,9.1883,9.2943,9.3856,9.5871,9.7133,9.7619,9.9499,10.051,10.0693,10.1007,0.0,0.0,0.0,0.0,0.0,10.1514,10.1514,10.1394,10.1514,10.1504,10.1504,10.1504,10.1504,10.1504,10.1504,10.1514,10.099,9.8677,9.5804,9.3262,9.3189,9.2537,9.1803,9.1803,9.1803,9.1803,9.1803,9.1803,9.1803,9.1803,9.1803,9.1803,9.1803,9.1803,9.1803,9.1803,9.1803,9.1803,9.1803,9.1803,9.206,9.2905,9.3015,9.3272,9.4015,9.4125,9.397,9.3567,9.35,9.3361,9.3037,9.3694,9.3805,9.3062,9.2996,9.2245,9.0573,9.0499,8.9756,8.8129,8.8092,8.8092,8.8092,8.8092,8.8092,8.8092,8.8092,8.8092,5.5568,0.0,6.5565,6.3546,6.1814,5.9636,0.0,5.2968,5.0807,4.9789,4.8746,4.8236,4.9,4.9052,4.9607,5.1481,0.0,0.0,0.0,0.0,0.0,0.0,0.0,0.0,0.0,0.0,0.0,0.0,0.0,0.0,0.0,9.0605,8.995,8.995,8.9924,9.1089,9.3572,9.5035,9.6043,9.6588,9.8602,9.9487,9.9299,10.0411,0.0,0.0,0.0,0.0,10.0613,10.12,10.11,10.0613,10.1294,10.1504,10.1504,10.1504,10.1504,10.1504,10.1504,10.11,10.0293,9.8494,9.6575,9.4804,9.4189,9.2978,9.1803,9.1803,9.1803,9.1803,9.1803,9.1803,9.1803,9.1803,9.1803,9.1803,9.1803,9.1803,9.1803,9.1803,9.1803,9.1803,9.1803,9.1803,9.1877,9.206,9.2097,9.217,9.2363,9.24,9.2472,9.2661,9.2668,9.2778,9.2963,9.3174,9.3211,9.2996,9.2996,9.2245,9.0573,9.0499,8.9756,8.8129,8.8092,8.8092,8.8092,8.8092,8.8092,8.8092,8.8092,8.8092,5.2595,5.6593,5.988,5.8626,5.7624,5.626,5.3408,5.1463,4.9999,4.9192,0.0,0.0,0.0,0.0,0.0,0.0,0.0,0.0,0.0,0.0,0.0,0.0,0.0,0.0,0.0,0.0,0.0,0.0,0.0,0.0,0.0,9.0329,8.9709,8.9709,8.9139,8.9871,9.2095,9.2937,9.3752,9.4527,9.5888,9.6732,9.7147,9.8187,0.0,0.0,0.0,0.0,9.9228,9.9668,9.9815,9.9842,10.0613,10.121,10.1504,10.1504,10.1504,10.1394,10.11,10.0182,9.9044,9.8163,9.6548,9.4887,9.441,9.3134,9.1803,9.1803,9.1803,9.1877,9.2281,9.2097,9.1913,9.2281,9.2097,9.1803,9.1803,9.1803,9.1803,9.1803,9.1803,9.1803,9.1803,9.1803,9.1803,9.1803,9.1803,9.1803,9.1803,9.1803,9.1957,9.2375,9.2418,9.2565,9.2963,9.2996,9.2996,9.2996,9.2996,9.2402,9.1093,9.1056,9.0276,8.8686,8.8649,8.8649,8.8649,8.9021,8.9198,8.9198,8.9198,8.9198,5.2165,5.401,5.5212,5.493,5.484,5.4201,5.193,5.0763,4.9958,0.0,0.0,0.0,0.0,5.0346,0.0,0.0,0.0,0.0,0.0,0.0,0.0,0.0,0.0,0.0,0.0,0.0,0.0,0.0,0.0,0.0,0.0,8.9812,8.9364,8.9364,8.8639,8.8835,9.0019,9.0491,9.1111,9.1894,9.269,9.3569,9.4535,9.5449,9.6613,0.0,0.0,0.0,9.7539,9.7686,9.8117,9.8805,9.9622,10.0393,10.11,10.11,10.11,10.099,10.0209,9.9044,9.787,9.776,9.6181,9.4309,9.4309,9.3134,9.184,9.195,9.1987,9.217,9.2905,9.2648,9.2354,9.2941,9.2537,9.195,9.184,9.1803,9.1877,9.2134,9.217,9.2244,9.2501,9.2547,9.2547,9.2547,9.2354,9.217,9.217,9.195,9.1957,9.2375,9.2418,9.2565,9.2963,9.2996,9.2996,9.2996,9.2996,9.2616,9.1725,9.1465,9.0759,8.9504,8.9355,8.9355,8.9466,9.0164,9.0499,9.0499,9.0499,9.0499,5.1218,5.2747,5.4242,5.6394,5.68,5.626,5.4568,5.3535,5.269,5.1935,0.0,0.0,0.0,5.391,0.0,0.0,0.0,0.0,0.0,0.0,0.0,0.0,0.0,0.0,0.0,0.0,0.0,0.0,0.0,0.0,0.0,0.0,8.773,8.773,8.7053,8.7056,8.7857,8.9221,8.9652,8.9232,9.1087,9.1882,9.188,9.3574,9.4852,0.0,0.0,9.6089,9.5934,9.6585,9.6942,9.7163,9.7943,9.8741,9.9465,9.9465,9.9465,9.9355,9.8567,9.8127,9.7796,9.7126,9.5694,9.4309,9.4309,9.3134,9.195,9.2684,9.2905,9.2932,9.3079,9.3492,9.3786,9.3235,9.3015,9.2721,9.195,9.1803,9.2216,9.3648,9.3905,9.4345,9.5694,9.5951,9.5951,9.5951,9.4777,9.3905,9.3905,9.2684,9.1957,9.2375,9.2418,9.2565,9.2963,9.2996,9.2996,9.2996,9.2996,9.2616,9.1725,9.0387,8.9867,9.0313,8.9644,8.9652,9.0313,9.0424,9.0499,9.0499,9.0499,9.0499,5.1054,5.244,5.4104,5.677,5.7624,5.7509,5.6369,5.5749,5.5114,0.0,0.0,0.0,0.0,0.0,0.0,0.0,0.0,0.0,0.0,0.0,0.0,0.0,0.0,0.0,0.0,0.0,0.0,0.0,0.0,0.0,0.0,0.0,8.7385,8.7385,8.6661,8.6454,8.6799,8.7501,8.7881,8.795,8.8644,8.9195,8.9612,9.0916,9.2155,9.3305,0.0,9.3634,9.3877,9.4385,9.4902,9.5474,9.6282,9.7089,9.7787,9.7787,9.7787,9.775,9.7383,9.7246,9.7199,9.6832,9.5621,9.4309,9.4309,9.3134,9.1987,9.2859,9.3088,9.3299,9.418,9.4336,9.4309,9.4363,9.407,9.3639,9.3244,9.3492,9.4042,9.4786,9.53,9.5841,9.6575,9.6685,9.6685,9.6685,9.6061,9.529,9.4419,9.3648,9.2914,9.2308,9.2224,9.2418,9.2785,9.2847,9.2888,9.2988,9.2996,9.281,9.2431,9.1242,9.0759,9.113,9.0796,9.0796,9.1167,9.1613,9.1844,9.1844,9.1844,9.1844,5.0881,5.2019,5.3586,5.6487,0.0,5.8754,5.8305,5.8394,0.0,0.0,0.0,0.0,0.0,0.0,0.0,0.0,0.0,0.0,0.0,0.0,0.0,0.0,0.0,0.0,0.0,0.0,0.0,0.0,0.0,0.0,0.0,0.0,8.7144,8.7144,8.6592,8.6294,8.6294,8.6294,8.657,8.7144,8.6783,8.6993,8.777,8.8508,8.9527,9.0695,9.0821,9.1288,9.1992,9.2289,9.3047,9.4079,9.4694,9.5428,9.6135,9.6135,9.6135,9.6171,9.6355,9.6419,9.6456,9.6649,9.5621,9.4309,9.4309,9.3134,9.2024,9.3088,9.3382,9.3712,9.5134,9.5171,9.496,9.5391,9.5034,9.452,9.4345,9.4923,9.5611,9.5997,9.6695,9.7383,9.775,9.7823,9.775,9.7566,9.7383,9.6685,9.507,9.4703,9.408,9.281,9.2496,9.2463,9.2695,9.2726,9.2847,9.298,9.2996,9.2996,9.2996,9.2171,9.1799,9.1985,9.1799,9.1799,9.2022,9.2653,9.2996,9.2996,9.2996,9.2996,5.0305,5.0819,5.1994,5.5455,5.8349,6.0477,6.0995,6.2077,0.0,6.2796,0.0,0.0,0.0,0.0,0.0,0.0,0.0,0.0,0.0,0.0,0.0,0.0,0.0,0.0,0.0,0.0,0.0,0.0,0.0,0.0,0.0,0.0,0.0,8.6398,8.6316,8.6294,8.6294,8.6294,8.6329,8.6398,8.6341,8.6366,8.6473,8.7016,8.7524,8.8041,8.8956,8.9845,9.0681,9.1145,9.2047,9.3198,9.3262,9.3749,9.4456,9.4456,9.4456,9.4593,9.5318,9.5575,9.5721,9.6465,9.5621,9.4309,9.4309,9.3134,9.2143,9.3758,9.4199,9.441,9.5281,9.6015,9.6355,9.5648,9.5465,9.5208,9.4446,9.4923,9.5942,9.7429,9.8374,9.9402,10.0917,10.122,10.0917,10.0182,9.9402,9.8364,9.6722,9.5868,9.5136,9.4421,9.3657,9.3081,9.2732,9.288,9.298,9.2996,9.2996,9.2996,9.2996,9.2171,9.2096,9.2876,9.2096,9.2096,9.2922,9.2959,9.2996,9.2996,9.2996,9.2996,5.083,5.0878,5.1748,5.5159,5.8124,0.0,0.0,6.4398,6.6333,6.6324,6.7216,0.0,0.0,0.0,0.0,0.0,0.0,0.0,0.0,0.0,0.0,0.0,0.0,0.0,0.0,0.0,0.0,0.0,0.0,0.0,0.0,0.0,0.0,8.6294,8.6294,8.6294,8.6294,8.6294,8.6294,8.6329,8.6764,8.673,8.6341,8.7152,8.7451,8.7371,8.8212,8.8993,8.9742,9.0212,9.0862,9.1536,9.1536,9.1718,9.2019,9.2019,9.231,9.2793,9.3085,9.3512,9.3985,9.4313,9.3667,9.2757,9.2757,9.1946,9.139,9.3019,9.3492,9.3912,9.5781,9.6465,9.6612,9.6318,9.6235,9.6171,9.5878,9.6428,9.7163,9.7796,9.8557,9.9282,9.9916,9.9989,9.9916,9.9612,9.9282,9.8511,9.6906,9.6428,9.5759,9.4512,9.374,9.3241,9.3097,9.2912,9.283,9.283,9.293,9.2996,9.2996,9.2691,9.2653,9.2996,9.2691,9.2653,9.2996,9.2996,9.2996,9.2996,9.2996,9.2996,5.083,5.049,5.1206,5.4632,0.0,0.0,6.3684,6.7057,6.9749,7.0463,7.2257,0.0,0.0,0.0,0.0,0.0,0.0,0.0,0.0,0.0,0.0,0.0,0.0,0.0,0.0,0.0,0.0,0.0,0.0,0.0,0.0,0.0,0.0,0.0,8.6294,8.6294,8.6294,8.6294,8.6294,8.6329,8.704,8.7006,8.6329,8.7,8.7152,8.6875,8.7549,8.8177,8.8772,8.9232,8.969,9.013,9.013,9.013,9.013,9.013,9.0475,9.0991,9.1253,9.1686,9.2191,9.2454,9.1985,9.1326,9.1326,9.0764,9.0455,9.2041,9.2474,9.2981,9.5196,9.6074,9.6404,9.6472,9.6541,9.6608,9.6703,9.7319,9.7906,9.7906,9.8557,9.9098,9.9098,9.9318,9.9328,9.8814,9.9365,9.9108,9.6979,9.7163,9.6832,9.5217,9.4687,9.4246,9.373,9.3311,9.298,9.2721,9.2897,9.2996,9.2996,9.2996,9.2996,9.2996,9.2996,9.2996,9.2996,9.2996,9.2996,9.2996,9.2996,9.2996,5.0142,4.9442,5.0085,0.0,0.0,0.0,6.6387,7.0222,7.3382,7.5695,0.0,0.0,0.0,0.0,0.0,0.0,0.0,0.0,0.0,0.0,0.0,0.0,0.0,0.0,0.0,0.0,0.0,0.0,0.0,0.0,0.0,0.0,0.0,0.0,8.6294,8.6294,8.6294,8.6294,8.6294,8.6329,8.704,8.7006,8.6294,8.6329,8.6329,8.6319,8.6851,8.7323,8.7726,8.8197,8.8668,8.9085,8.9085,8.9085,8.9085,8.9085,8.9085,8.9192,9.0009,9.027,9.0424,9.1207,9.0946,9.027,9.027,8.9713,8.9406,9.094,9.1379,9.1771,9.3353,9.4731,9.5725,9.5949,9.6216,9.6443,9.6674,9.7319,9.7906,9.7906,9.8521,9.9061,9.9061,9.9732,9.9732,9.8127,9.9925,10.0293,9.7126,9.8107,9.8474,9.6906,9.6894,9.6307,9.4651,9.4144,9.3556,9.2758,9.2888,9.2988,9.2996,9.2996,9.2996,9.2996,9.2996,9.2996,9.2996,9.2996,9.2996,9.2996,9.2996,9.2996,5.1475,5.1343,0.0,5.6373,0.0,0.0,0.0,7.2908,0.0,0.0,0.0,0.0,0.0,0.0,0.0,0.0,0.0,0.0,0.0,0.0,0.0,0.0,0.0,0.0,0.0,0.0,0.0,0.0,0.0,0.0,0.0,0.0,0.0,0.0,8.6294,8.6294,8.6294,8.6294,8.6294,8.6294,8.6523,8.6523,8.6329,8.6833,8.6799,8.6307,8.6667,8.6997,8.7311,8.7784,8.805,8.8176,8.8176,8.8176,8.8176,8.8176,8.8176,8.8212,8.8481,8.8552,8.8587,8.8811,8.874,8.8552,8.8552,8.8364,8.8494,9.0058,9.0481,9.087,9.241,9.338,9.4182,9.5201,9.5802,9.6246,9.6608,9.6906,9.7052,9.7052,9.7236,9.741,9.741,9.7603,9.7603,9.7126,9.7676,9.797,9.7576,9.797,9.83,9.8364,9.7431,9.6588,9.6073,9.4457,9.3385,9.3136,9.2923,9.2863,9.2988,9.2996,9.2996,9.2996,9.2996,9.2996,9.2996,9.2996,9.2996,9.2996,9.2996,9.2996,5.1697,5.2697,0.0,5.9016,6.3722,6.8843,7.4854,0.0,0.0,0.0,0.0,0.0,0.0,0.0,0.0,0.0,0.0,0.0,0.0,0.0,0.0,0.0,0.0,0.0,0.0,0.0,0.0,0.0,0.0,0.0,0.0,0.0,0.0,0.0,8.6294,8.6294,8.6294,8.6294,8.6294,8.6294,8.6294,8.6294,8.6329,8.6764,8.673,8.6294,8.6469,8.663,8.6789,8.7071,8.7204,8.7204,8.7204,8.7204,8.7204,8.7204,8.7204,8.7204,8.7204,8.7204,8.7204,8.7204,8.7204,8.7204,8.7204,8.7204,8.7448,8.868,8.9273,8.9796,9.1004,9.195,9.2918,9.4333,9.5089,9.5576,9.606,9.615,9.615,9.615,9.622,9.6335,9.6424,9.6795,9.6992,9.6749,9.6685,9.7126,9.8227,9.8374,9.8668,9.9502,9.8401,9.753,9.7199,9.5395,9.3997,9.3325,9.3209,9.3105,9.288,9.2955,9.2996,9.2996,9.2996,9.2996,9.2996,9.2996,9.2996,9.2996,9.2996,9.2996,5.1282,5.371,5.6935,6.1643,6.6989,0.0,8.1293,0.0,0.0,0.0,0.0,0.0,0.0,0.0,0.0,0.0,0.0,0.0,0.0,0.0,0.0,0.0,0.0,0.0,0.0,0.0,0.0,0.0,0.0,0.0,0.0,0.0,0.0,0.0,8.6178,8.6144,8.6075,8.6075,8.6075,0.0,8.6075,8.6075,8.6087,8.6247,8.6294,8.6294,8.6294,8.6294,8.6294,8.6294,8.6294,8.6294,8.6294,8.6294,8.6294,8.6294,8.6294,8.6294,8.6294,8.6294,8.6294,8.6294,8.6294,8.6294,8.6294,8.6294,8.6467,8.7178,8.795,8.8674,8.9502,9.0581,9.1843,9.3321,9.4092,9.4592,9.5068,9.5174,9.5174,9.5174,9.5399,9.5684,9.5909,9.6771,9.7266,9.6684,9.6539,9.7052,9.8658,9.8878,9.9208,10.0099,9.9465,9.8704,9.798,9.66,9.5083,9.3482,9.3692,9.3493,9.2704,9.2888,9.2996,9.2996,9.2996,9.2996,9.2996,9.2996,9.2996,9.2996,9.2996,9.2996,5.2146,5.5224,0.0,0.0,7.0991,7.8085,8.3466,8.4708,0.0,0.0,0.0,0.0,0.0,0.0,0.0,0.0,0.0,0.0,0.0,0.0,0.0,0.0,0.0,0.0,0.0,0.0,0.0,0.0,0.0,0.0,0.0,0.0,0.0,8.5466,8.5432,8.5109,8.4488,8.4488,8.4488,0.0,8.4488,8.4488,8.4523,8.573,8.6294,8.6294,8.6294,8.6294,8.6294,8.6294,8.6294,8.6294,8.6294,8.6294,8.6294,8.6294,8.6294,8.6294,8.6294,8.6294,8.6294,8.6294,8.6294,8.6294,8.6294,8.6294,8.6467,8.7178,8.7523,8.7971,8.9329,9.0058,9.0698,9.181,9.2775,9.3541,9.4007,9.4108,9.4108,9.4108,9.4523,9.4971,9.5316,9.589,9.62,9.5811,9.5217,9.5401,9.7016,9.7236,9.7787,9.9208,9.8631,9.809,9.7906,9.6467,9.5127,9.4144,9.3829,9.3303,9.2507,9.2822,9.2996,9.2996,9.2996,9.2996,9.2996,9.2996,9.2996,9.2996,9.2996,9.2996,5.2188,5.6733,0.0,7.036,0.0,8.1799,8.457,8.5466,0.0,0.0,0.0,0.0,0.0,0.0,0.0,0.0,0.0,0.0,0.0,0.0,0.0,0.0,0.0,0.0,0.0,0.0,0.0,0.0,0.0,0.0,0.0,8.6294,8.6122,8.5742,8.5742,8.5363,8.4592,8.4557,8.4385,8.4006,8.4006,8.4213,8.4592,8.5397,8.5777,8.5777,8.6156,8.6294,8.6294,8.6294,8.6294,8.6294,8.6294,8.6294,8.6294,8.6294,8.6294,8.6294,8.6294,8.6294,8.6294,8.6294,8.6294,8.6294,8.6294,8.6294,8.6398,8.6777,8.7109,8.7592,8.8385,8.8984,8.9518,9.0039,9.1389,9.2772,9.3545,9.3699,9.3805,9.4159,9.4669,9.5166,9.5604,9.598,9.6098,9.5665,9.5328,9.5609,9.6961,9.7215,9.775,9.8951,9.8374,9.7906,9.7906,9.6795,9.5584,9.4382,9.4217,9.3656,9.2446,9.2805,9.2996,9.2996,9.2996,9.2996,9.2996,9.2996,9.2996,9.2996,9.2996,9.2996,5.1728,5.8435,6.6368,7.6867,8.1592,0.0,8.4949,8.5673,8.6156,0.0,0.0,0.0,0.0,0.0,0.0,0.0,0.0,0.0,0.0,0.0,0.0,0.0,0.0,0.0,0.0,0.0,0.0,0.0,0.0,0.0,8.6294,8.6294,8.6247,8.6122,8.6122,8.5708,8.4811,8.4811,8.4397,8.3626,8.3626,8.404,8.4811,8.4915,8.5156,8.5432,8.6053,8.6294,8.6294,8.6294,8.6294,8.6294,8.6294,8.6294,8.6294,8.6294,8.6294,8.6294,8.6294,8.6294,8.6294,8.6294,8.6294,8.6294,8.6294,8.6294,8.6294,8.6294,8.673,8.7247,8.7351,8.7868,8.8433,8.857,9.0132,9.1895,9.2912,9.3348,9.365,9.4127,9.4621,9.5103,9.5581,9.5739,9.5684,9.5332,9.5372,9.5844,9.698,9.7347,9.7787,9.8584,9.808,9.7686,9.7686,9.7089,9.6025,9.4419,9.4622,9.41,9.2455,9.2805,9.2996,9.2996,9.2996,9.2996,9.2996,9.2996,9.2996,9.2996,9.2996,9.2996,5.0934,6.0668,7.0991,0.0,8.0798,8.2638,0.0,0.0,8.5535,0.0,0.0,0.0,0.0,0.0,0.0,0.0,0.0,0.0,0.0,0.0,0.0,0.0,0.0,0.0,0.0,0.0,0.0,0.0,0.0,0.0,8.6294,8.6294,8.6018,8.5363,8.5363,8.4673,8.3212,8.3212,8.2833,8.2086,8.2086,8.2488,8.3212,8.3868,8.4902,8.6156,8.626,8.6294,8.6294,8.6294,8.6294,8.6294,8.6294,8.6294,8.6294,8.6294,8.6294,8.6294,8.6294,8.6294,8.6294,8.6294,8.6294,8.6294,8.6294,8.6294,8.6294,8.6294,8.6351,8.6592,8.7213,8.7489,8.773,8.8433,8.9316,9.0223,9.0988,9.2211,9.3006,9.2453,9.2567,9.2899,9.3404,9.3313,9.3249,9.3568,9.3416,9.3694,9.5025,9.5564,9.6125,9.6942,9.6906,9.6869,9.6869,9.6759,9.6025,9.4419,9.4622,9.41,9.2455,9.2805,9.2996,9.2996,9.2996,9.2996,9.2996,9.2996,9.2996,9.2996,9.2996,9.2996,5.4831,6.4014,7.2474,0.0,8.1281,8.3018,8.5294,0.0,0.0,0.0,0.0,0.0,0.0,0.0,0.0,0.0,0.0,0.0,0.0,0.0,0.0,0.0,0.0,0.0,0.0,0.0,0.0,0.0,0.0,8.6294,8.6294,8.6294,8.6156,8.5846,8.5811,8.5087,8.3523,8.3523,8.2937,8.181,8.181,8.2385,8.3523,8.3868,8.4626,8.5673,8.5673,8.5915,8.626,8.5846,8.5949,8.6294,8.6294,8.6294,8.6294,8.6294,8.6294,8.6294,8.6294,8.6294,8.6294,8.6294,8.6294,8.6294,8.6294,8.6294,8.6294,8.6294,8.6294,8.6351,8.6695,8.6764,8.6868,8.7225,8.8536,8.9778,9.0109,9.1399,9.2556,9.2772,9.3025,9.317,9.3159,9.315,9.318,9.3253,9.3334,9.3787,9.4778,9.5403,9.5972,9.6465,9.6618,9.6539,9.6052,9.6015,9.5354,9.3712,9.3959,9.3619,9.2446,9.2805,9.2996,9.2996,9.2996,9.2996,9.2996,9.2996,9.2996,9.2996,9.2996,9.2996,5.7047,6.4565,7.0922,7.6798,7.9592,8.1535,0.0,0.0,0.0,0.0,0.0,0.0,0.0,0.0,0.0,0.0,0.0,0.0,0.0,0.0,0.0,0.0,0.0,0.0,0.0,0.0,0.0,0.0,0.0,8.615,8.604,8.6191,8.6225,8.6018,8.6178,8.5557,8.4006,8.3626,8.2868,8.181,8.181,8.2454,8.373,8.373,8.4247,8.5225,8.5397,8.5777,8.626,8.5708,8.5811,8.6294,8.6294,8.6294,8.6294,8.6294,8.6294,8.6294,8.6294,8.6294,8.6294,8.6294,8.6294,8.6294,8.6294,8.6294,8.6294,8.6294,8.6294,8.6294,8.6294,8.6294,8.6294,8.6294,8.7915,8.964,9.0398,9.133,9.2224,9.2977,9.3098,9.3008,9.2632,9.2758,9.2863,9.2795,9.3203,9.3772,9.4603,9.5332,9.5913,9.6266,9.6531,9.6392,9.5575,9.5501,9.4804,9.3189,9.3361,9.3171,9.234,9.2658,9.2855,9.2855,9.3091,9.3132,9.2996,9.3219,9.3293,9.3293,9.3293,9.3293,5.4375,5.9875,6.5299,7.0636,7.3647,7.612,0.0,0.0,0.0,0.0,0.0,0.0,0.0,0.0,0.0,0.0,0.0,0.0,0.0,0.0,0.0,0.0,0.0,0.0,0.0,0.0,0.0,0.0,0.0,8.5733,8.5282,8.5915,8.5984,8.5294,8.5949,8.5557,8.4006,8.2592,8.1879,8.181,8.181,8.2224,8.2971,8.2971,8.3776,8.5225,8.5949,8.626,8.6294,8.626,8.626,8.6294,8.6294,8.6294,8.6294,8.6294,8.6294,8.6294,8.6294,8.6294,8.6294,8.6294,8.6294,8.6294,8.6294,8.6294,8.6294,8.6294,8.6294,8.6294,8.6294,8.6294,8.6294,8.6294,8.7501,8.9433,9.2295,9.2433,9.2033,9.2081,9.146,9.0955,9.0934,9.0947,9.1122,9.1606,9.2077,9.2763,9.3831,9.472,9.5441,9.598,9.6433,9.6392,9.5575,9.5501,9.4804,9.3189,9.3235,9.2938,9.2146,9.234,9.2444,9.2444,9.3356,9.3563,9.2996,9.3768,9.414,9.414,9.414,9.414,5.0962,5.5176,5.9625,6.4506,6.7783,7.1025,7.5533,7.7913,0.0,0.0,0.0,0.0,0.0,0.0,0.0,0.0,0.0,0.0,0.0,0.0,0.0,0.0,0.0,0.0,0.0,0.0,0.0,0.0,0.0,0.0,8.4442,8.4661,8.4695,8.4454,8.4695,8.4316,8.3316,8.2293,8.181,8.181,8.181,8.219,8.2902,8.2902,8.3454,8.4454,8.5259,8.5846,8.626,8.5777,8.588,8.6294,8.6294,8.6294,8.6294,8.6294,8.6294,8.6294,8.6294,8.6294,8.6294,8.6294,8.6294,8.6294,8.6294,8.6294,8.6294,8.6294,8.6294,8.6294,8.6294,8.6294,8.657,8.7536,8.8191,8.9157,9.1192,9.1813,9.186,9.133,9.1019,9.0799,9.0799,9.0799,9.0944,9.1355,9.1657,9.2187,9.3085,9.3864,9.4366,9.4381,9.4829,9.4598,9.3424,9.3431,9.308,9.2123,9.2353,9.2386,9.21,9.2277,9.2418,9.2418,9.2895,9.3273,9.3563,9.4498,9.4697,9.4214,9.4214,9.3917,4.7755,5.103,5.4659,0.0,6.1919,6.561,7.0404,0.0,0.0,0.0,0.0,0.0,0.0,0.0,0.0,0.0,0.0,0.0,0.0,0.0,0.0,0.0,0.0,0.0,0.0,0.0,0.0,0.0,0.0,0.0,8.3602,8.3868,8.4006,8.4006,8.3764,8.3385,8.2902,8.219,8.181,8.181,8.181,8.2052,8.2523,8.2523,8.2937,8.3661,8.4466,8.5225,8.5915,8.5673,8.5846,8.6294,8.6294,8.6294,8.6294,8.6294,8.6294,8.6294,8.6294,8.6294,8.6294,8.6294,8.6294,8.6294,8.6294,8.6294,8.6294,8.6294,8.6294,8.6363,8.6592,8.688,8.7398,8.8674,8.8984,8.9295,9.0523,9.1226,9.1433,9.0903,9.0799,9.0799,9.0799,9.0799,9.0865,9.1096,9.1243,9.1581,9.2296,9.2966,9.3269,9.303,9.3406,9.3141,9.1849,9.2011,9.1958,9.1432,9.2042,9.2435,9.2435,9.2818,9.2926,9.2622,9.3127,9.3552,9.3783,9.4616,9.4845,9.4585,9.4325,9.3768,0.0,0.0,0.0,0.0,0.0,0.0,6.3531,0.0,0.0,0.0,0.0,0.0,0.0,0.0,0.0,0.0,0.0,0.0,0.0,0.0,0.0,0.0,0.0,0.0,0.0,0.0,0.0,0.0,0.0,8.3052,8.2878,8.3557,8.3937,8.3937,8.3247,8.2868,8.2868,8.2143,8.181,8.181,8.181,8.181,8.181,8.181,8.219,8.2902,8.3661,8.4419,8.519,8.5984,8.6294,8.6294,8.6294,8.6294,8.6294,8.6294,8.6294,8.6294,8.6294,8.6294,8.6294,8.6294,8.6294,8.6294,8.6294,8.6294,8.6294,8.6294,8.6294,8.6467,8.7213,8.8019,8.8777,8.9536,8.9709,8.9916,9.0627,9.0799,9.0799,9.0799,9.0799,9.0799,9.0799,9.0799,9.0799,9.0765,9.0765,9.0927,9.1448,9.192,9.2133,9.1929,9.2249,9.2078,9.1027,9.1367,9.1522,9.1214,9.2388,9.3088,9.3088,9.3859,9.3932,9.3116,9.4198,9.4395,9.3591,9.4037,9.4614,9.5357,9.454,9.3731,4.267,0.0,0.0,0.0,0.0,0.0,0.0,0.0,0.0,0.0,0.0,0.0,0.0,0.0,0.0,0.0,0.0,0.0,0.0,0.0,0.0,0.0,0.0,0.0,0.0,0.0,0.0,0.0,8.162,8.175,8.2085,8.2293,8.2431,8.2431,8.2224,8.2109,8.2109,8.1914,8.181,8.181,8.181,8.181,8.181,8.181,8.1914,8.2155,8.2868,8.3316,8.3661,8.5535,8.6294,8.6294,8.6294,8.6294,8.6294,8.6294,8.6294,8.6294,8.6294,8.6294,8.6294,8.6294,8.6294,8.6294,8.6294,8.6294,8.6294,8.6294,8.6294,8.6467,8.7213,8.8019,8.8777,8.9536,8.9709,8.9916,9.0627,9.0799,9.0799,9.0799,9.0799,9.0799,9.0799,9.0799,9.0627,9.0088,9.0006,8.9942,8.9747,8.9996,9.0028,8.9585,8.9824,8.9864,8.9508,8.9987,9.0515,9.0956,9.2313,9.3088,9.3088,9.3859,9.3932,9.3116,9.3636,9.3779,9.3442,9.4403,9.465,9.4288,9.3509,9.3057,4.2752,4.2959,0.0,0.0,0.0,0.0,0.0,5.6288,0.0,0.0,0.0,0.0,0.0,0.0,0.0,0.0,0.0,0.0,0.0,0.0,0.0,0.0,0.0,0.0,0.0,0.0,0.0,8.1251,8.1288,8.1473,8.191,8.2031,8.1954,8.1644,8.1751,8.181,8.181,8.181,8.181,8.181,8.181,8.181,8.181,8.181,8.181,8.1845,8.2592,8.2902,8.304,8.5018,8.5846,8.588,8.6191,8.6294,8.6294,8.6294,8.6294,8.6294,8.6294,8.6294,8.6294,8.6294,8.6294,8.6294,8.6294,8.6294,8.6294,8.6294,8.6523,8.6868,8.7282,8.8019,8.8708,8.9122,8.9226,8.9364,8.9778,8.9881,9.0054,9.0674,9.0799,9.0799,9.0799,9.0799,9.0571,8.9812,8.9709,8.9497,8.8904,8.923,8.9278,8.8664,8.9011,8.9322,8.9373,9.0051,9.0834,9.1736,9.3252,9.4107,9.4107,9.4887,9.474,9.3602,9.3859,9.3599,9.2846,9.3696,9.3878,9.3396,9.2914,9.2822,4.4443,4.454,0.0,0.0,0.0,0.0,4.8065,5.2245,0.0,0.0,0.0,0.0,0.0,0.0,0.0,0.0,0.0,0.0,0.0,0.0,0.0,0.0,0.0,0.0,0.0,7.9972,8.0322,8.1243,8.1361,8.1474,8.171,8.198,8.1874,8.129,8.1542,8.1707,8.181,8.181,8.1845,8.1914,8.1914,8.1914,8.1914,8.1914,8.1879,8.1845,8.2488,8.2764,8.2902,8.4432,8.5121,8.5259,8.6018,8.6294,8.6294,8.6294,8.6294,8.6294,8.6294,8.6294,8.6294,8.6294,8.6294,8.6294,8.6294,8.6294,8.6294,8.6294,8.6833,8.7385,8.7385,8.8019,8.8605,8.8605,8.8605,8.8605,8.8605,8.8605,8.8984,9.0282,9.0558,9.0558,9.0558,9.0558,9.0282,8.9571,8.9433,8.9191,8.8433,8.8984,8.9191,8.8536,8.9122,8.9709,9.0053,9.0909,9.1857,9.2946,9.4573,9.5465,9.5354,9.6125,9.5804,9.4199,9.4173,9.35,9.21,9.247,9.2624,9.2624,9.2624,9.2734,4.6658,4.6134,4.5341,0.0,0.0,0.0,0.0,4.7948,5.2042,0.0,0.0,0.0,0.0,0.0,0.0,0.0,0.0,0.0,0.0,0.0,0.0,0.0,0.0,0.0,0.0,7.8428,7.8607,7.9012,7.9184,7.9317,7.9365,7.9615,7.9975,8.0502,8.0715,8.1143,8.181,8.181,8.2086,8.2707,8.2707,8.2707,8.2707,8.2707,8.235,8.181,8.1948,8.2005,8.2121,8.3626,8.4626,8.5259,8.6018,8.6294,8.6294,8.6294,8.6294,8.6294,8.6294,8.6294,8.6294,8.6294,8.6294,8.6294,8.6294,8.6294,8.6294,8.6294,8.6833,8.7385,8.7385,8.8019,8.8605,8.8605,8.8605,8.8605,8.8605,8.8605,8.8674,8.8984,8.9019,8.9019,8.9019,8.9019,8.8777,8.7971,8.7833,8.7592,8.6833,8.7385,8.7799,8.7661,8.8329,8.9155,9.0018,9.0909,9.1857,9.2946,9.4573,9.5208,9.4556,9.5318,9.4987,9.3382,9.2684,9.2233,9.21,9.2171,9.2206,9.2206,9.2206,9.2427,4.91,4.8265,4.7093,4.7134,0.0,0.0,0.0,0.0,0.0,0.0,0.0,0.0,0.0,0.0,0.0,0.0,0.0,0.0,0.0,0.0,0.0,0.0,0.0,0.0,0.0,7.7988,7.8207,7.8714,7.9176,7.9284,7.891,7.9152,7.9308,7.9367,8.0066,8.0634,8.1059,8.1923,8.2523,8.2902,8.3281,8.3247,8.2902,8.2902,8.25,8.181,8.181,8.181,8.1914,8.3385,8.4247,8.4695,8.5846,8.6294,8.6294,8.6294,8.6294,8.6294,8.6294,8.6294,8.6294,8.6294,8.6294,8.6294,8.6294,8.6294,8.6294,8.6294,8.6557,8.6833,8.6833,8.7156,8.7467,8.7467,8.7467,8.7467,8.7467,8.7467,8.7467,8.7467,8.7467,8.7708,8.8467,8.8915,8.8881,8.8122,8.8329,8.8295,8.7536,8.8088,8.8558,8.8558,8.926,9.0125,9.1163,9.208,9.305,9.4068,9.5376,9.5731,9.4923,9.5281,9.473,9.3125,9.2244,9.1858,9.1948,9.1948,9.2002,9.21,9.21,9.2331,0.0,0.0,0.0,0.0,0.0,4.6382,0.0,0.0,0.0,0.0,0.0,0.0,0.0,0.0,0.0,0.0,0.0,0.0,0.0,0.0,0.0,0.0,0.0,0.0,0.0,7.7041,7.7379,7.7964,7.8585,7.872,7.8268,7.8615,7.8662,7.8258,7.9304,8.0011,8.0367,8.175,8.2592,8.2902,8.3488,8.3488,8.2902,8.2902,8.25,8.181,8.181,8.181,8.1914,8.3385,8.4006,8.4144,8.5695,8.6294,8.6294,8.6294,8.6294,8.6294,8.6294,8.6294,8.6294,8.6294,8.6294,8.6294,8.6294,8.6294,8.6294,8.6294,8.6294,8.6294,8.6294,8.6294,8.6294,8.6294,8.6294,8.6294,8.6294,8.6432,8.6523,8.6523,8.6639,8.7053,8.7984,8.8777,8.9053,8.8467,8.9019,8.926,8.8674,8.9226,8.9709,8.9709,9.0364,9.1187,9.2086,9.3037,9.3947,9.4792,9.5851,9.6061,9.5098,9.4877,9.418,9.2868,9.217,9.1803,9.1803,9.1803,9.1885,9.2038,9.2038,9.2224,0.0,0.0,0.0,0.0,4.9134,0.0,0.0,0.0,0.0,0.0,0.0,0.0,0.0,0.0,0.0,0.0,0.0,0.0,0.0,0.0,0.0,0.0,0.0,0.0,0.0,0.0,7.4063,7.4131,7.4199,7.4503,7.5089,7.6003,7.6862,7.769,7.8073,7.9004,8.0545,8.0752,8.1557,8.2902,8.2971,8.2971,8.2902,8.2902,8.25,8.181,8.181,8.181,8.1914,8.3385,8.4006,8.4144,8.5695,8.6294,8.6294,8.6294,8.6294,8.6294,8.6294,8.6294,8.6294,8.6294,8.6294,8.6294,8.6294,8.6294,8.6294,8.6294,8.6294,8.6294,8.6294,8.6294,8.6294,8.6294,8.6294,8.6294,8.6294,8.6799,8.7282,8.7282,8.7846,8.795,8.6777,8.7178,8.7627,8.7558,8.8226,8.8674,8.8605,8.9226,8.9709,8.9709,9.0364,9.0931,9.129,9.2187,9.2885,9.3236,9.4755,9.4951,9.3446,9.2648,9.2134,9.195,9.184,9.1803,9.1803,9.1803,9.1822,9.184,9.184,9.1957,0.0,0.0,0.0,0.0,0.0,0.0,0.0,0.0,4.6426,0.0,0.0,0.0,0.0,0.0,0.0,0.0,0.0,0.0,0.0,0.0,0.0,0.0,0.0,0.0,0.0,0.0,0.0,0.0,0.0,7.2101,7.3262,7.4691,7.5863,7.6717,7.7558,7.8339,7.9085,8.0567,8.1626,8.2281,8.3143,8.3316,8.2902,8.2902,8.25,8.181,8.181,8.181,8.1914,8.3385,8.4006,8.4144,8.5695,8.6294,8.6294,8.6294,8.6294,8.6294,8.6294,8.6294,8.6294,8.6294,8.6294,8.6294,8.6294,8.6294,8.6294,8.6294,8.6294,8.6294,8.6294,8.6294,8.6294,8.6294,8.6294,8.6294,8.6294,8.6868,8.7385,8.7385,8.8053,8.8398,8.7743,8.826,8.873,8.873,8.9398,8.9881,8.9881,9.0157,9.0329,9.0329,9.0627,9.0897,9.1185,9.208,9.2695,9.2972,9.3696,9.3813,9.3125,9.2244,9.1803,9.1803,9.1803,9.1803,9.1803,9.1803,9.1803,9.1803,9.1803,9.1912,6.1626,0.0,0.0,0.0,0.0,0.0,0.0,0.0,0.0,0.0,0.0,0.0,0.0,0.0,0.0,0.0,0.0,0.0,0.0,0.0,0.0,0.0,0.0,0.0,0.0,0.0,0.0,0.0,0.0,0.0,7.1379,7.3356,7.4876,7.5875,7.7056,7.7801,7.811,8.0142,8.1281,8.15,8.2764,8.3109,8.2592,8.2592,8.2316,8.181,8.181,8.181,8.1914,8.3178,8.3695,8.3868,8.5397,8.6018,8.6018,8.6225,8.6294,8.6294,8.6294,8.6294,8.6294,8.6294,8.6432,8.6557,8.6363,8.642,8.6557,8.6363,8.6467,8.6605,8.6605,8.6777,8.6949,8.6949,8.6949,8.6949,8.6949,8.7501,8.804,8.804,8.8674,8.9191,8.9191,8.9467,8.9709,8.9709,9.0329,9.073,9.0523,9.0489,9.0459,9.033,9.0361,9.049,9.0771,9.1637,9.2407,9.3002,9.287,9.2868,9.3079,9.2244,9.1803,9.1803,9.1803,9.1803,9.1803,9.1803,9.1803,9.1803,9.1803,9.1885,0.0,0.0,0.0,5.6466,0.0,0.0,0.0,0.0,4.7363,0.0,0.0,0.0,0.0,0.0,0.0,0.0,0.0,0.0,0.0,0.0,0.0,0.0,0.0,0.0,0.0,0.0,0.0,0.0,0.0,0.0,6.9045,7.1534,7.3651,7.5356,7.6337,7.7354,7.8373,7.9178,7.9936,8.0661,8.1488,8.1845,8.1845,8.1845,8.181,8.181,8.181,8.181,8.1845,8.2626,8.2937,8.3075,8.4639,8.5225,8.5328,8.6053,8.6294,8.6294,8.6294,8.6294,8.6294,8.6294,8.6764,8.7213,8.6523,8.6799,8.7213,8.6489,8.6799,8.7351,8.7351,8.795,8.8536,8.8536,8.8536,8.8536,8.8536,8.9122,8.964,8.964,9.0213,9.073,9.073,9.0157,8.9709,8.9709,9.0329,9.0523,8.9847,8.9743,8.9571,8.9126,8.9214,8.9457,8.9714,9.0536,9.1634,9.3004,9.2308,9.2207,9.3079,9.2244,9.1803,9.1803,9.1803,9.1803,9.1803,9.1803,9.1803,9.1803,9.1803,9.1812,0.0,0.0,6.3147,6.1143,0.0,0.0,0.0,0.0,0.0,0.0,0.0,0.0,0.0,0.0,0.0,0.0,0.0,0.0,0.0,0.0,0.0,0.0,0.0,0.0,0.0,0.0,0.0,0.0,6.0341,0.0,0.0,6.9396,7.2245,7.4321,7.5971,7.6965,7.7331,7.8282,7.9143,7.9867,8.0626,8.1281,8.181,8.181,8.181,8.181,8.181,8.181,8.1845,8.2604,8.2902,8.304,8.4604,8.519,8.5294,8.6018,8.6294,8.6294,8.6294,8.6294,8.6294,8.6294,8.6467,8.6626,8.6398,8.6454,8.6639,8.6351,8.6833,8.7385,8.7385,8.8019,8.8605,8.8605,8.8605,8.8605,8.8605,8.9191,8.9709,8.9709,9.0295,9.0799,9.0799,9.0592,9.042,9.042,9.0627,9.0536,8.9778,8.9709,8.9566,8.9249,8.9532,8.9846,9.0072,9.0717,9.1446,9.2207,9.195,9.1913,9.2244,9.195,9.1803,9.1803,9.1803,9.1803,9.1803,9.1803,9.1803,9.1803,9.1803,9.1803,7.2971,7.059,0.0,0.0,6.3402,0.0,5.7245,0.0,0.0,0.0,0.0,0.0,0.0,0.0,0.0,0.0,0.0,0.0,0.0,0.0,0.0,0.0,0.0,0.0,0.0,0.0,5.52,5.52,5.635,0.0,0.0,0.0,7.0239,7.3039,7.5527,7.6793,7.6793,7.7857,7.8764,7.9523,8.0247,8.1005,8.181,8.181,8.181,8.181,8.181,8.181,8.1845,8.2316,8.2523,8.2661,8.419,8.4764,8.4915,8.5902,8.6294,8.6294,8.6294,8.6294,8.6294,8.6294,8.6489,8.6626,8.6398,8.6674,8.7053,8.6777,8.742,8.8213,8.8213,8.8812,8.9398,8.9398,8.9398,8.9398,8.9398,8.9778,9.0088,9.0088,9.0454,9.0799,9.0799,9.0799,9.0696,9.0454,9.042,9.0054,8.9019,8.8881,8.881,8.8527,8.8947,8.9458,9.0082,9.0674,9.1168,9.1573,9.1666,9.173,9.1803,9.1803,9.1803,9.1803,9.1803,9.1803,9.1803,9.1803,9.1803,9.1803,9.1803,9.1803]},{"header":{"parameterUnit":"m.s-1","parameterCategory":1,"la1":30.6,"la2":29.2853,"lo1":-89.7004,"lo2":-87.6739,"dy":0.0162,"dx":0.0183,"nx":112,"ny":82,"refTime":"2026-04-02T12:00:00:Z","depth":0,"parameterNumber":3,"parameterNumberName":"V-component_of_WINDS"},"data":[0.0,0.0,0.0,0.0,0.0,0.0,0.0,0.0,0.0,0.0,0.0,0.0,0.0,0.0,0.0,0.0,0.0,0.0,0.0,0.0,0.0,0.0,0.0,0.0,0.0,0.0,0.0,0.0,0.0,0.0,0.0,0.0,0.0,0.0,0.0,0.0,0.0,0.0,0.0,0.0,0.0,0.0,0.0,0.0,0.0,0.0,0.0,0.0,0.0,0.0,0.0,0.0,0.0,0.0,0.0,0.0,0.0,0.0,0.0,0.0,0.0,0.0,0.0,0.0,0.0,0.0,0.0,0.0,0.0,0.0,0.0,0.0,0.0,0.0,0.0,0.0,0.0,0.0,0.0,0.0,0.0,0.0,0.0,0.0,0.0,0.0,0.0,0.0,0.0,0.0,0.0,1.1576,1.3166,1.4002,1.3633,1.3261,1.2506,1.1274,0.0,0.0,0.0,0.0,0.0,0.0,0.0,0.0,0.0,0.0,0.0,0.0,0.0,0.0,0.0,0.0,0.0,0.0,0.0,0.0,0.0,0.0,0.0,0.0,0.0,0.0,0.0,0.0,0.0,0.0,0.0,0.0,0.0,0.0,0.0,0.0,0.0,0.0,0.0,0.0,0.0,0.0,0.0,0.0,0.0,0.0,0.0,0.0,0.0,0.0,0.0,0.0,0.0,0.0,0.0,0.0,0.0,0.0,0.0,0.0,0.0,0.0,0.0,0.0,0.0,0.0,0.0,0.0,0.0,0.0,0.0,0.0,0.0,0.0,0.0,0.0,0.0,0.0,0.0,0.0,0.0,0.0,0.0,0.0,0.0,0.0,0.0,0.0,0.0,0.0,0.0,0.0,0.0,0.0,0.0,0.0,0.0,0.0,0.0,0.0,0.0,0.0,0.0,0.0,1.0945,1.2888,1.3797,1.4095,1.3647,1.3349,1.2615,1.1281,0.0,0.0,0.0,0.0,0.0,0.0,0.0,0.0,0.0,0.0,0.0,0.0,0.0,0.0,0.0,0.0,0.0,0.0,0.0,0.0,0.0,0.0,0.0,0.0,0.0,0.0,0.0,0.0,0.0,0.0,0.0,0.0,0.0,0.0,0.0,0.0,0.0,0.0,0.0,0.0,0.0,0.0,0.0,0.0,0.0,0.0,0.0,0.0,0.0,0.0,0.0,0.0,0.0,0.0,0.0,0.0,0.0,0.0,0.0,0.0,0.0,0.0,0.0,0.0,0.0,0.0,0.0,0.0,0.0,0.0,0.0,0.0,0.0,0.0,0.0,0.0,0.0,0.0,0.0,0.0,0.0,0.0,0.0,0.0,0.0,0.0,0.0,0.0,0.0,0.0,0.0,0.0,0.0,0.0,0.0,0.0,0.0,0.0,0.0,0.0,0.0,0.0,0.0,1.0714,1.2082,1.3369,1.3987,1.4116,1.3647,1.318,1.2427,1.1274,0.9995,0.0,0.0,0.0,0.0,0.0,0.0,0.0,0.0,0.0,0.0,0.0,0.0,0.0,0.0,0.0,0.0,0.0,0.0,0.0,0.0,0.0,0.0,0.0,0.0,0.0,0.0,0.0,0.0,0.0,0.0,0.0,0.0,0.0,0.0,0.0,0.0,0.0,0.0,0.0,0.0,0.0,0.0,0.0,0.0,0.0,0.0,0.0,0.0,0.0,0.0,0.0,0.0,0.0,0.0,0.0,0.0,0.0,0.0,0.0,0.0,0.0,0.0,0.0,0.0,0.0,0.0,0.0,0.0,0.0,0.0,0.0,0.0,0.0,0.0,0.0,0.0,0.0,0.0,0.0,0.0,0.0,0.0,0.0,0.0,0.0,0.0,0.0,0.0,0.0,0.0,0.0,0.0,0.0,0.0,0.0,0.0,0.0,0.0,0.0,0.0,0.0,0.0,1.2008,1.3031,1.3599,1.4026,1.4089,1.3545,1.2949,1.2149,1.1057,0.9784,0.0,0.0,0.0,0.0,0.0,0.0,0.0,0.0,0.0,0.0,0.0,0.0,0.0,0.0,0.0,0.0,0.0,0.0,0.0,0.0,0.0,0.0,0.0,0.0,0.0,0.0,0.0,0.0,0.0,0.0,0.0,0.0,0.0,0.0,0.0,0.0,0.0,0.0,0.0,0.0,0.0,0.0,0.0,0.0,0.0,0.0,0.0,0.0,0.0,0.0,0.0,0.0,0.0,0.0,0.0,0.0,0.0,0.0,0.0,0.0,0.0,0.0,0.0,0.0,0.0,0.0,0.0,0.0,0.0,0.0,0.0,0.0,0.0,0.0,0.0,0.0,0.0,0.0,0.0,0.0,0.0,0.0,0.0,0.0,0.0,0.0,0.0,0.0,0.0,0.0,0.0,0.0,0.0,0.0,0.0,0.0,0.0,0.0,0.0,0.0,0.0,0.0,1.2419,1.3315,1.3734,1.4087,1.4,1.3288,1.2684,1.1773,1.0442,0.9334,0.0,0.0,0.0,0.0,0.0,0.0,0.0,0.0,0.0,0.0,0.0,0.0,0.0,0.0,0.0,0.0,0.0,0.0,0.0,0.0,0.0,0.0,0.0,0.0,0.0,0.0,0.0,0.0,0.0,0.0,0.0,0.0,0.0,0.0,0.0,0.0,0.0,0.0,0.0,0.0,0.0,0.0,0.0,0.0,0.0,0.0,0.0,0.0,0.0,0.0,0.0,0.0,0.0,0.0,0.0,0.0,0.0,0.0,0.0,0.0,0.0,0.0,0.0,0.0,0.0,0.0,0.0,0.0,0.0,0.0,0.0,0.0,0.0,0.0,0.0,0.0,0.0,0.0,0.0,0.0,0.0,0.0,0.0,0.0,0.0,0.0,0.0,0.0,0.0,0.0,0.0,0.0,0.0,0.0,0.0,0.0,0.0,0.0,0.0,0.0,0.0,0.0,1.2534,1.3451,0.0,1.4094,1.4034,1.337,1.2616,1.1671,1.0503,0.0,0.0,0.0,0.0,0.0,0.0,0.0,0.0,0.0,0.0,0.0,0.0,0.0,0.0,0.0,0.0,0.0,0.0,0.0,0.0,0.0,0.0,0.0,0.0,0.0,0.0,0.0,0.0,0.0,0.0,0.0,0.0,0.0,0.0,0.0,0.0,0.0,0.0,0.0,0.0,0.0,0.0,0.0,0.0,0.0,0.0,0.0,0.0,0.0,0.0,0.0,0.0,0.0,0.0,0.0,0.0,0.0,0.0,0.0,0.0,0.0,0.0,0.0,0.0,0.0,0.0,0.0,0.0,0.0,0.0,0.0,0.0,0.0,0.0,0.0,0.0,0.0,0.0,0.0,0.0,0.0,0.0,0.0,0.0,0.0,0.0,0.0,0.0,0.0,0.0,0.0,0.0,0.0,0.0,0.0,0.0,0.0,0.0,0.0,0.0,0.0,0.0,1.1355,1.2705,1.3613,0.0,1.4183,1.4082,1.3411,1.2616,1.1665,1.0517,0.0,0.0,0.0,0.0,0.0,0.0,0.0,0.0,0.0,0.0,0.0,0.0,0.0,0.0,0.0,0.0,0.0,0.0,0.0,0.0,0.0,0.0,0.0,0.0,0.0,0.0,0.0,0.0,0.0,0.0,0.0,0.0,0.0,0.0,0.0,0.0,0.0,0.0,0.0,0.0,0.0,0.0,0.0,0.0,0.0,0.0,0.0,0.0,0.0,0.0,0.0,0.0,0.0,0.0,0.0,0.0,0.0,0.0,0.0,0.0,0.0,0.0,0.0,0.0,0.0,0.0,0.0,0.0,0.0,0.0,0.0,0.0,0.0,0.0,0.0,0.0,0.0,0.0,0.0,0.0,0.0,0.0,0.0,0.0,0.0,0.0,0.0,0.0,0.0,0.0,0.0,0.0,0.0,0.0,0.0,0.0,0.0,0.0,0.0,0.0,0.0,0.0,1.1604,1.2963,1.3877,1.4076,1.4333,1.415,1.3275,1.2656,1.1739,0.0,0.0,0.0,0.0,0.0,0.0,0.0,0.0,0.0,0.0,0.0,0.0,0.0,0.0,0.0,0.0,0.0,0.0,0.0,0.0,0.0,0.0,0.0,0.0,0.0,0.0,0.0,0.0,0.0,0.0,0.0,0.0,0.0,0.0,0.0,0.0,0.0,0.0,0.0,0.0,0.0,0.0,0.0,0.0,0.0,0.0,0.0,0.0,0.0,0.0,0.0,0.0,0.0,0.0,0.0,0.0,0.0,0.0,0.0,0.0,0.0,0.0,0.0,0.0,0.0,0.0,0.0,0.0,0.0,0.0,0.0,0.0,0.0,0.0,0.0,0.0,0.0,0.0,0.0,0.0,0.0,0.0,0.0,0.0,0.0,0.0,0.0,0.0,0.0,0.0,0.0,0.0,0.0,0.0,0.0,0.0,0.0,0.0,0.0,0.0,0.0,0.0,0.0,0.0,1.2963,1.3877,1.4076,1.4333,1.4216,1.3532,1.2922,1.2055,1.0792,0.0,0.0,0.0,0.0,0.0,0.0,0.0,0.0,0.0,0.0,0.0,0.0,0.0,0.0,0.0,0.0,0.0,0.0,0.0,0.0,0.0,0.0,0.0,0.0,0.0,0.0,0.0,0.0,0.0,0.0,0.0,0.0,0.0,0.0,0.0,0.0,0.0,0.0,0.0,0.0,0.0,0.0,0.0,0.0,0.0,0.0,0.0,0.0,0.0,0.0,0.0,0.0,0.0,0.0,0.0,0.0,0.0,0.0,0.0,0.0,0.0,0.0,0.0,0.0,0.0,0.0,0.0,0.0,0.0,0.0,0.0,0.0,0.0,0.0,0.0,0.0,0.0,0.0,0.0,0.0,0.0,0.0,0.0,0.0,0.0,0.0,0.0,0.0,0.0,0.0,0.0,0.0,0.0,0.0,0.0,0.0,0.0,0.0,0.0,0.0,0.0,0.0,1.1728,1.3132,1.406,1.4231,1.4516,1.4475,1.3918,1.343,1.2598,1.1347,0.0,0.0,0.0,0.0,0.0,0.0,0.0,0.0,0.0,0.0,0.0,0.0,0.0,0.0,0.0,0.0,0.0,0.0,0.0,0.0,0.0,0.0,0.0,0.0,0.0,0.0,0.0,0.0,0.0,0.0,0.0,0.0,0.0,0.0,0.0,0.0,0.0,0.0,0.0,0.0,0.0,0.0,0.0,0.0,0.0,0.0,0.0,0.0,0.0,0.0,0.0,0.0,0.0,0.0,0.0,0.0,0.0,0.0,0.0,0.0,0.0,0.0,0.0,0.0,0.0,0.0,0.0,0.0,0.0,0.0,0.0,0.0,0.0,0.0,0.0,0.0,0.0,0.0,0.0,0.0,0.0,0.0,0.0,0.0,0.0,0.0,0.0,0.0,0.0,0.0,0.0,0.0,0.0,0.0,0.0,0.0,0.0,0.0,0.0,0.0,0.0,0.0,1.1907,1.339,1.4353,1.4496,1.481,1.481,1.434,1.3992,1.324,1.194,0.0,0.0,0.0,0.0,0.0,0.0,0.0,0.0,0.0,0.0,0.0,0.0,0.0,0.0,0.0,0.0,0.0,0.0,0.0,0.0,0.0,0.0,0.0,0.0,0.0,0.0,0.0,0.0,0.0,0.0,0.0,0.0,0.0,0.0,0.0,0.0,0.0,0.0,0.0,0.0,0.0,0.0,0.0,0.0,0.0,0.0,0.0,0.0,0.0,0.0,0.0,0.0,0.0,0.0,0.0,0.0,0.0,0.0,0.0,0.0,1.3972,0.0,0.0,0.0,0.0,0.0,0.0,0.0,0.0,0.0,0.0,0.0,0.0,0.0,0.0,0.0,0.0,0.0,0.0,0.0,0.0,0.0,0.0,0.0,0.0,0.0,0.0,0.0,0.0,0.0,0.0,0.0,0.0,0.0,0.0,0.0,0.0,0.0,0.0,0.0,0.0,0.0,1.1907,1.339,1.4353,1.4496,1.481,1.481,1.434,1.3992,1.3349,1.2264,0.0,0.0,0.0,0.0,0.0,0.0,0.0,0.0,0.0,0.0,0.0,0.0,0.0,0.0,0.0,0.0,0.0,0.0,0.0,0.0,0.0,0.0,0.0,0.0,0.0,0.0,0.0,0.0,0.0,0.0,0.0,0.0,0.0,0.0,0.0,0.0,0.0,0.0,0.0,0.0,0.0,0.0,0.0,0.0,0.0,0.0,0.0,0.0,0.0,0.0,0.0,0.0,0.0,0.0,0.0,0.0,0.0,0.0,0.0,0.0,0.0,1.5612,0.0,0.0,0.0,0.0,0.0,0.0,0.0,0.0,0.0,0.0,0.0,0.0,0.0,0.0,0.0,0.0,0.0,0.0,0.0,0.0,0.0,0.0,0.0,0.0,0.0,0.0,0.0,0.0,0.0,0.0,0.0,0.0,0.0,0.0,0.0,0.0,0.0,0.0,0.0,0.0,1.1914,1.339,1.438,1.4575,1.4896,1.4916,1.4521,1.4277,1.3667,1.255,1.1461,0.0,0.0,0.0,0.0,0.0,0.0,0.0,0.0,0.0,0.0,0.0,0.0,0.0,0.0,0.0,0.0,0.0,0.0,0.0,0.0,0.0,0.0,0.0,0.0,0.0,0.0,0.0,0.0,0.0,0.0,0.0,0.0,0.0,0.0,0.0,0.0,0.0,0.0,0.0,0.0,0.0,0.0,0.0,0.0,0.0,0.0,0.0,0.0,0.0,0.0,0.0,0.0,0.0,0.0,2.3479,2.3549,2.3582,2.3928,2.429,2.1577,1.9698,1.8505,0.0,0.0,0.0,0.0,0.0,0.0,0.0,0.0,0.0,0.0,0.0,0.0,0.0,0.0,0.0,0.0,0.0,0.0,0.0,0.0,0.0,0.0,0.0,0.0,0.0,1.1553,1.1302,0.0,0.0,0.0,0.0,0.0,0.0,0.0,0.0,0.0,0.0,0.0,0.0,1.1968,1.3383,1.4373,1.4642,1.492,1.4997,1.4697,1.4541,1.4007,1.2895,1.2026,1.105,0.0,0.0,0.0,0.0,0.0,0.0,0.0,0.0,0.0,0.0,0.0,0.0,0.0,0.0,0.0,0.0,0.0,0.0,0.0,0.0,0.0,0.0,0.0,0.0,0.0,0.0,0.0,0.0,0.0,0.0,0.0,0.0,1.6292,1.6932,0.0,0.0,0.0,0.0,0.0,0.0,0.0,0.0,0.0,0.0,0.0,0.0,0.0,0.0,2.399,2.4585,2.5008,2.527,2.5552,2.5821,2.6126,2.6354,2.6824,2.743,2.721,0.0,2.2812,2.2001,0.0,0.0,0.0,0.0,0.0,0.0,0.0,0.0,0.0,0.0,0.0,0.0,0.0,0.0,0.0,0.0,0.0,0.0,0.0,0.0,0.0,0.0,1.2764,1.2764,1.2942,1.299,0.0,1.1717,1.0853,1.0367,0.0,0.0,0.0,0.0,0.0,0.0,0.0,0.0,1.2101,1.3356,1.4239,1.4509,1.4676,1.4703,1.4534,1.4414,1.4034,1.3356,1.2596,1.1828,1.1023,0.9978,0.0,0.0,0.0,0.0,0.0,0.0,0.0,0.0,0.0,0.0,0.0,0.0,0.0,0.0,0.0,0.0,0.0,0.0,0.0,0.0,0.0,0.0,0.0,0.0,0.0,0.0,0.0,0.0,0.0,1.7082,1.8237,1.8658,1.8841,1.8802,0.0,0.0,0.0,0.0,0.0,0.0,0.0,0.0,0.0,2.3759,2.49,2.5924,2.6811,2.7717,2.8232,2.8342,2.8596,2.8828,2.896,2.9069,2.9382,2.9816,2.9913,2.9299,2.8012,2.5593,2.347,2.1516,0.0,0.0,0.0,0.0,0.0,1.8744,1.978,1.9873,0.0,0.0,0.0,0.0,0.0,0.0,0.0,0.0,0.0,0.0,0.0,0.0,0.0,1.4584,1.4406,1.4263,1.4147,1.3713,1.2958,0.0,1.1084,1.0525,0.9589,0.0,0.0,0.0,0.0,0.0,1.2277,1.3479,1.4278,1.4489,1.4629,1.4656,1.45,1.4455,1.4141,1.3545,1.3139,1.2561,1.1737,1.0924,1.0068,0.0,0.0,0.0,0.0,0.0,0.0,0.0,0.0,0.0,0.0,0.0,0.0,0.0,0.0,0.0,0.0,0.0,0.0,0.0,0.0,0.0,0.0,0.0,0.0,0.0,0.0,0.0,0.0,1.904,2.0204,2.055,2.0909,2.092,0.0,0.0,0.0,0.0,0.0,0.0,2.3149,2.391,2.4903,2.6146,2.7275,2.8251,2.9045,3.0163,3.0774,3.0832,3.1193,3.1356,3.1356,3.1356,3.1423,3.1557,3.1557,3.165,3.1573,2.842,2.6298,2.4826,2.2666,2.1731,2.1589,2.1502,2.1814,2.2443,2.3378,2.3475,2.3111,2.2462,0.0,1.9304,1.7214,0.0,0.0,0.0,0.0,1.5362,1.583,1.6632,1.7188,1.6637,1.6075,1.5656,1.5572,1.5557,1.4991,0.0,1.2715,1.2237,1.1091,0.0,0.0,0.0,0.0,1.2067,1.2856,1.3923,1.4601,1.4642,1.4602,1.4561,1.4468,1.4421,1.4175,1.3673,1.3471,1.303,1.2283,1.1671,1.0897,0.9895,0.0,0.0,0.0,0.0,0.0,0.0,0.0,0.0,0.0,0.0,0.0,0.0,0.0,0.0,0.0,0.0,0.0,0.0,0.0,0.0,0.0,0.0,0.0,0.0,0.0,0.0,0.0,0.0,0.0,2.2679,2.3268,0.0,0.0,0.0,0.0,2.3518,2.4387,2.501,2.5344,2.646,2.7403,2.8031,2.8941,2.9682,3.0306,3.1179,3.1767,3.2024,3.2623,3.2891,3.2891,3.2891,3.2743,3.2527,3.2527,3.2356,3.1957,3.0366,2.9504,2.9003,2.6835,2.5993,2.5987,2.598,2.6163,2.6582,2.7836,2.809,2.7742,2.7014,2.4416,2.1339,2.0136,1.8617,0.0,0.0,1.8067,1.8203,1.8662,1.93,1.9625,1.8818,1.8099,1.7492,1.715,1.7033,1.6559,0.0,1.5097,1.4879,1.3557,0.0,1.217,1.2257,1.2911,1.3571,1.4137,1.4923,1.5315,1.5014,1.4578,1.4319,1.4312,1.4199,1.4042,1.3795,1.3424,1.3057,1.2672,1.2103,1.1419,1.066,0.9908,0.0,0.0,0.0,0.0,0.0,0.0,0.0,0.0,0.0,0.0,0.0,0.0,0.0,0.0,0.0,0.0,0.0,0.0,0.0,0.0,0.0,0.0,0.0,0.0,0.0,0.0,0.0,0.0,2.4476,2.5264,0.0,0.0,2.4649,2.4863,2.5984,2.6693,2.7449,2.8276,2.8946,2.9548,3.0114,3.0434,3.0982,3.1805,3.1915,3.2185,3.2666,3.2717,3.2755,3.2755,3.2755,3.2688,3.2581,3.2369,3.2329,3.2329,3.1209,3.0581,3.0238,2.9197,2.864,2.835,2.8277,2.8354,2.8592,2.9228,2.9259,2.8855,2.7772,2.5793,2.3725,2.314,2.1866,2.0687,2.0978,2.1054,2.1065,2.1369,2.1846,2.2026,2.1087,2.0101,1.9338,1.9225,1.8903,1.8696,1.8836,1.8198,1.7244,1.6036,1.4869,1.4167,1.437,1.4795,1.5237,1.5611,1.6166,1.6243,1.5521,1.4756,1.4258,1.4185,1.4124,1.3947,1.358,1.341,1.3139,1.2726,1.2407,1.194,1.129,1.0545,0.9749,0.0,0.0,0.0,0.0,0.0,0.0,0.0,0.0,0.0,0.0,0.0,0.0,0.0,0.0,0.0,0.0,0.0,0.0,0.0,0.0,0.0,0.0,0.0,0.0,0.0,0.0,2.5264,2.6146,2.7007,2.7394,2.7048,2.6814,2.7068,2.797,2.8607,2.9276,3.002,3.0364,3.0751,3.1186,3.1399,3.1851,3.2581,3.2677,3.2906,3.3305,3.3211,3.3118,3.3049,3.3049,3.2942,3.2728,3.2503,3.2423,3.2382,3.1864,3.1503,3.1186,3.0624,3.0206,2.9931,2.9847,2.9861,2.9962,3.0034,2.9806,2.937,2.8524,2.7379,2.6323,2.6141,2.5289,2.4392,2.4529,2.4298,2.4055,2.4171,2.437,2.4308,2.3315,2.22,2.1321,2.1217,2.0834,2.0774,2.179,2.0837,1.9528,1.8419,1.7199,1.6431,1.659,1.6877,1.717,1.7384,1.7772,1.7622,1.6533,1.544,1.4722,1.4561,1.4498,1.4294,1.388,1.3754,1.3456,1.2923,1.2641,1.2244,1.1683,1.0789,0.9903,0.9029,0.0,0.0,0.0,0.0,0.0,0.0,0.0,0.0,0.0,0.0,0.0,0.0,0.0,0.0,0.0,0.0,0.0,0.0,0.0,0.0,0.0,0.0,0.0,2.28,2.4962,2.676,2.7642,2.8516,2.9041,2.9055,2.9055,2.9197,2.9535,3.0083,3.0426,3.0426,3.0684,3.0942,3.1199,3.1797,3.2251,3.2607,3.3452,3.3868,3.3895,3.4162,3.4148,3.3868,3.3868,3.3572,3.3011,3.3011,3.2652,3.2144,3.2436,3.2382,3.2011,3.1169,3.0835,3.0835,3.0835,3.0822,3.0791,3.0511,3.0029,2.9548,2.9535,2.9312,2.9041,2.9028,2.8731,2.8413,2.8413,2.7735,2.7012,2.7012,2.6802,2.6372,2.5453,2.4319,2.3389,2.3128,2.2748,2.2756,2.3767,2.2956,2.1764,2.0704,1.9668,1.898,1.8937,1.913,0.0,1.9489,1.9776,1.9435,1.8024,1.6577,1.5659,1.5466,1.5316,1.5098,1.4769,1.4481,1.4028,1.3335,1.279,1.2265,1.1793,1.0627,0.9609,0.873,0.0,0.0,0.0,0.0,0.0,0.0,0.0,0.0,0.0,0.0,0.0,0.0,0.0,0.0,0.0,0.0,0.0,0.0,0.0,0.0,0.0,0.0,2.3384,2.4347,2.6152,2.7749,2.8858,2.9601,3.0074,3.0287,3.0314,3.0434,3.0705,3.0902,3.0982,3.0982,3.1286,3.137,3.1213,3.1797,3.2345,3.2877,3.3131,3.3479,3.3881,3.3734,3.3614,3.3547,3.3547,3.3454,3.328,3.3066,3.2797,3.246,3.2302,3.2075,3.1834,3.2032,3.1955,3.1744,3.1744,3.1476,3.1066,3.1022,3.0742,3.0417,3.0217,3.0083,2.9976,2.9717,2.9194,2.8691,2.8691,2.7832,2.6983,2.7169,2.6915,2.651,2.6079,2.5341,2.4721,2.4793,2.4258,2.4112,2.5261,2.489,2.4143,2.3352,2.2177,2.1421,2.1609,2.165,0.0,2.1786,2.1826,2.1207,1.95,1.7753,1.6651,1.6506,1.628,1.5958,0.0,1.5198,1.4551,1.3487,1.2748,1.2135,1.1669,1.0985,1.0262,0.0,0.0,0.0,0.0,0.0,0.0,0.0,0.0,0.0,0.0,0.0,0.0,0.0,0.0,0.0,0.0,0.0,0.0,0.0,0.0,0.0,0.0,2.3545,2.5283,2.6419,2.7663,2.8813,2.9762,3.039,3.0858,3.1152,3.1179,3.1236,3.1396,3.141,3.141,3.141,3.1463,3.1463,3.141,3.1984,3.253,3.2998,3.3252,3.3534,3.3907,3.3561,3.3414,3.3414,3.3414,3.3414,0.0,3.324,3.3024,3.273,3.2436,3.2142,0.0,0.0,0.0,0.0,0.0,3.1623,3.1199,3.1199,3.1012,3.0768,3.0618,3.0484,3.0346,3.0007,2.942,2.8864,2.8745,2.793,2.7169,2.7469,2.7281,2.7021,2.7022,2.6715,2.6433,2.6421,2.5912,2.566,2.6369,0.0,0.0,2.5226,2.3988,2.3113,2.3268,2.3257,2.3246,0.0,2.3257,2.26,2.0967,1.9283,1.82,1.8039,1.7797,0.0,0.0,0.0,1.5599,1.3667,1.292,0.0,0.0,0.0,0.0,0.0,0.0,0.0,0.0,0.8981,0.9198,0.0,0.0,0.0,0.0,0.0,0.0,0.0,0.0,0.0,0.0,0.0,0.0,0.0,0.0,0.0,0.0,2.5218,2.7028,2.8457,2.9245,2.9896,3.0417,3.0915,3.1319,3.166,3.1727,3.1741,3.1741,3.1767,3.1781,3.1741,0.0,0.0,0.0,0.0,3.2768,3.2998,3.3547,3.3828,3.3828,3.3547,3.3414,3.3414,3.3414,3.3414,3.3414,3.3414,3.324,3.2984,3.2755,3.2449,3.2118,3.1821,3.1687,3.1687,3.1687,3.1503,0.0,0.0,0.0,0.0,3.0849,3.0684,3.0417,3.006,2.953,2.901,2.8716,2.8055,2.7488,2.7844,2.777,2.768,2.7985,2.8106,2.8096,2.7869,2.747,2.7179,2.7284,2.6607,2.6106,2.6427,2.5246,2.4257,2.4257,2.4257,2.4257,2.4257,2.4257,2.3741,2.2384,0.0,0.0,1.9969,1.9705,1.9429,1.9097,1.8486,1.6863,1.4036,1.336,1.2778,1.2179,1.2001,1.1742,1.1349,1.1349,1.126,1.1079,1.0321,1.0261,0.0,0.0,0.0,0.0,0.0,0.0,0.0,0.0,0.0,0.0,0.0,0.0,0.0,0.0,0.0,2.4818,2.6413,2.7802,2.8775,3.0051,3.0906,3.1026,3.1132,3.1319,3.166,3.1901,3.2024,3.2024,3.2262,3.2313,3.2024,3.2222,0.0,3.2024,3.261,3.2944,3.2998,3.3334,3.3507,3.3507,0.0,0.0,3.3414,3.3414,3.3414,3.3414,3.3414,3.324,3.2998,3.2944,3.2768,3.246,3.1901,3.1687,3.1687,3.1687,3.166,3.1607,3.1607,3.1567,3.1487,3.1223,3.1079,3.0955,3.0457,2.9882,0.0,2.901,2.8221,2.7591,2.8091,2.7912,2.7728,2.8271,2.8421,2.8456,2.8561,2.8295,2.8173,2.8562,2.7563,2.6719,2.6999,2.5992,2.5156,2.5156,2.5156,2.5156,2.5156,2.5156,2.4771,2.3806,2.2772,2.2147,2.2094,2.1852,2.1642,2.1451,1.9444,1.7373,1.539,1.449,1.358,1.2603,1.2711,1.2595,1.2244,1.2244,1.2272,1.2321,1.1369,1.1114,0.0,0.0,0.0,0.0,0.0,0.0,0.0,0.0,0.0,0.0,0.0,2.1753,2.3108,0.0,2.5077,2.6386,2.7602,2.8663,2.9579,3.0558,3.1199,3.1199,3.1356,3.1527,3.1674,3.1931,3.2104,3.2104,3.2409,3.2527,3.2356,3.2514,3.2527,3.2356,3.277,3.2998,3.2998,3.3267,3.3414,3.3414,3.3414,3.3414,3.3414,3.3414,3.3414,3.3414,3.3414,3.3334,3.3187,3.3064,3.2837,3.2581,3.2433,3.2169,3.1888,3.1741,3.1687,3.1687,3.1687,3.1687,3.166,3.149,3.1343,3.1119,3.0715,3.0083,2.9419,2.9081,2.8446,2.7939,2.8353,2.8382,2.8417,2.8882,2.9091,2.9223,2.9325,2.9106,2.8974,2.9193,2.8043,2.7037,2.7177,2.6315,2.5547,2.5415,2.5391,2.5391,2.5391,2.5391,2.5134,2.4471,2.3795,2.3408,2.3397,2.3143,2.2864,2.2571,2.0771,1.8912,1.7166,1.6047,1.4834,1.3535,1.3431,1.3196,1.2752,1.2826,1.284,1.2834,1.2324,1.2161,0.0,0.0,0.0,0.0,0.0,0.0,0.0,0.0,2.0539,2.1836,2.2893,2.395,2.5136,2.5904,2.6647,2.7649,2.8537,2.9397,3.0293,3.0915,3.1266,3.1213,3.149,3.1687,3.1687,3.2008,3.2209,3.2209,3.2543,3.2768,3.2768,3.2768,3.2768,3.2768,3.2971,3.3091,3.3091,3.3293,3.3414,3.3414,3.3414,3.3414,3.3414,3.3414,3.3414,3.3414,3.3414,3.3414,3.3362,3.316,3.2944,3.2781,3.2998,3.2772,3.2318,3.1995,3.1821,3.1767,3.1714,3.1687,3.1687,3.1687,3.1527,3.1226,3.0969,3.0341,2.9695,2.9357,2.8898,2.8607,2.8893,2.9125,2.9344,2.9695,2.9873,3.0007,3.0007,2.978,2.9588,2.9588,2.8382,2.7368,2.7368,2.6549,2.5798,2.5533,2.5511,2.5569,2.5569,2.5569,2.5419,2.5031,2.4697,2.4514,2.4514,2.4262,2.3959,2.3564,2.2321,2.0909,1.9319,1.7928,1.6415,1.4779,1.4333,1.3808,1.3152,1.3268,1.3268,1.3152,1.3152,1.3091,1.7796,1.853,1.9945,2.0913,2.1566,2.2058,0.0,0.0,2.3056,2.3768,2.5042,2.6058,2.6213,2.6934,2.7649,2.8072,2.8866,2.9668,3.0319,3.1112,3.1517,3.1226,3.149,3.1687,3.1687,3.2219,3.2541,3.2541,3.3024,3.332,3.332,3.332,3.332,3.332,3.3347,3.336,3.336,3.34,3.3414,3.3414,3.3414,3.3414,3.3414,3.3414,3.3414,3.3414,3.3414,3.3414,3.3414,3.3374,3.3347,3.332,3.3347,3.3295,3.32,3.2701,3.2302,3.2011,3.1781,3.1687,3.1687,3.1687,3.1674,3.1594,3.1239,3.0929,3.0604,3.031,3.0003,2.9793,3.011,3.0217,3.031,3.0581,3.0497,3.0337,3.0337,3.0096,2.9873,2.9873,2.8851,2.7988,2.7988,2.6979,2.6063,2.5798,2.5955,2.6112,2.6112,2.6112,2.609,2.6046,2.6002,2.598,2.598,2.5718,2.5538,2.5478,2.4175,2.2961,2.2011,2.0236,1.8339,1.6388,1.5656,1.4772,1.37,1.3735,1.3735,1.37,1.37,1.3464,1.9331,2.0414,2.1954,0.0,2.3558,2.4324,2.4828,2.501,2.5371,2.6326,2.7155,2.7736,2.7875,2.8075,2.843,0.0,2.9486,2.9993,3.0755,3.1183,3.1303,3.1009,3.0965,3.1059,3.1383,3.1808,3.2219,3.2567,3.2957,3.324,3.34,3.3414,3.3414,3.3414,3.3414,3.3414,3.3414,3.3414,3.3414,3.3414,3.3414,3.3414,3.3414,3.3414,3.3414,3.3414,3.3414,3.3414,3.3414,3.3414,3.3521,3.3708,3.3843,3.3909,3.3855,3.3104,3.2661,3.2342,3.2048,3.1834,3.1687,3.1687,3.1808,3.1888,3.157,3.142,3.1259,3.0942,3.0648,3.0448,3.0604,3.0631,3.0658,3.0768,3.0591,3.04,3.04,3.015,2.9891,2.9891,2.9139,2.8499,2.8499,2.7842,2.7265,2.7153,2.6607,2.6196,2.6196,2.6196,2.6196,2.6196,2.6196,2.6196,2.6196,2.61,2.6039,2.6039,2.5073,2.4169,2.3423,2.1745,2.0009,1.8255,1.7379,1.647,1.5504,1.5205,1.4928,1.4671,1.4679,1.4556,2.0773,2.2004,0.0,2.4307,2.5317,2.6253,2.678,2.6954,2.7235,2.8052,2.8412,2.8644,2.8764,2.8684,2.8845,2.953,2.9887,3.0287,3.0986,3.1226,3.1209,3.0835,3.0564,3.0551,3.0942,3.133,3.1781,3.2313,3.2743,3.3066,3.328,3.3374,3.3414,3.3414,3.3414,3.3414,3.3414,3.3414,3.3414,3.3414,3.3414,3.3414,3.3414,3.3414,3.3414,3.3414,3.3414,3.3414,3.3414,3.3414,3.3601,3.3947,3.4202,3.4296,3.4216,3.3587,3.3131,3.277,3.2452,3.2182,3.1928,3.1834,3.1931,3.2051,3.1781,3.1687,3.1647,3.141,3.1196,3.1059,3.1059,3.1059,3.1059,3.1059,3.0832,3.0618,3.0618,3.0368,3.0154,3.0154,2.9532,2.9009,2.9009,2.8577,2.8204,2.8204,2.7414,2.6834,2.6834,2.6701,2.6546,2.6435,2.6425,2.6425,2.6425,2.6353,2.6317,2.6317,2.5735,2.5192,2.4713,2.3312,2.1903,2.054,1.9609,1.8658,1.7682,1.7089,1.6462,1.5812,1.5799,1.5799,2.1948,0.0,2.4516,2.5965,2.6974,2.7709,2.8058,2.8345,2.8457,2.8253,2.8412,2.8524,2.8272,2.8438,2.8689,2.8975,2.9793,3.0471,3.0768,3.1326,3.146,3.0862,3.0564,3.0413,0.0,3.0902,3.137,3.1701,3.2516,3.3011,3.3011,3.3253,3.3414,3.3414,3.3414,3.3414,3.3414,3.3414,3.3414,3.3414,3.3414,3.3414,3.3414,3.3414,3.3414,3.3414,3.3414,3.3414,3.3414,3.3414,3.3601,3.3947,3.4202,3.4296,3.4296,3.427,3.3883,3.3349,3.3066,3.2808,3.2527,3.2185,3.2091,3.2051,3.1781,3.1687,3.1687,3.1687,3.1674,3.166,3.166,3.166,3.166,3.166,3.141,3.1173,3.1173,3.0946,3.0768,3.0768,3.0126,2.9573,2.9573,2.898,2.8484,2.8484,2.8462,2.8426,2.8426,2.7985,2.7489,2.7025,2.698,2.698,2.698,2.6751,2.6584,2.6584,2.6319,2.6162,2.6128,2.5213,2.4263,2.33,2.2423,2.1378,2.0192,1.9252,1.8192,1.705,1.7044,1.7044,2.293,0.0,2.5919,2.6987,2.7936,2.8649,2.8986,2.9134,2.9098,2.8804,2.8532,2.8312,2.8226,2.8091,2.8297,2.9192,2.9936,3.0551,3.0986,3.1249,3.1223,3.0835,3.0368,0.0,0.0,0.0,0.0,3.162,3.2142,3.2596,3.2984,3.3253,3.3414,3.3414,3.3414,3.3414,3.3414,3.3614,3.3614,3.3414,3.3414,3.3414,3.3414,3.3414,3.3414,3.3414,3.3414,3.3414,3.3414,3.3414,3.3601,3.3895,3.4002,3.4148,3.4296,3.4296,3.4043,3.3668,3.3185,3.281,3.2581,3.2474,3.2423,3.2369,3.2075,3.2115,3.2219,3.1808,3.1834,3.1904,3.1741,3.1687,3.1687,3.1687,3.1436,3.1199,3.1199,3.0996,3.0795,3.0795,3.044,3.0127,3.0127,2.9752,2.933,2.9015,2.8394,2.7965,2.7965,2.7536,2.7186,2.7027,2.7004,2.7004,2.7004,2.6932,2.6872,2.6872,2.6596,2.6473,2.6473,2.5695,2.4971,2.4341,2.3764,2.3058,2.2154,2.1358,2.0343,1.9167,1.9333,1.9418,2.4191,2.5797,2.7248,2.8131,2.8845,2.941,2.9749,2.9655,2.9361,2.8831,2.8104,2.755,2.755,2.7382,2.7636,2.8839,2.9811,3.0551,3.1009,3.1226,3.1276,3.0982,3.0528,3.0234,0.0,0.0,0.0,3.1166,3.1687,3.2158,3.2639,3.3133,3.3414,3.3414,3.3414,3.3467,3.3574,3.3788,3.3841,3.3709,3.3709,3.3681,3.3574,3.3574,3.3521,3.3414,3.3414,3.3414,3.3414,3.3414,3.3601,3.3881,3.3881,3.4002,3.4162,3.4162,3.3975,3.3681,3.34,3.3131,3.2864,3.2781,3.2755,3.2663,3.2369,3.2423,3.2487,3.1981,3.1957,3.2038,3.1767,3.1687,3.1687,3.1687,3.1554,3.1383,3.1383,3.1236,3.1126,3.1126,3.0898,3.0698,3.0698,3.0421,3.0079,2.973,2.8876,2.8145,2.7764,2.7445,2.7186,2.7027,2.7004,2.7004,2.7004,2.7004,2.7004,2.7004,2.6847,2.6728,2.6728,2.6292,2.5895,2.5582,2.5326,2.491,2.435,2.3541,2.2519,2.1341,2.1544,2.1626,2.5703,2.7175,2.8486,2.9347,2.9753,3.0007,3.0319,2.9909,2.9214,2.8312,2.7162,2.6312,0.0,0.0,2.6714,2.7938,2.9396,3.0471,3.0755,3.1326,3.1594,0.0,0.0,0.0,0.0,0.0,0.0,3.0453,0.0,3.1821,3.2104,3.2959,3.344,3.344,3.3454,3.3601,3.3933,3.3908,3.4055,3.4349,3.4296,3.4175,3.3908,3.3908,3.3748,3.3454,3.344,3.344,3.3402,3.3414,3.3587,3.3855,3.3855,3.3855,3.3855,3.3855,3.3668,3.3454,3.3761,3.3681,3.34,3.3133,3.3064,3.2998,3.2728,3.2634,3.2581,3.2211,3.2131,3.2064,3.1794,3.1701,3.1687,3.1687,3.1687,3.1687,3.1687,3.1687,3.1687,3.1687,3.1423,3.1199,3.1186,3.0982,3.0727,3.0514,2.9829,2.8949,2.7896,2.7731,2.7527,2.7086,2.7052,2.7052,2.7052,2.704,2.7028,2.7028,2.7016,2.7004,2.7004,2.7004,2.7004,2.7004,2.7004,2.6872,2.6596,2.5711,2.4643,2.3498,2.3575,2.3563,2.7162,2.8532,2.9619,3.0287,3.0377,3.023,3.006,2.9557,2.8756,2.7442,2.6033,2.5058,0.0,0.0,0.0,2.7269,2.8946,0.0,3.0715,3.1326,0.0,3.1594,0.0,3.1473,3.1473,3.1102,0.0,0.0,3.1567,3.1938,3.2436,3.3305,3.3761,3.3761,3.3975,3.4096,3.4202,3.4202,3.4362,3.4669,3.4429,3.4256,3.4202,3.4202,3.4136,3.4056,3.3855,3.3761,3.3748,3.3507,3.3454,3.3534,3.3534,3.3534,3.3534,3.3534,3.348,3.3427,3.3507,3.3641,3.3788,3.3935,3.3828,3.3626,3.328,3.3187,3.308,3.2596,3.2474,3.2396,3.2088,3.1861,3.1687,3.1687,3.1687,3.1687,3.1687,3.1687,3.1687,3.1687,3.1423,3.1132,3.0942,3.0849,3.0647,3.0263,3.0025,2.9505,2.8441,2.7977,2.7722,2.7606,2.7595,2.7595,2.7595,2.7414,2.7294,2.7294,2.7113,2.7004,2.7004,2.7004,2.7004,2.7004,2.7004,2.6872,2.6596,2.6213,2.558,2.4755,2.4958,2.5071,2.8393,2.9593,3.0518,3.0742,3.0698,3.043,2.9847,2.9037,2.7969,2.6386,2.4764,0.0,2.3625,0.0,0.0,0.0,0.0,0.0,3.0341,3.1022,3.1571,0.0,3.2188,0.0,3.2837,3.2945,3.3115,0.0,3.248,3.2088,3.2567,3.3425,3.3881,3.3881,3.4295,3.4576,3.4696,3.4696,3.4857,3.5137,3.4951,3.4871,3.4871,3.4871,3.4804,3.4683,0.0,3.4294,3.4281,3.3935,3.3734,3.3614,3.3614,3.3534,3.3414,3.3414,3.3414,3.3427,3.3574,3.3814,3.4082,3.4122,3.4108,3.4015,3.3708,3.3614,3.3494,3.2931,3.2781,3.2714,3.2396,3.2195,3.2072,3.1915,3.1888,3.1848,3.1727,3.1687,3.1687,3.1687,3.1554,3.141,3.137,3.1263,3.1082,3.0684,3.0522,3.0069,2.9023,2.8461,2.8045,2.7835,2.7788,2.7788,2.7788,2.7655,2.7571,2.7571,2.7426,2.7294,2.7185,2.7185,2.7125,2.7016,2.7004,2.6932,2.6787,2.666,2.6388,2.5998,2.6279,2.6454,2.9441,3.0421,3.1146,3.0915,3.0795,3.0511,2.9548,2.8323,2.6907,2.5163,0.0,2.2094,2.2201,2.2722,2.3723,2.5583,0.0,2.9486,2.9784,3.0625,3.141,3.2017,3.3004,3.3922,3.4702,3.5447,3.5967,3.6216,3.4284,3.306,3.2976,3.3729,3.4141,3.4134,3.4642,3.503,3.5244,3.5297,3.5418,3.5605,3.5645,3.5658,3.5658,3.5658,3.5551,3.5297,0.0,0.0,3.4883,3.4523,3.4229,3.4027,3.3961,3.3774,3.3534,3.3494,3.3494,3.3561,3.3761,3.4042,3.4256,3.4068,3.4202,3.4389,3.4095,3.4027,3.3907,3.3345,3.3158,3.3064,3.2835,3.2741,3.261,3.2291,3.2185,3.2078,3.1808,3.1727,3.1687,3.1687,3.1687,3.1767,3.1998,3.1861,3.1614,3.1386,3.1168,3.0665,2.971,2.9084,2.8494,2.7967,2.792,2.792,2.792,2.786,2.7836,2.7836,2.7836,2.7715,2.7462,2.745,2.7342,2.7113,2.7113,2.7113,2.7113,2.7113,2.7113,2.7113,2.7342,2.7595,3.035,3.0889,3.1186,3.1146,3.0795,3.0119,2.8741,2.7101,0.0,0.0,2.1673,2.0481,2.1187,2.1817,2.2903,2.4922,2.7235,2.8951,2.9486,0.0,3.155,0.0,0.0,0.0,0.0,0.0,0.0,0.0,0.0,3.7387,3.5042,3.5322,3.5493,3.5297,3.5405,3.5471,3.5525,3.5792,3.5819,3.5605,3.5872,3.6019,3.6019,3.6019,3.5992,3.5926,0.0,0.0,3.5405,3.4936,3.4682,3.4615,3.4336,3.4215,3.411,3.3895,3.3961,3.407,3.3654,3.3829,3.4323,3.4575,3.4829,3.499,3.4722,3.4642,3.4562,3.4189,3.3908,3.3746,3.3693,3.3454,3.3187,3.2917,3.2663,3.2409,3.2091,3.1861,3.1687,3.1687,3.1687,3.1701,3.1754,3.1727,3.169,3.1635,3.1585,3.1331,3.0726,2.9826,2.9048,2.8535,2.8464,2.8464,2.8464,2.827,2.8137,2.8137,2.7909,2.7764,2.7728,2.7716,2.7704,2.7655,2.7655,2.7655,2.7655,2.7655,2.7655,2.7655,2.7704,2.786,3.0822,3.1236,3.1343,3.0912,3.0364,2.9454,2.7663,0.0,0.0,0.0,2.0349,1.9292,1.9852,2.0559,0.0,2.3834,2.6126,2.7966,2.8804,3.0414,0.0,0.0,0.0,0.0,0.0,0.0,0.0,0.0,0.0,4.031,3.7278,3.6656,3.6321,3.6086,3.5939,3.5939,3.6086,3.6072,3.6072,3.6059,3.6233,3.638,3.6513,3.6513,3.6513,3.65,3.6219,0.0,3.6059,3.5645,3.5377,3.5204,3.5031,3.4884,3.4763,3.4616,3.4563,3.4509,3.4241,3.4202,3.4349,3.4482,3.4629,3.471,3.4576,3.4536,3.4509,3.4362,3.4108,3.3881,3.3881,3.3774,3.3574,3.328,3.3011,3.2741,3.2423,3.2273,3.2179,3.2179,3.2179,3.2179,3.2179,3.2179,3.2179,3.2179,3.2021,3.1699,3.1186,3.0577,2.9878,2.91,2.9028,2.8908,2.862,2.8476,2.8403,2.8403,2.8283,2.815,2.8017,2.8017,2.7956,2.7788,2.7788,2.7788,2.7788,2.7788,2.7788,2.7788,2.7956,2.8162,3.1169,3.149,3.1473,3.0524,2.9802,2.8746,2.652,2.4574,0.0,2.071,1.9093,1.817,1.8623,1.9331,2.0519,0.0,2.4845,2.6779,2.8071,3.0433,3.2651,0.0,0.0,0.0,0.0,0.0,0.0,0.0,0.0,0.0,3.9526,3.8115,3.7252,3.6896,3.6558,3.6409,3.65,3.634,3.634,3.65,3.6553,3.6699,3.6913,3.6913,3.6913,3.6885,3.6687,0.0,0.0,3.6313,3.6032,3.5778,3.5725,3.5578,3.5378,3.5311,3.5217,3.5043,3.4856,3.4642,3.4389,3.4269,3.4243,3.4296,3.4296,3.4337,3.4402,3.431,3.4202,3.408,3.4002,3.4054,3.4027,3.3681,3.3387,3.3118,3.2824,3.2781,3.2781,3.2781,3.2728,3.2688,3.2688,3.2634,3.2594,3.2594,3.2369,3.2027,3.154,3.1282,3.0743,2.9675,2.9447,2.9196,2.8644,2.8596,2.8596,2.8596,2.8596,2.85,2.8283,2.8294,2.8198,2.7993,2.7969,2.7969,2.7969,2.7969,2.7969,2.7993,2.8198,2.8415,3.1487,3.1674,3.142,3.0247,2.9312,2.7982,2.5346,0.0,2.0906,1.9384,1.7689,1.6832,1.7889,1.8397,1.9333,2.1408,2.3474,2.5488,2.7468,3.0677,3.3574,3.5671,0.0,0.0,0.0,0.0,0.0,0.0,0.0,0.0,4.1652,3.9956,3.881,3.8162,3.7578,3.7019,3.6513,3.6726,3.6727,3.65,3.6754,3.6873,3.6913,3.6913,3.6913,3.6913,0.0,0.0,0.0,3.658,3.646,3.6393,3.6139,3.6046,3.5992,3.5685,3.5738,3.5872,3.507,3.4776,3.4655,3.4095,3.4108,3.4296,3.4296,3.4509,3.4696,3.4402,3.4496,3.4642,3.4349,3.4482,3.4629,3.4309,3.4015,3.3746,3.34,3.3334,3.3334,3.3334,3.312,3.2957,3.2957,3.2768,3.2594,3.2594,3.2567,3.2436,3.2059,3.2006,3.1502,3.0177,2.9663,2.9196,2.8644,2.8596,2.8596,2.8596,2.8596,2.8584,2.856,2.856,2.8548,2.8524,2.8524,2.8524,2.8524,2.8524,2.8524,2.8524,2.8548,2.8705,3.0965,3.142,3.1366,2.9993,2.8858,2.7362,2.4716,2.2268,2.013,1.8649,1.7395,1.6739,1.7408,1.7889,1.8824,2.0753,2.2298,2.4137,2.6626,3.0019,3.3012,3.5061,0.0,0.0,0.0,0.0,0.0,0.0,0.0,0.0,4.509,4.249,4.0381,3.8957,3.8058,3.7154,3.6273,3.654,3.662,3.65,3.6766,3.6913,3.6913,3.6913,3.6913,3.6913,0.0,0.0,0.0,3.6779,3.6726,3.6726,3.6619,3.658,3.658,3.6432,3.6352,3.6286,3.5939,3.5471,3.4963,3.4575,3.4281,3.4055,3.4055,3.4135,3.4242,3.4309,3.4282,3.4241,3.4095,3.4148,3.4228,3.4082,3.3975,3.3801,3.348,3.3414,3.3414,3.3414,3.332,3.324,3.324,3.3146,3.3158,3.3345,3.3211,3.3118,3.316,3.3013,3.2421,3.1257,3.0341,2.9495,2.8668,2.8596,2.8596,2.8596,2.8596,2.8596,2.8596,2.8596,2.8596,2.8596,2.8596,2.8596,2.8596,2.8596,2.8596,2.8596,2.8596,2.8657,3.0274,3.1112,3.1326,2.974,2.8457,2.6874,2.4146,2.1686,1.9598,1.8276,1.7235,1.6713,1.7113,1.7502,1.829,1.9908,2.1136,2.2888,2.5736,2.9397,3.2531,0.0,0.0,0.0,0.0,0.0,0.0,0.0,0.0,0.0,0.0,4.4989,4.2565,4.0404,3.9104,3.7849,3.6599,3.668,3.665,3.65,3.6766,3.6913,3.6913,3.6913,3.6913,3.6913,0.0,0.0,0.0,3.6913,3.6913,3.6913,3.6913,3.6913,3.6913,3.6913,3.6766,3.662,3.654,3.6046,3.5378,3.491,3.4416,3.3975,3.3801,3.3814,3.3908,3.4015,3.3908,3.3761,3.3855,3.3881,3.3908,3.4002,3.4015,3.3948,3.3734,3.3681,3.3681,3.3681,3.3614,3.3547,3.3547,3.3467,3.3521,3.3841,3.3694,3.3627,3.3855,3.3694,3.3054,3.1818,3.0955,3.0074,2.9043,2.8946,2.891,2.8837,2.8825,2.8789,2.8717,2.8717,2.8681,2.8596,2.8596,2.8596,2.8596,2.8596,2.8596,2.8596,2.8596,2.8596,2.9606,3.0782,3.1273,2.9464,2.815,2.6533,2.3576,2.1087,1.9133,1.8182,1.7101,1.6497,1.7085,1.7206,1.7582,1.873,1.9933,2.1789,2.488,2.9057,3.2474,0.0,0.0,0.0,0.0,0.0,0.0,0.0,0.0,0.0,0.0,4.7267,4.5463,4.2834,4.1153,3.9453,3.7715,3.7413,3.7019,3.65,3.6766,3.6913,3.6913,3.6913,3.6913,0.0,0.0,0.0,0.0,3.6913,3.6913,3.6913,3.6913,3.6913,3.6913,3.6913,3.6913,3.6873,3.6579,3.6313,3.5952,3.5017,3.4523,3.4176,3.3601,3.3641,3.3828,3.3507,3.3414,3.3494,3.3801,3.3881,3.3961,3.4216,3.4296,3.4283,3.4283,3.4283,3.4283,3.4283,3.4082,3.3881,3.3881,3.3614,3.3521,3.3841,3.3907,3.3907,3.3881,3.3907,3.325,3.1588,3.1399,3.0939,2.9879,2.9779,2.967,2.9417,2.9393,2.9284,2.9019,2.9006,2.8862,2.8608,2.8596,2.8596,2.8596,2.8596,2.8596,2.8596,2.8596,2.8596,2.781,2.8965,2.9477,2.7902,2.6767,2.5417,2.2863,2.0793,1.9133,1.8182,1.7422,1.6965,1.7153,1.7354,1.7862,1.9052,2.01,2.1919,0.0,0.0,0.0,3.4632,0.0,0.0,0.0,0.0,0.0,0.0,0.0,0.0,0.0,4.7616,4.6331,4.4361,4.2377,4.0428,3.8545,3.7875,3.7223,3.65,3.6766,3.6913,3.6913,3.6913,0.0,0.0,0.0,0.0,0.0,3.6913,3.6913,3.6913,3.6913,3.6913,3.6913,3.6913,3.6913,3.6885,3.6806,3.662,3.6286,3.5805,3.5324,3.4803,3.4215,3.3814,3.3534,3.344,3.3414,3.3402,3.3534,3.3561,3.3587,3.3656,3.3669,3.3669,3.3669,3.3669,3.3669,3.3669,3.3627,3.3561,3.3561,3.348,3.3521,3.3841,3.3881,3.3961,3.4162,3.4189,3.3699,3.243,3.2277,3.1541,2.9685,2.9526,2.9489,2.9417,2.9405,2.9284,2.8994,2.8994,2.8862,2.8608,2.8596,2.8596,2.8596,2.8596,2.8596,2.8596,2.8596,2.8596,2.5684,2.7054,2.7688,2.6307,2.5405,2.4262,2.2021,2.0323,1.8985,1.8169,1.7569,1.7233,1.7327,1.7488,1.7996,1.9195,2.0301,2.2169,0.0,0.0,0.0,0.0,0.0,0.0,0.0,0.0,0.0,0.0,0.0,0.0,0.0,4.7982,4.7317,4.6291,4.395,4.1871,4.0015,3.9311,3.8524,3.7629,3.7826,3.7811,3.7577,3.7342,0.0,0.0,0.0,0.0,0.0,3.6913,3.6913,3.6913,3.6913,3.6913,3.6913,3.6913,3.6913,3.6913,3.6913,3.6806,3.658,3.6072,3.5364,3.4629,3.4269,3.3814,3.3414,3.3414,3.3414,3.3414,3.3414,3.3414,3.3414,3.3414,3.3414,3.3414,3.3414,3.3414,3.3414,3.3414,3.3414,3.3414,3.3414,3.3414,3.3521,3.3841,3.3881,3.3988,3.4256,3.4296,3.3858,3.266,3.2545,3.1793,2.9854,2.9803,2.9815,2.9719,2.9707,2.955,2.9175,2.9163,2.8994,2.8608,2.8596,2.8596,2.8596,2.8596,2.8596,2.8596,2.8596,2.8596,0.0,2.4983,2.5905,2.4719,2.4048,2.3121,2.11,1.972,0.0,1.8129,1.7582,1.7326,1.7608,1.7675,1.8102,1.9373,2.0697,0.0,0.0,3.0239,0.0,0.0,0.0,0.0,0.0,0.0,0.0,0.0,0.0,0.0,0.0,4.8292,4.8274,4.8274,4.578,4.368,4.2064,4.1562,4.0793,3.972,3.9759,3.9434,3.8747,3.8142,0.0,0.0,0.0,0.0,0.0,3.6885,3.6885,3.6873,3.6885,3.6913,3.6913,3.6913,3.6913,3.6913,3.6913,3.6885,3.6726,3.5885,3.487,3.3974,3.3947,3.3681,3.3414,3.3414,3.3414,3.3414,3.3414,3.3414,3.3414,3.3414,3.3414,3.3414,3.3414,3.3414,3.3414,3.3414,3.3414,3.3414,3.3414,3.3414,3.3507,3.3814,3.3855,3.3948,3.419,3.423,3.3739,3.2417,3.2252,3.1692,3.0314,3.0443,3.0479,3.0238,3.0188,2.9972,2.9429,2.9405,2.9163,2.8608,2.8596,2.8596,2.8596,2.8596,2.8596,2.8596,2.8596,2.8596,2.0242,0.0,2.3843,2.3109,2.2498,2.1743,0.0,1.9279,1.8477,1.8076,1.7742,1.7661,1.8184,1.8492,1.9229,2.0963,0.0,0.0,0.0,0.0,0.0,0.0,0.0,0.0,0.0,0.0,0.0,0.0,0.0,0.0,0.0,4.8176,4.7827,4.7827,4.6531,4.5446,4.4632,4.4,4.3107,4.1872,4.1632,4.0828,3.9522,3.8827,0.0,0.0,0.0,0.0,3.662,3.6834,3.6766,3.662,3.6805,3.6913,3.6913,3.6913,3.6913,3.6913,3.6913,3.6766,3.6473,3.5818,3.5151,3.4535,3.4282,3.3841,3.3414,3.3414,3.3414,3.3414,3.3414,3.3414,3.3414,3.3414,3.3414,3.3414,3.3414,3.3414,3.3414,3.3414,3.3414,3.3414,3.3414,3.3414,3.344,3.3507,3.3521,3.3547,3.3589,3.3602,3.3172,3.2047,3.1908,3.1466,3.029,3.0274,3.0286,3.0188,3.0188,2.9972,2.9429,2.9405,2.9163,2.8608,2.8596,2.8596,2.8596,2.8596,2.8596,2.8596,2.8596,2.8596,1.9387,2.0738,2.1758,2.132,2.0991,2.0512,1.9439,1.8731,1.8183,1.7889,0.0,0.0,0.0,0.0,0.0,0.0,0.0,0.0,0.0,0.0,0.0,0.0,0.0,0.0,0.0,0.0,0.0,0.0,0.0,0.0,0.0,4.8029,4.7699,4.7699,4.7022,4.638,4.5792,4.5141,4.4435,4.3703,4.2975,4.2029,4.0862,3.967,0.0,0.0,0.0,0.0,3.6085,3.6246,3.6299,3.634,3.662,3.6806,3.6913,3.6913,3.6913,3.6873,3.6766,3.6432,3.6019,3.5698,3.5111,3.4536,3.4362,3.3869,3.3414,3.3414,3.3414,3.344,3.3587,3.3521,3.3454,3.3587,3.3521,3.3414,3.3414,3.3414,3.3414,3.3414,3.3414,3.3414,3.3414,3.3414,3.3414,3.3414,3.3414,3.3414,3.3414,3.3414,3.2988,3.192,3.1794,3.1365,3.029,3.0188,3.0188,3.0188,3.0188,2.9995,2.9598,2.9586,2.9332,2.8789,2.8777,2.8777,2.8777,2.8898,2.8982,2.8982,2.8982,2.8982,1.9536,2.0177,2.042,2.0282,2.03,2.0113,1.9271,1.8822,1.8523,0.0,0.0,0.0,0.0,2.0437,0.0,0.0,0.0,0.0,0.0,0.0,0.0,0.0,0.0,0.0,0.0,0.0,0.0,0.0,0.0,0.0,0.0,4.7754,4.7516,4.7516,4.713,4.6677,4.6177,4.5766,4.5489,4.5317,4.4304,4.3353,4.2461,4.0762,3.9187,0.0,0.0,0.0,3.5471,3.5525,3.5712,3.5992,3.6259,3.654,3.6766,3.6766,3.6766,3.6726,3.6473,3.6019,3.5591,3.5551,3.4977,3.4296,3.4296,3.3869,3.3427,3.3467,3.348,3.3547,3.3814,3.3721,3.3614,3.3828,3.3681,3.3467,3.3427,3.3414,3.344,3.3534,3.3547,3.3574,3.3668,3.3656,3.3656,3.3656,3.3614,3.3547,3.3547,3.3467,3.2988,3.192,3.1794,3.1365,3.029,3.0188,3.0188,3.0188,3.0188,3.0093,2.9803,2.9719,2.9489,2.9055,2.9006,2.9006,2.9042,2.9296,2.9405,2.9405,2.9405,2.9405,1.9501,2.0744,2.1743,2.2143,2.2499,2.2588,2.1874,2.1511,2.1205,2.0884,0.0,0.0,0.0,2.3546,0.0,0.0,0.0,0.0,0.0,0.0,0.0,0.0,0.0,0.0,0.0,0.0,0.0,0.0,0.0,0.0,0.0,0.0,4.6678,4.6678,4.6287,4.6197,4.6438,4.7034,4.7137,4.6761,4.6318,4.5342,4.3917,4.2121,4.0171,0.0,0.0,3.6016,3.4858,3.5124,3.5284,3.5364,3.5618,3.5939,3.6233,3.6233,3.6233,3.6193,3.5845,3.5685,3.5565,3.5351,3.483,3.4296,3.4296,3.3869,3.3467,3.3734,3.3814,3.3853,3.3907,3.4028,3.4135,3.3935,3.3855,3.3748,3.3467,3.3414,3.3536,3.4056,3.415,3.431,3.483,3.4923,3.4923,3.4923,3.4496,3.415,3.415,3.3734,3.2988,3.192,3.1794,3.1365,3.029,3.0188,3.0188,3.0188,3.0188,3.0093,2.9803,2.9369,2.92,2.9344,2.9127,2.9103,2.9344,2.9381,2.9405,2.9405,2.9405,2.9405,1.971,2.0988,2.229,2.3915,2.4701,2.4968,2.4455,2.4313,2.4107,0.0,0.0,0.0,0.0,0.0,0.0,0.0,0.0,0.0,0.0,0.0,0.0,0.0,0.0,0.0,0.0,0.0,0.0,0.0,0.0,0.0,0.0,0.0,4.6494,4.6494,4.6109,4.5999,4.6182,4.6525,4.6727,4.6764,4.6115,4.5386,4.4557,4.2849,4.1181,3.9516,0.0,3.653,3.5128,3.4996,3.4835,3.475,3.5044,3.5338,3.5591,3.5591,3.5591,3.5578,3.5444,3.5364,3.5378,3.5244,3.4803,3.4296,3.4296,3.3869,3.348,3.3826,3.3881,3.3987,3.4308,3.4336,3.4296,3.4375,3.4268,3.4082,3.3909,3.4028,3.4229,3.447,3.4657,3.4883,3.5151,3.5191,3.5191,3.5191,3.4963,3.4683,3.4337,3.4056,3.3445,3.2349,3.2234,3.1794,3.0708,3.0644,3.0518,3.0214,3.0188,3.0128,3.0033,2.9646,2.9489,2.961,2.9501,2.9501,2.9622,2.9767,2.9814,2.9814,2.9814,2.9814,1.9723,2.0885,2.2316,2.4965,0.0,2.697,2.6918,2.7191,0.0,0.0,0.0,0.0,0.0,0.0,0.0,0.0,0.0,0.0,0.0,0.0,0.0,0.0,0.0,0.0,0.0,0.0,0.0,0.0,0.0,0.0,0.0,0.0,4.6366,4.6366,4.6072,4.5883,4.5883,4.5883,4.603,4.6366,4.5628,4.5225,4.5083,4.3617,4.2313,4.1093,3.9166,3.7347,3.5687,3.5023,3.4558,3.4242,3.4495,3.4762,3.499,3.499,3.499,3.5004,3.507,3.5123,3.5137,3.5177,3.4803,3.4296,3.4296,3.3869,3.3494,3.3881,3.3988,3.4108,3.4655,3.4669,3.4563,3.4749,3.4589,3.4402,3.431,3.4549,3.4829,3.4911,3.5164,3.5444,3.5578,3.5605,3.5578,3.5511,3.5444,3.5191,3.4603,3.4469,3.401,3.2923,3.2755,3.2261,3.11,3.0885,3.0644,3.0239,3.0188,3.0188,3.0188,2.9948,2.9827,2.9888,2.9827,2.9827,2.99,3.0105,3.0188,3.0188,3.0188,3.0188,1.9263,2.0307,2.1769,2.469,2.6822,2.8362,2.9093,3.0088,0.0,3.084,0.0,0.0,0.0,0.0,0.0,0.0,0.0,0.0,0.0,0.0,0.0,0.0,0.0,0.0,0.0,0.0,0.0,0.0,0.0,0.0,0.0,0.0,0.0,4.5938,4.5925,4.5883,4.5883,4.5883,4.5902,4.5938,4.5878,4.5831,4.5797,4.4756,4.3667,4.2525,4.0481,3.8369,3.635,3.5387,3.4558,3.3921,3.3974,3.4122,3.435,3.435,3.435,3.4429,3.4722,3.4816,3.4869,3.511,3.4803,3.4296,3.4296,3.3869,3.3509,3.4096,3.4256,3.4362,3.4709,3.4976,3.507,3.4843,3.4776,3.4682,3.4376,3.4549,3.495,3.5431,3.5805,3.6179,3.6699,3.6779,3.6699,3.6432,3.6179,3.5832,3.5204,3.4923,3.4421,3.3523,3.3223,3.2505,3.1112,3.0543,3.0239,3.0188,3.0188,3.0188,3.0188,2.9948,2.9924,3.0177,2.9924,2.9924,3.0164,3.0176,3.0188,3.0188,3.0188,3.0188,2.0279,2.0993,2.2149,2.5156,2.749,0.0,0.0,3.279,3.4324,3.4342,3.4827,0.0,0.0,0.0,0.0,0.0,0.0,0.0,0.0,0.0,0.0,0.0,0.0,0.0,0.0,0.0,0.0,0.0,0.0,0.0,0.0,0.0,0.0,4.5883,4.5883,4.5883,4.5883,4.5883,4.5883,4.5902,4.6164,4.6145,4.5878,4.5429,4.4679,4.3711,4.1898,4.0117,3.8411,3.7396,3.6423,3.5568,3.5568,3.5638,3.5726,3.5726,3.5839,3.5998,3.6111,3.6306,3.649,3.6617,3.6337,3.5984,3.5984,3.5698,3.5511,3.6173,3.6357,3.6138,3.5276,3.511,3.5164,3.5057,3.5057,3.5004,3.4897,3.5097,3.5364,3.5565,3.5872,3.6166,3.6366,3.6393,3.6366,3.6287,3.6166,3.5885,3.5271,3.5097,3.4765,3.4079,3.3454,3.2875,3.234,3.1313,3.0695,3.0695,3.0391,3.0188,3.0188,3.0117,3.0105,3.0188,3.0117,3.0105,3.0188,3.0188,3.0188,3.0188,3.0188,3.0188,2.1006,2.1513,2.2515,2.5367,0.0,0.0,3.2471,3.5047,3.7062,3.7466,3.842,0.0,0.0,0.0,0.0,0.0,0.0,0.0,0.0,0.0,0.0,0.0,0.0,0.0,0.0,0.0,0.0,0.0,0.0,0.0,0.0,0.0,0.0,0.0,4.5883,4.5883,4.5883,4.5883,4.5883,4.5902,4.6311,4.6292,4.5902,4.5803,4.5429,4.4774,4.3353,4.197,4.0602,3.9583,3.8534,3.7593,3.7593,3.7593,3.7593,3.7593,3.7679,3.7864,3.7944,3.8124,3.8334,3.8414,3.8219,3.7974,3.7974,3.7799,3.7728,3.839,3.857,3.8366,3.7469,3.6609,3.5954,3.577,3.5586,3.5401,3.5257,3.5391,3.5605,3.5605,3.5872,3.6099,3.6099,3.618,3.6153,3.5965,3.6166,3.6072,3.5297,3.5364,3.5244,3.4656,3.3938,3.3432,3.3249,3.1959,3.1111,3.1024,3.0492,3.0188,3.0188,3.0188,3.0188,3.0188,3.0188,3.0188,3.0188,3.0188,3.0188,3.0188,3.0188,3.0188,2.1235,2.1675,2.2726,0.0,0.0,0.0,3.3963,3.675,3.8966,4.0274,0.0,0.0,0.0,0.0,0.0,0.0,0.0,0.0,0.0,0.0,0.0,0.0,0.0,0.0,0.0,0.0,0.0,0.0,0.0,0.0,0.0,0.0,0.0,0.0,4.5883,4.5883,4.5883,4.5883,4.5883,4.5902,4.6311,4.6292,4.5883,4.5902,4.5902,4.5836,4.4821,4.3806,4.2727,4.1655,4.0642,3.9721,3.9721,3.9721,3.9721,3.9721,3.9721,3.9769,4.0045,4.0132,4.0171,4.0429,4.0343,4.0132,4.0132,3.9943,3.9864,4.0548,4.0714,4.0889,4.1563,3.9754,3.7617,3.7042,3.6453,3.5849,3.5336,3.5391,3.5605,3.5605,3.5859,3.6086,3.6086,3.6299,3.6299,3.5685,3.6339,3.6473,3.5351,3.5738,3.5872,3.5271,3.4729,3.4163,3.3576,3.2301,3.136,3.1036,3.0518,3.0214,3.0188,3.0188,3.0188,3.0188,3.0188,3.0188,3.0188,3.0188,3.0188,3.0188,3.0188,3.0188,2.3255,2.401,0.0,2.7704,0.0,0.0,0.0,3.8359,0.0,0.0,0.0,0.0,0.0,0.0,0.0,0.0,0.0,0.0,0.0,0.0,0.0,0.0,0.0,0.0,0.0,0.0,0.0,0.0,0.0,0.0,0.0,0.0,0.0,0.0,4.5883,4.5883,4.5883,4.5883,4.5883,4.5883,4.6035,4.6035,4.5902,4.6201,4.6182,4.586,4.5176,4.4537,4.383,4.2786,4.2145,4.1881,4.1881,4.1881,4.1881,4.1881,4.1881,4.1898,4.1967,4.2,4.2017,4.2093,4.206,4.2,4.2,4.1941,4.2032,4.2745,4.2946,4.313,4.3892,4.2925,4.1135,3.8615,3.7315,3.6374,3.5401,3.5271,3.5324,3.5324,3.5391,3.5484,3.5484,3.5525,3.5525,3.5351,3.5551,3.5658,3.5485,3.5658,3.5778,3.5832,3.5312,3.4887,3.4701,3.342,3.2583,3.2467,3.1402,3.0594,3.0214,3.0188,3.0188,3.0188,3.0188,3.0188,3.0188,3.0188,3.0188,3.0188,3.0188,3.0188,2.4814,2.6148,0.0,3.0273,3.2995,3.5933,3.9357,0.0,0.0,0.0,0.0,0.0,0.0,0.0,0.0,0.0,0.0,0.0,0.0,0.0,0.0,0.0,0.0,0.0,0.0,0.0,0.0,0.0,0.0,0.0,0.0,0.0,0.0,0.0,4.5883,4.5883,4.5883,4.5883,4.5883,4.5883,4.5883,4.5883,4.5902,4.6164,4.6145,4.5883,4.5554,4.5247,4.4939,4.4305,4.4044,4.4044,4.4044,4.4044,4.4044,4.4044,4.4044,4.4044,4.4044,4.4044,4.4044,4.4044,4.4044,4.4044,4.4044,4.4044,4.4167,4.4759,4.5058,4.5322,4.5963,4.5469,4.3916,4.059,3.8993,3.7889,3.6754,3.6518,3.6518,3.6518,3.6334,3.6138,3.5902,3.5799,3.5602,3.5244,3.5191,3.5351,3.5752,3.5805,3.5912,3.6246,3.5845,3.5498,3.5378,3.4162,3.3315,3.3106,3.1896,3.0983,3.0543,3.0315,3.0188,3.0188,3.0188,3.0188,3.0188,3.0188,3.0188,3.0188,3.0188,3.0188,2.6007,2.8034,3.0293,3.2754,3.5595,0.0,4.3224,0.0,0.0,0.0,0.0,0.0,0.0,0.0,0.0,0.0,0.0,0.0,0.0,0.0,0.0,0.0,0.0,0.0,0.0,0.0,0.0,0.0,0.0,0.0,0.0,0.0,0.0,0.0,4.5852,4.5834,4.5797,4.5797,4.5797,0.0,4.5797,4.5797,4.5773,4.5889,4.5883,4.5883,4.5883,4.5883,4.5883,4.5883,4.5883,4.5883,4.5883,4.5883,4.5883,4.5883,4.5883,4.5883,4.5883,4.5883,4.5883,4.5883,4.5883,4.5883,4.5883,4.5883,4.5975,4.6384,4.6764,4.7149,4.7589,4.7216,4.5948,4.296,4.134,4.0182,3.9045,3.8785,3.8785,3.8785,3.8332,3.7721,3.7146,3.6754,3.6215,3.5309,3.5137,3.5324,3.5939,3.6019,3.6139,3.6433,3.6233,3.5925,3.5631,3.4623,3.3758,3.3247,3.2175,3.1424,3.1074,3.0518,3.0188,3.0188,3.0188,3.0188,3.0188,3.0188,3.0188,3.0188,3.0188,3.0188,2.6893,2.9016,0.0,0.0,3.7722,4.1519,4.438,4.504,0.0,0.0,0.0,0.0,0.0,0.0,0.0,0.0,0.0,0.0,0.0,0.0,0.0,0.0,0.0,0.0,0.0,0.0,0.0,0.0,0.0,0.0,0.0,0.0,0.0,4.5443,4.5425,4.5283,4.4953,4.4953,4.4953,0.0,4.4953,4.4953,4.4971,4.5613,4.5883,4.5883,4.5883,4.5883,4.5883,4.5883,4.5883,4.5883,4.5883,4.5883,4.5883,4.5883,4.5883,4.5883,4.5883,4.5883,4.5883,4.5883,4.5883,4.5883,4.5883,4.5883,4.5975,4.6384,4.6567,4.6806,4.7497,4.7288,4.665,4.5838,4.4127,4.2383,4.1242,4.1011,4.1011,4.1011,4.0245,3.9278,3.8329,3.741,3.6387,3.508,3.4656,3.4723,3.5311,3.5391,3.5591,3.6139,3.5899,3.5672,3.5605,3.4992,3.4447,3.4062,3.2853,3.1984,3.1655,3.072,3.0188,3.0188,3.0188,3.0188,3.0188,3.0188,3.0188,3.0188,3.0188,3.0188,2.7403,3.0007,0.0,3.7411,0.0,4.3522,4.4966,4.5443,0.0,0.0,0.0,0.0,0.0,0.0,0.0,0.0,0.0,0.0,0.0,0.0,0.0,0.0,0.0,0.0,0.0,0.0,0.0,0.0,0.0,0.0,0.0,4.5883,4.5792,4.559,4.559,4.5388,4.5008,4.499,4.4898,4.4696,4.4696,4.4806,4.5008,4.5407,4.5608,4.5608,4.581,4.5883,4.5883,4.5883,4.5883,4.5883,4.5883,4.5883,4.5883,4.5883,4.5883,4.5883,4.5883,4.5883,4.5883,4.5883,4.5883,4.5883,4.5883,4.5883,4.5938,4.614,4.6347,4.6604,4.7026,4.7065,4.6973,4.6903,4.572,4.4405,4.3776,4.363,4.368,4.3845,4.3018,4.1905,4.0797,3.9083,3.7522,3.6364,3.582,3.5628,3.5801,3.5563,3.5578,3.6046,3.5805,3.5605,3.5605,3.5231,3.479,3.4323,3.3162,3.2277,3.1832,3.0771,3.0188,3.0188,3.0188,3.0188,3.0188,3.0188,3.0188,3.0188,3.0188,3.0188,2.7522,3.105,3.5266,4.0898,4.3412,0.0,4.5168,4.5553,4.581,0.0,0.0,0.0,0.0,0.0,0.0,0.0,0.0,0.0,0.0,0.0,0.0,0.0,0.0,0.0,0.0,0.0,0.0,0.0,0.0,0.0,4.5883,4.5883,4.5889,4.5792,4.5792,4.5572,4.5095,4.5095,4.4875,4.4494,4.4494,4.4714,4.5095,4.515,4.5278,4.5425,4.5755,4.5883,4.5883,4.5883,4.5883,4.5883,4.5883,4.5883,4.5883,4.5883,4.5883,4.5883,4.5883,4.5883,4.5883,4.5883,4.5883,4.5883,4.5883,4.5883,4.5883,4.5883,4.6145,4.6421,4.6476,4.6751,4.702,4.7094,4.6639,4.6193,4.6166,4.6256,4.6437,4.6706,4.5608,4.4316,4.3182,4.0978,3.9085,3.8184,3.7448,3.6881,3.6531,3.5883,3.5591,3.5912,3.5698,3.5525,3.5525,3.5338,3.495,3.4337,3.3304,3.243,3.1807,3.0771,3.0188,3.0188,3.0188,3.0188,3.0188,3.0188,3.0188,3.0188,3.0188,3.0188,2.71,3.2258,3.7722,0.0,4.299,4.394,0.0,0.0,4.548,0.0,0.0,0.0,0.0,0.0,0.0,0.0,0.0,0.0,0.0,0.0,0.0,0.0,0.0,0.0,0.0,0.0,0.0,0.0,0.0,0.0,4.5883,4.5883,4.5737,4.5388,4.5388,4.5021,4.4274,4.4274,4.4072,4.3646,4.3646,4.3889,4.4274,4.4623,4.5173,4.581,4.5865,4.5883,4.5883,4.5883,4.5883,4.5883,4.5883,4.5883,4.5883,4.5883,4.5883,4.5883,4.5883,4.5883,4.5883,4.5883,4.5883,4.5883,4.5883,4.5883,4.5883,4.5883,4.5944,4.6072,4.6402,4.6549,4.6678,4.702,4.7272,4.7563,4.7871,4.8482,4.89,4.861,4.6594,4.4591,4.3524,4.2034,4.0636,3.9597,3.8336,3.7232,3.6507,3.5522,3.5016,3.5284,3.5271,3.5257,3.5257,3.5217,3.495,3.4337,3.3304,3.243,3.1807,3.0771,3.0188,3.0188,3.0188,3.0188,3.0188,3.0188,3.0188,3.0188,3.0188,3.0188,2.9173,3.4037,3.851,0.0,4.3246,4.4141,4.5352,0.0,0.0,0.0,0.0,0.0,0.0,0.0,0.0,0.0,0.0,0.0,0.0,0.0,0.0,0.0,0.0,0.0,0.0,0.0,0.0,0.0,0.0,4.5883,4.5883,4.5883,4.581,4.5645,4.5627,4.5242,4.4439,4.4439,4.4127,4.3499,4.3499,4.3834,4.4439,4.4623,4.5026,4.5553,4.5553,4.5682,4.5865,4.5645,4.57,4.5883,4.5883,4.5883,4.5883,4.5883,4.5883,4.5883,4.5883,4.5883,4.5883,4.5883,4.5883,4.5883,4.5883,4.5883,4.5883,4.5883,4.5883,4.5944,4.6127,4.6164,4.6219,4.6379,4.7075,4.7736,4.7944,4.8598,4.9083,4.8842,4.7591,4.6263,4.5311,4.4337,4.3265,4.1977,4.0734,3.9479,3.8202,3.6831,3.5882,3.5678,3.5375,3.5137,3.499,3.4976,3.4736,3.4108,3.3071,3.2264,3.1832,3.0771,3.0188,3.0188,3.0188,3.0188,3.0188,3.0188,3.0188,3.0188,3.0188,3.0188,3.0332,3.433,3.7685,4.0861,4.2347,4.3353,0.0,0.0,0.0,0.0,0.0,0.0,0.0,0.0,0.0,0.0,0.0,0.0,0.0,0.0,0.0,0.0,0.0,0.0,0.0,0.0,0.0,0.0,0.0,4.5988,4.5778,4.5828,4.5847,4.5737,4.5852,4.5522,4.4696,4.4494,4.409,4.3499,4.3499,4.387,4.4549,4.4549,4.4824,4.5315,4.5407,4.5608,4.5865,4.5572,4.5627,4.5883,4.5883,4.5883,4.5883,4.5883,4.5883,4.5883,4.5883,4.5883,4.5883,4.5883,4.5883,4.5883,4.5883,4.5883,4.5883,4.5883,4.5883,4.5883,4.5883,4.5883,4.5883,4.5883,4.6745,4.7662,4.8066,4.8561,4.8875,4.8788,4.8302,4.771,4.7071,4.6563,4.5826,4.4447,4.3307,4.1965,4.0157,3.8396,3.7028,3.6322,3.5612,3.5084,3.4816,3.4789,3.4535,3.3947,3.3004,3.2366,3.2021,3.1087,3.0619,3.0619,3.0528,3.0401,3.0188,3.0261,3.0285,3.0285,3.0285,3.0285,2.895,3.1836,3.4697,3.7558,3.9133,4.0473,0.0,0.0,0.0,0.0,0.0,0.0,0.0,0.0,0.0,0.0,0.0,0.0,0.0,0.0,0.0,0.0,0.0,0.0,0.0,0.0,0.0,0.0,0.0,4.6187,4.5375,4.5682,4.5718,4.5352,4.57,4.5522,4.4696,4.3944,4.3536,4.3499,4.3499,4.3719,4.4146,4.4146,4.4545,4.5315,4.57,4.5865,4.5883,4.5865,4.5865,4.5883,4.5883,4.5883,4.5883,4.5883,4.5883,4.5883,4.5883,4.5883,4.5883,4.5883,4.5883,4.5883,4.5883,4.5883,4.5883,4.5883,4.5883,4.5883,4.5883,4.5883,4.5883,4.5883,4.6525,4.7552,4.9074,4.9148,4.8903,4.8896,4.8566,4.8266,4.8223,4.8198,4.7783,4.6676,4.5564,4.406,4.193,3.978,3.8017,3.6963,3.5875,3.5084,3.4816,3.4789,3.4535,3.3947,3.336,3.2911,3.2574,3.2021,3.1718,3.1718,3.1463,3.0966,3.0188,3.0467,3.0588,3.0588,3.0588,3.0588,2.7132,2.9357,3.1724,3.4276,3.6017,3.774,4.0162,4.1427,0.0,0.0,0.0,0.0,0.0,0.0,0.0,0.0,0.0,0.0,0.0,0.0,0.0,0.0,0.0,0.0,0.0,0.0,0.0,0.0,0.0,0.0,4.4958,4.5045,4.5063,4.4934,4.5063,4.4861,4.4329,4.3756,4.3499,4.3499,4.3499,4.3701,4.4109,4.4109,4.4402,4.4934,4.5333,4.5645,4.5865,4.5608,4.5663,4.5883,4.5883,4.5883,4.5883,4.5883,4.5883,4.5883,4.5883,4.5883,4.5883,4.5883,4.5883,4.5883,4.5883,4.5883,4.5883,4.5883,4.5883,4.5883,4.5883,4.5883,4.603,4.6544,4.6892,4.7406,4.8487,4.8818,4.8811,4.8561,4.8396,4.8311,4.8311,4.8311,4.8038,4.7335,4.6576,4.543,4.3654,4.176,4.0117,3.8763,3.7653,3.6639,3.5774,3.5427,3.4917,3.4129,3.3272,3.2716,3.2586,3.2083,3.1794,3.1794,3.1364,3.1096,3.0966,3.0875,3.0769,3.0612,3.0612,3.0515,2.5425,2.7169,2.9082,0.0,3.2901,3.4862,3.741,0.0,0.0,0.0,0.0,0.0,0.0,0.0,0.0,0.0,0.0,0.0,0.0,0.0,0.0,0.0,0.0,0.0,0.0,0.0,0.0,0.0,0.0,0.0,4.454,4.4623,4.4696,4.4696,4.4568,4.4366,4.4109,4.3701,4.3499,4.3499,4.3499,4.3628,4.3907,4.3907,4.4127,4.4512,4.4911,4.5315,4.5682,4.5553,4.5645,4.5883,4.5883,4.5883,4.5883,4.5883,4.5883,4.5883,4.5883,4.5883,4.5883,4.5883,4.5883,4.5883,4.5883,4.5883,4.5883,4.5883,4.5883,4.592,4.6072,4.6195,4.647,4.7149,4.7314,4.7479,4.8164,4.8506,4.8616,4.8366,4.8311,4.8311,4.8311,4.8311,4.8187,4.7833,4.7467,4.6726,4.5297,4.3814,4.2321,4.0844,3.9678,3.8491,3.7109,3.6389,3.5559,3.4527,3.3557,3.3045,3.3045,3.2783,3.2593,3.2515,3.1896,3.1615,3.1664,3.1142,3.0817,3.0733,3.0648,3.0467,0.0,0.0,0.0,0.0,0.0,0.0,3.378,0.0,0.0,0.0,0.0,0.0,0.0,0.0,0.0,0.0,0.0,0.0,0.0,0.0,0.0,0.0,0.0,0.0,0.0,0.0,0.0,0.0,0.0,4.5476,4.4154,4.4457,4.4659,4.4659,4.4292,4.409,4.409,4.3705,4.3499,4.3499,4.3499,4.3499,4.3499,4.3499,4.3701,4.4109,4.4512,4.4916,4.5297,4.5718,4.5883,4.5883,4.5883,4.5883,4.5883,4.5883,4.5883,4.5883,4.5883,4.5883,4.5883,4.5883,4.5883,4.5883,4.5883,4.5883,4.5883,4.5883,4.5883,4.5975,4.6402,4.68,4.7204,4.7607,4.7699,4.7809,4.8219,4.8311,4.8311,4.8311,4.8311,4.8311,4.8311,4.8311,4.8311,4.8292,4.8292,4.7902,4.6815,4.5705,4.4471,4.2989,4.1828,4.0485,3.8785,3.767,3.6456,3.5099,3.4313,3.3881,3.3881,3.4162,3.4189,3.392,3.3097,3.2532,3.2226,3.1151,3.0771,3.1012,3.0746,3.0455,2.2673,0.0,0.0,0.0,0.0,0.0,0.0,0.0,0.0,0.0,0.0,0.0,0.0,0.0,0.0,0.0,0.0,0.0,0.0,0.0,0.0,0.0,0.0,0.0,0.0,0.0,0.0,0.0,4.5242,4.4763,4.3732,4.3756,4.3829,4.3829,4.3719,4.3687,4.3687,4.3554,4.3499,4.3499,4.3499,4.3499,4.3499,4.3499,4.3554,4.3683,4.409,4.4329,4.4512,4.548,4.5883,4.5883,4.5883,4.5883,4.5883,4.5883,4.5883,4.5883,4.5883,4.5883,4.5883,4.5883,4.5883,4.5883,4.5883,4.5883,4.5883,4.5883,4.5883,4.5975,4.6402,4.68,4.7204,4.7607,4.7699,4.7809,4.8219,4.8311,4.8311,4.8311,4.8311,4.8311,4.8311,4.8311,4.8219,4.7901,4.7889,4.7509,4.6533,4.5793,4.4948,4.3905,4.3145,4.1964,4.0115,3.8633,3.7175,3.5657,3.4514,3.3881,3.3881,3.4162,3.4189,3.392,3.2929,3.252,3.2774,3.1902,3.1411,3.1263,3.1005,3.0629,2.2687,2.2797,0.0,0.0,0.0,0.0,0.0,2.9929,0.0,0.0,0.0,0.0,0.0,0.0,0.0,0.0,0.0,0.0,0.0,0.0,0.0,0.0,0.0,0.0,0.0,0.0,0.0,4.5503,4.5436,4.5103,4.4387,4.4163,4.3978,4.3811,4.3611,4.3499,4.3499,4.3499,4.3499,4.3499,4.3499,4.3499,4.3499,4.3499,4.3499,4.3518,4.3944,4.4109,4.4182,4.5205,4.5645,4.5663,4.5828,4.5883,4.5883,4.5883,4.5883,4.5883,4.5883,4.5883,4.5883,4.5883,4.5883,4.5883,4.5883,4.5883,4.5883,4.5883,4.6035,4.6219,4.6439,4.68,4.7167,4.7387,4.7442,4.7516,4.7736,4.7791,4.7882,4.8212,4.8311,4.8311,4.8311,4.8311,4.8157,4.7754,4.7699,4.743,4.6713,4.6512,4.6166,4.5481,4.5231,4.4261,4.2091,4.024,3.844,3.6657,3.5127,3.4281,3.4281,3.4536,3.4482,3.4068,3.3237,3.2801,3.2821,3.192,3.1383,3.1222,3.1061,3.072,2.3584,2.3651,0.0,0.0,0.0,0.0,2.559,2.7797,0.0,0.0,0.0,0.0,0.0,0.0,0.0,0.0,0.0,0.0,0.0,0.0,0.0,0.0,0.0,0.0,0.0,4.6172,4.6111,4.5994,4.5944,4.5744,4.5322,4.4831,4.4454,4.4137,4.3671,4.3444,4.3499,4.3499,4.3518,4.3554,4.3554,4.3554,4.3554,4.3554,4.3536,4.3518,4.3889,4.4035,4.4109,4.4893,4.526,4.5333,4.5737,4.5883,4.5883,4.5883,4.5883,4.5883,4.5883,4.5883,4.5883,4.5883,4.5883,4.5883,4.5883,4.5883,4.5883,4.5883,4.6201,4.6494,4.6494,4.68,4.7112,4.7112,4.7112,4.7112,4.7112,4.7112,4.7314,4.8035,4.8182,4.8182,4.8182,4.8182,4.8035,4.7626,4.7552,4.7424,4.702,4.7314,4.7424,4.7075,4.7387,4.6606,4.4104,4.194,3.9821,3.773,3.583,3.4776,3.4736,3.5016,3.487,3.4256,3.3753,3.3196,3.2586,3.1643,3.1188,3.1188,3.1188,3.086,2.4825,2.4562,2.414,0.0,0.0,0.0,0.0,2.5478,2.7762,0.0,0.0,0.0,0.0,0.0,0.0,0.0,0.0,0.0,0.0,0.0,0.0,0.0,0.0,0.0,0.0,4.5252,4.5098,4.4703,4.4317,4.4079,4.3993,4.3537,4.3367,4.3624,4.3228,4.3173,4.3499,4.3499,4.3646,4.3976,4.3976,4.3976,4.3976,4.3976,4.3815,4.3499,4.3573,4.3632,4.3664,4.4494,4.5026,4.5333,4.5737,4.5883,4.5883,4.5883,4.5883,4.5883,4.5883,4.5883,4.5883,4.5883,4.5883,4.5883,4.5883,4.5883,4.5883,4.5883,4.6201,4.6494,4.6494,4.68,4.7112,4.7112,4.7112,4.7112,4.7112,4.7112,4.7149,4.7314,4.7332,4.7332,4.7332,4.7332,4.7204,4.6806,4.6733,4.6604,4.6201,4.6494,4.6714,4.6641,4.6965,4.6318,4.4087,4.194,3.9821,3.773,3.583,3.4682,3.4416,3.4722,3.4602,3.3988,3.362,3.3144,3.2586,3.2385,3.2285,3.2285,3.2285,3.1769,2.6141,2.5714,2.5089,2.5095,0.0,0.0,0.0,0.0,0.0,0.0,0.0,0.0,0.0,0.0,0.0,0.0,0.0,0.0,0.0,0.0,0.0,0.0,0.0,0.0,0.0,4.4998,4.501,4.4989,4.4967,4.4857,4.4645,4.4214,4.3933,4.3909,4.3444,4.3298,4.3497,4.3703,4.3907,4.4109,4.4311,4.4292,4.4109,4.4109,4.3866,4.3499,4.3499,4.3499,4.3554,4.4366,4.4824,4.5063,4.5645,4.5883,4.5883,4.5883,4.5883,4.5883,4.5883,4.5883,4.5883,4.5883,4.5883,4.5883,4.5883,4.5883,4.5883,4.5883,4.6054,4.6201,4.6201,4.6342,4.6507,4.6507,4.6507,4.6507,4.6507,4.6507,4.6507,4.6507,4.6507,4.6635,4.7039,4.7277,4.7259,4.6855,4.6965,4.6947,4.6544,4.6837,4.7118,4.7118,4.7461,4.6823,4.4679,4.248,4.0309,3.8185,3.6135,3.4843,3.4549,3.4709,3.4508,3.3895,3.3574,3.3263,3.3013,3.3013,3.2862,3.2586,3.2586,3.2046,0.0,0.0,0.0,0.0,0.0,2.4678,0.0,0.0,0.0,0.0,0.0,0.0,0.0,0.0,0.0,0.0,0.0,0.0,0.0,0.0,0.0,0.0,0.0,0.0,0.0,4.4452,4.4647,4.5041,4.5371,4.5449,4.5217,4.4847,4.4448,4.4051,4.3536,4.3301,4.3381,4.3696,4.3944,4.4109,4.4421,4.4421,4.4109,4.4109,4.3866,4.3499,4.3499,4.3499,4.3554,4.4366,4.4696,4.4769,4.5595,4.5883,4.5883,4.5883,4.5883,4.5883,4.5883,4.5883,4.5883,4.5883,4.5883,4.5883,4.5883,4.5883,4.5883,4.5883,4.5883,4.5883,4.5883,4.5883,4.5883,4.5883,4.5883,4.5883,4.5883,4.5957,4.6035,4.6035,4.6067,4.6287,4.6782,4.7204,4.7351,4.7039,4.7332,4.7461,4.7149,4.7442,4.7699,4.7699,4.8047,4.7406,4.5193,4.2922,4.0697,3.8479,3.6315,3.4963,3.4642,3.4562,3.4308,3.3801,3.3547,3.3414,3.3414,3.3414,3.3188,3.2762,3.2762,3.2234,0.0,0.0,0.0,0.0,2.6159,0.0,0.0,0.0,0.0,0.0,0.0,0.0,0.0,0.0,0.0,0.0,0.0,0.0,0.0,0.0,0.0,0.0,0.0,0.0,0.0,0.0,4.2734,4.2773,4.2812,4.2987,4.338,4.3357,4.3266,4.3147,4.2694,4.2617,4.2967,4.2993,4.3393,4.4109,4.4146,4.4146,4.4109,4.4109,4.3866,4.3499,4.3499,4.3499,4.3554,4.4366,4.4696,4.4769,4.5595,4.5883,4.5883,4.5883,4.5883,4.5883,4.5883,4.5883,4.5883,4.5883,4.5883,4.5883,4.5883,4.5883,4.5883,4.5883,4.5883,4.5883,4.5883,4.5883,4.5883,4.5883,4.5883,4.5883,4.5883,4.6182,4.6439,4.6439,4.6709,4.6764,4.614,4.6384,4.6623,4.6586,4.691,4.7149,4.7112,4.7442,4.7699,4.7699,4.8047,4.7304,4.4865,4.2621,4.0297,3.7847,3.59,3.4589,3.404,3.3721,3.3534,3.3467,3.3427,3.3414,3.3414,3.3414,3.3364,3.3314,3.3314,3.2988,0.0,0.0,0.0,0.0,0.0,0.0,0.0,0.0,2.5175,0.0,0.0,0.0,0.0,0.0,0.0,0.0,0.0,0.0,0.0,0.0,0.0,0.0,0.0,0.0,0.0,0.0,0.0,0.0,0.0,4.1601,4.2325,4.2581,4.2812,4.3046,4.2577,4.2369,4.2549,4.3008,4.343,4.3779,4.4237,4.4329,4.4109,4.4109,4.3866,4.3499,4.3499,4.3499,4.3554,4.4366,4.4696,4.4769,4.5595,4.5883,4.5883,4.5883,4.5883,4.5883,4.5883,4.5883,4.5883,4.5883,4.5883,4.5883,4.5883,4.5883,4.5883,4.5883,4.5883,4.5883,4.5883,4.5883,4.5883,4.5883,4.5883,4.5883,4.5883,4.6219,4.6494,4.6494,4.6819,4.7002,4.6654,4.6929,4.721,4.721,4.7534,4.7791,4.7791,4.7937,4.8029,4.8029,4.8219,4.7286,4.4813,4.2571,4.0245,3.777,3.5498,3.4174,3.3895,3.3574,3.3414,3.3414,3.3414,3.3414,3.3414,3.3414,3.3414,3.3414,3.3414,3.3113,3.32,0.0,0.0,0.0,0.0,0.0,0.0,0.0,0.0,0.0,0.0,0.0,0.0,0.0,0.0,0.0,0.0,0.0,0.0,0.0,0.0,0.0,0.0,0.0,0.0,0.0,0.0,0.0,0.0,0.0,4.1211,4.1768,4.2255,4.271,4.2356,4.2132,4.2135,4.2809,4.3246,4.3334,4.4035,4.4219,4.3944,4.3944,4.3797,4.3499,4.3499,4.3499,4.3554,4.4256,4.4531,4.4623,4.5407,4.5737,4.5737,4.5847,4.5883,4.5883,4.5883,4.5883,4.5883,4.5883,4.5957,4.6054,4.592,4.598,4.6054,4.592,4.5975,4.6048,4.6048,4.614,4.6232,4.6232,4.6232,4.6232,4.6232,4.6525,4.6843,4.6843,4.7149,4.7424,4.7424,4.7571,4.7699,4.7699,4.8029,4.8274,4.8164,4.8145,4.8035,4.7777,4.7636,4.6543,4.4058,4.1852,3.9433,3.6752,3.4809,3.3801,3.3907,3.3574,3.3414,3.3414,3.3414,3.3414,3.3414,3.3414,3.3414,3.3414,3.3414,3.3188,0.0,0.0,0.0,3.132,0.0,0.0,0.0,0.0,2.6389,0.0,0.0,0.0,0.0,0.0,0.0,0.0,0.0,0.0,0.0,0.0,0.0,0.0,0.0,0.0,0.0,0.0,0.0,0.0,0.0,0.0,3.9863,4.0704,4.1326,4.1717,4.1717,4.1727,4.1727,4.2127,4.2531,4.2916,4.3357,4.3518,4.3518,4.3518,4.3499,4.3499,4.3499,4.3499,4.3518,4.3962,4.4127,4.4201,4.5003,4.5315,4.537,4.5755,4.5883,4.5883,4.5883,4.5883,4.5883,4.5883,4.6164,4.6402,4.6035,4.6182,4.6402,4.6017,4.6182,4.6476,4.6476,4.6764,4.7075,4.7075,4.7075,4.7075,4.7075,4.7387,4.7662,4.7662,4.7999,4.8274,4.8274,4.7937,4.7699,4.7699,4.8029,4.8164,4.7772,4.7717,4.7375,4.6458,4.5948,4.4693,4.2192,4.0014,3.743,3.4225,3.3626,3.3561,3.3907,3.3574,3.3414,3.3414,3.3414,3.3414,3.3414,3.3414,3.3414,3.3414,3.3414,3.3389,0.0,0.0,3.5138,3.4001,0.0,0.0,0.0,0.0,0.0,0.0,0.0,0.0,0.0,0.0,0.0,0.0,0.0,0.0,0.0,0.0,0.0,0.0,0.0,0.0,0.0,0.0,0.0,0.0,3.486,0.0,0.0,3.9487,4.0718,4.1728,4.1733,4.1707,4.1687,4.1815,4.2109,4.2494,4.2898,4.3246,4.3499,4.3499,4.3499,4.3499,4.3499,4.3499,4.3518,4.3921,4.4109,4.4182,4.4985,4.5297,4.5352,4.5737,4.5883,4.5883,4.5883,4.5883,4.5883,4.5883,4.5975,4.609,4.5938,4.5999,4.6067,4.5944,4.6201,4.6494,4.6494,4.68,4.7112,4.7112,4.7112,4.7112,4.7112,4.7424,4.7699,4.7699,4.8011,4.8311,4.8311,4.82,4.8109,4.8109,4.8219,4.8139,4.7736,4.7699,4.7217,4.5966,4.5066,4.3548,4.1048,3.8012,3.5475,3.3675,3.3467,3.3454,3.3574,3.3467,3.3414,3.3414,3.3414,3.3414,3.3414,3.3414,3.3414,3.3414,3.3414,3.3414,4.118,3.9836,0.0,0.0,3.5803,0.0,3.2326,0.0,0.0,0.0,0.0,0.0,0.0,0.0,0.0,0.0,0.0,0.0,0.0,0.0,0.0,0.0,0.0,0.0,0.0,0.0,3.189,3.189,3.2554,0.0,0.0,0.0,3.9663,4.1297,4.1569,4.1695,4.1695,4.1698,4.1907,4.2311,4.2696,4.31,4.3499,4.3499,4.3499,4.3499,4.3499,4.3499,4.3518,4.3797,4.3907,4.398,4.4765,4.51,4.515,4.5705,4.5883,4.5883,4.5883,4.5883,4.5883,4.5883,4.6017,4.609,4.5938,4.6085,4.6287,4.614,4.6512,4.6934,4.6934,4.7222,4.7534,4.7534,4.7534,4.7534,4.7534,4.7736,4.7901,4.7901,4.8127,4.8311,4.8311,4.8311,4.8255,4.8127,4.8109,4.7882,4.7332,4.7259,4.6725,4.532,4.4226,4.246,3.9784,3.7096,3.511,3.4039,3.3789,3.3614,3.3414,3.3414,3.3414,3.3414,3.3414,3.3414,3.3414,3.3414,3.3414,3.3414,3.3414,3.3414]}]]